Darstellungsparameter: Aktuell verwendete Einstellungen:
Skalierung der Graphiken ... ?
xyx+y,   Skalierungsfaktor:      Skalierung: Modus: x, Faktor: 1
Darstellungszeitraum ... ?
Vom - - bis: - -   Zeitraum: 26.11.2018 - 25.05.2019
Min/Max/Avg-Anzeige ... ?
Zeige MMA aktuell
Zeige MMA Monat
Zeige MMA alles
Zeige --A aktuell
Zeige --A Monat
Zeige --A alles
Keine MMA-Anzeige
MMA:
Average (ber die Originaldaten)
MMA-Basis: 17.04.2019 - 19.05.2019
Quicknavigation für Darstellung... ?
Tage:      1T, 2T, 3T, 5T -1T -2T -3T -5T +1T +2T +3T +5T
Wochen: 1W, 2W, 3W -1W -2W -3W +1W +2W +3W
Monate: 1M, 3M, 6M -1M -3M -6M +1M +3M +6M
Jahre:    1J, 3J, 5J, 10J -1J -3J -5J -10J +1J +3J +5J +10J
Nutze für die Darstellung ... ?
Originaldaten oder ...
Mittelwerte Minima Maxima auf...
Stundenbasis Tagesbasis Wochenbasis
Monatsbasis Jahresbasis      Datenbasis: Mittelwerte auf Stundenbasis
Darstellen als:
Statistik (Auto) Statistik J:M      Darstellung:
Zur Graphik,    zurück zur Übersicht aller Sensoren.
 
Tabellarische Datenbersicht: ?
 
Sensor: Nr:Datum:Temp:Abs-Feuchte:Windchill:Wind:
Aussen-T/F 1 26-11-2018 00:00:00 6.35 C 7.13 g/m*3 6.35 C 0 km/h
2 26-11-2018 01:00:00 6.425 C 7.16 g/m*3 6.43 C 0 km/h
3 26-11-2018 02:00:00 6.4 C 7.13 g/m*3 6.4 C 0.8 km/h
4 26-11-2018 03:00:00 6.4 C 7.06 g/m*3 6.4 C 1.6 km/h
5 26-11-2018 04:00:00 6.40833 C 6.97 g/m*3 6.41 C 0.26667 km/h
6 26-11-2018 05:00:00 6.38333 C 6.92 g/m*3 6.38 C 1.06667 km/h
7 26-11-2018 06:00:00 6.24167 C 6.79 g/m*3 6.24 C 0.13333 km/h
8 26-11-2018 07:00:00 5.90833 C 6.66 g/m*3 5.91 C 0.13333 km/h
9 26-11-2018 08:00:00 5.86667 C 6.7 g/m*3 5.87 C 0 km/h
10 26-11-2018 09:00:00 6.275 C 6.85 g/m*3 6.28 C 0.53333 km/h
11 26-11-2018 10:00:00 6.88333 C 6.92 g/m*3 6.88 C 2.4 km/h
12 26-11-2018 11:00:00 7.56667 C 6.81 g/m*3 6.33 C 7.25 km/h
13 26-11-2018 12:00:00 7.96667 C 6.67 g/m*3 6.51 C 8.46667 km/h
14 26-11-2018 13:00:00 8.03333 C 6.56 g/m*3 6.84 C 7.38333 km/h
15 26-11-2018 14:00:00 7.86667 C 6.65 g/m*3 7.87 C 2.41667 km/h
16 26-11-2018 15:00:00 7.86667 C 6.42 g/m*3 7.87 C 4.28333 km/h
17 26-11-2018 16:00:00 7.40833 C 6.44 g/m*3 7.41 C 1.73333 km/h
18 26-11-2018 17:00:00 6.9 C 6.36 g/m*3 6.9 C 1.06667 km/h
19 26-11-2018 18:00:00 6.3 C 6.39 g/m*3 6.3 C 0.13333 km/h
20 26-11-2018 19:00:00 6.21667 C 6.37 g/m*3 6.22 C 1.06667 km/h
21 26-11-2018 20:00:00 6.13333 C 6.33 g/m*3 6.13 C 0.26667 km/h
22 26-11-2018 21:00:00 6.03333 C 6.27 g/m*3 6.03 C 0.8 km/h
23 26-11-2018 22:00:00 6.09167 C 6.1 g/m*3 6.09 C 2.53333 km/h
24 26-11-2018 23:00:00 5.825 C 6 g/m*3 5.83 C 1.06667 km/h
25 27-11-2018 00:00:00 5.55833 C 5.85 g/m*3 5.56 C 1.73333 km/h
Sensor: Nr:Datum:Temp:Abs-Feuchte:Windchill:Wind:
Aussen-T/F 26 27-11-2018 01:00:00 5.31667 C 5.84 g/m*3 5.32 C 1.60833 km/h
27 27-11-2018 02:00:00 4.9 C 5.75 g/m*3 4.9 C 0.26667 km/h
28 27-11-2018 03:00:00 4.49167 C 5.71 g/m*3 4.49 C 0 km/h
29 27-11-2018 04:00:00 4.34167 C 5.66 g/m*3 4.34 C 0 km/h
30 27-11-2018 05:00:00 4 C 5.53 g/m*3 4 C 0 km/h
31 27-11-2018 06:00:00 3.33333 C 5.35 g/m*3 3.33 C 0.13333 km/h
32 27-11-2018 07:00:00 3.26667 C 5.42 g/m*3 3.27 C 0.26667 km/h
33 27-11-2018 08:00:00 3.46667 C 5.52 g/m*3 3.47 C 0 km/h
34 27-11-2018 09:00:00 3.73333 C 5.62 g/m*3 3.73 C 0 km/h
35 27-11-2018 10:00:00 4.55 C 5.78 g/m*3 4.55 C 0 km/h
36 27-11-2018 11:00:00 5.49167 C 5.73 g/m*3 5.49 C 4.55 km/h
37 27-11-2018 12:00:00 5.75 C 5.58 g/m*3 5.75 C 2.53333 km/h
38 27-11-2018 13:00:00 5.75 C 5.41 g/m*3 5.75 C 3.74167 km/h
39 27-11-2018 14:00:00 5.275 C 5.39 g/m*3 5.28 C 2.26667 km/h
40 27-11-2018 15:00:00 5.15 C 5.35 g/m*3 5.15 C 1.06667 km/h
41 27-11-2018 16:00:00 4.95833 C 5.27 g/m*3 4.96 C 1.6 km/h
42 27-11-2018 17:00:00 4.38333 C 5.1 g/m*3 4.38 C 3.86667 km/h
43 27-11-2018 18:00:00 3.35 C 4.93 g/m*3 3.35 C 3.73333 km/h
44 27-11-2018 19:00:00 3.71667 C 4.91 g/m*3 3.72 C 3.74167 km/h
45 27-11-2018 20:00:00 2.66667 C 4.72 g/m*3 2.67 C 3.73333 km/h
46 27-11-2018 21:00:00 1.29167 C 4.62 g/m*3 1.29 C 1.6 km/h
47 27-11-2018 22:00:00 1.85 C 4.92 g/m*3 1.85 C 0.53333 km/h
48 27-11-2018 23:00:00 2.4 C 5.07 g/m*3 2.4 C 0 km/h
49 28-11-2018 00:00:00 2.6 C 5.15 g/m*3 2.6 C 0 km/h
50 28-11-2018 01:00:00 2.56667 C 5.17 g/m*3 2.57 C 0.66667 km/h
Sensor: Nr:Datum:Temp:Abs-Feuchte:Windchill:Wind:
Aussen-T/F 51 28-11-2018 02:00:00 1.825 C 4.91 g/m*3 1.83 C 0.8 km/h
52 28-11-2018 03:00:00 0.75 C 4.66 g/m*3 0.75 C 0.13333 km/h
53 28-11-2018 04:00:00 0.25 C 4.59 g/m*3 0.25 C 0.53333 km/h
54 28-11-2018 05:00:00 0.39167 C 4.68 g/m*3 0.39 C 0.26667 km/h
55 28-11-2018 06:00:00 0.34167 C 4.69 g/m*3 0.34 C 0.66667 km/h
56 28-11-2018 07:00:00 0.50833 C 4.77 g/m*3 0.51 C 0.26667 km/h
57 28-11-2018 08:00:00 0.88333 C 4.91 g/m*3 0.88 C 0.26667 km/h
58 28-11-2018 09:00:00 2.59167 C 5.56 g/m*3 0.95 C 6.025 km/h
59 28-11-2018 10:00:00 4.00833 C 5.92 g/m*3 2.53 C 6.16667 km/h
60 28-11-2018 11:00:00 4.98333 C 5.98 g/m*3 3.69 C 6.03333 km/h
61 28-11-2018 12:00:00 5.54167 C 6.04 g/m*3 5.54 C 4.8 km/h
62 28-11-2018 13:00:00 6.125 C 6.21 g/m*3 6.13 C 4.55 km/h
63 28-11-2018 14:00:00 6.60833 C 6.3 g/m*3 5.48 C 6.31667 km/h
64 28-11-2018 15:00:00 6.15 C 6.24 g/m*3 6.15 C 4.55 km/h
65 28-11-2018 16:00:00 5.68333 C 6.3 g/m*3 5.68 C 3.06667 km/h
66 28-11-2018 17:00:00 5.38333 C 6.39 g/m*3 5.38 C 1.2 km/h
67 28-11-2018 18:00:00 5.21667 C 6.46 g/m*3 5.22 C 0.53333 km/h
68 28-11-2018 19:00:00 5.2 C 6.54 g/m*3 5.2 C 0 km/h
69 28-11-2018 20:00:00 5.2 C 6.55 g/m*3 5.2 C 0 km/h
70 28-11-2018 21:00:00 5.19167 C 6.6 g/m*3 5.19 C 0.13333 km/h
71 28-11-2018 22:00:00 5.425 C 6.71 g/m*3 5.43 C 0.53333 km/h
72 28-11-2018 23:00:00 5.375 C 6.69 g/m*3 5.38 C 0 km/h
73 29-11-2018 00:00:00 5.51667 C 6.75 g/m*3 5.52 C 1.06667 km/h
74 29-11-2018 01:00:00 5.56667 C 6.77 g/m*3 5.57 C 0.4 km/h
75 29-11-2018 02:00:00 5.41667 C 6.77 g/m*3 5.42 C 0.4 km/h
Sensor: Nr:Datum:Temp:Abs-Feuchte:Windchill:Wind:
Aussen-T/F 76 29-11-2018 03:00:00 5.575 C 6.85 g/m*3 5.58 C 1.2 km/h
77 29-11-2018 04:00:00 5.63333 C 6.87 g/m*3 5.63 C 1.2 km/h
78 29-11-2018 05:00:00 5.5 C 6.8 g/m*3 5.5 C 3.6 km/h
79 29-11-2018 06:00:00 5.23333 C 6.62 g/m*3 5.23 C 4.68333 km/h
80 29-11-2018 07:00:00 5.225 C 6.58 g/m*3 3.64 C 7.10833 km/h
81 29-11-2018 08:00:00 5.36667 C 6.53 g/m*3 4.41 C 5.23333 km/h
82 29-11-2018 09:00:00 5.46667 C 6.47 g/m*3 3.92 C 7.10833 km/h
83 29-11-2018 10:00:00 5.95 C 6.6 g/m*3 5.08 C 5.21667 km/h
84 29-11-2018 11:00:00 6.50833 C 6.7 g/m*3 6.51 C 3.46667 km/h
85 29-11-2018 12:00:00 6.78333 C 6.72 g/m*3 6.78 C 3.74167 km/h
86 29-11-2018 13:00:00 6.49091 C 6.68 g/m*3 5.53 C 5.7 km/h
87 29-11-2018 14:00:00 6.725 C 6.78 g/m*3 4.63 C 10.45 km/h
88 29-11-2018 15:00:00 6.725 C 6.71 g/m*3 4.99 C 8.75 km/h
89 29-11-2018 16:00:00 6.34167 C 6.51 g/m*3 6.34 C 4.26667 km/h
90 29-11-2018 17:00:00 5.65833 C 6.28 g/m*3 5.66 C 4.83333 km/h
91 29-11-2018 18:00:00 5.075 C 6.2 g/m*3 5.08 C 1.33333 km/h
92 29-11-2018 19:00:00 5.025 C 6.31 g/m*3 5.03 C 0.26667 km/h
93 29-11-2018 20:00:00 5.23333 C 6.45 g/m*3 5.23 C 0.66667 km/h
94 29-11-2018 21:00:00 4.94167 C 6.3 g/m*3 4.94 C 0.66667 km/h
95 29-11-2018 22:00:00 5 C 6.42 g/m*3 5 C 1.06667 km/h
96 29-11-2018 23:00:00 5.4 C 6.52 g/m*3 5.4 C 0.93333 km/h
97 30-11-2018 00:00:00 5.76667 C 6.72 g/m*3 5.77 C 0.26667 km/h
98 30-11-2018 01:00:00 6.31667 C 6.96 g/m*3 6.32 C 0 km/h
99 30-11-2018 02:00:00 6.25833 C 6.91 g/m*3 6.26 C 0 km/h
100 30-11-2018 03:00:00 6.45833 C 7.03 g/m*3 6.46 C 0.66667 km/h
Sensor: Nr:Datum:Temp:Abs-Feuchte:Windchill:Wind:
Aussen-T/F 101 30-11-2018 04:00:00 6.68333 C 7.17 g/m*3 6.68 C 0 km/h
102 30-11-2018 05:00:00 6.36667 C 7.06 g/m*3 6.37 C 0.13333 km/h
103 30-11-2018 06:00:00 6.33333 C 7.12 g/m*3 6.33 C 0.26667 km/h
104 30-11-2018 07:00:00 6.73333 C 7.31 g/m*3 6.73 C 0.66667 km/h
105 30-11-2018 08:00:00 6.49167 C 7.2 g/m*3 6.49 C 0 km/h
106 30-11-2018 09:00:00 6.74167 C 7.39 g/m*3 6.74 C 0.13333 km/h
107 30-11-2018 10:00:00 7.29167 C 7.66 g/m*3 7.29 C 0 km/h
108 30-11-2018 11:00:00 7.88333 C 7.96 g/m*3 7.88 C 0 km/h
109 30-11-2018 12:00:00 8.425 C 8.23 g/m*3 8.43 C 0 km/h
110 30-11-2018 13:00:00 9.04167 C 8.52 g/m*3 9.04 C 0.53333 km/h
111 30-11-2018 14:00:00 9.58333 C 8.69 g/m*3 9.58 C 1.2 km/h
112 30-11-2018 15:00:00 9.3 C 8.34 g/m*3 9.3 C 3.6 km/h
113 30-11-2018 16:00:00 9 C 8.15 g/m*3 9 C 4.26667 km/h
114 30-11-2018 17:00:00 8.85 C 8.12 g/m*3 8.85 C 1.6 km/h
115 30-11-2018 18:00:00 8.475 C 7.94 g/m*3 8.48 C 0.26667 km/h
116 30-11-2018 19:00:00 8.28333 C 7.92 g/m*3 8.28 C 0.13333 km/h
117 30-11-2018 20:00:00 7.44167 C 7.52 g/m*3 7.44 C 2 km/h
118 30-11-2018 21:00:00 8.15 C 7.83 g/m*3 7.46 C 5.625 km/h
119 30-11-2018 22:00:00 7.05833 C 7.23 g/m*3 7.06 C 1.2 km/h
120 30-11-2018 23:00:00 5.75 C 6.7 g/m*3 5.75 C 0.13333 km/h
121 01-12-2018 00:00:00 5.3 C 6.61 g/m*3 5.3 C 0 km/h
122 01-12-2018 01:00:00 5.35 C 6.68 g/m*3 5.35 C 2.4 km/h
123 01-12-2018 02:00:00 5.86667 C 6.92 g/m*3 5.87 C 3.6 km/h
124 01-12-2018 03:00:00 5.25 C 6.63 g/m*3 5.25 C 0.8 km/h
125 01-12-2018 04:00:00 5.13333 C 6.58 g/m*3 5.13 C 0.26667 km/h
Sensor: Nr:Datum:Temp:Abs-Feuchte:Windchill:Wind:
Aussen-T/F 126 01-12-2018 05:00:00 4.90833 C 6.5 g/m*3 4.91 C 0.26667 km/h
127 01-12-2018 06:00:00 5.53333 C 6.83 g/m*3 5.53 C 0.53333 km/h
128 01-12-2018 07:00:00 6.125 C 7.1 g/m*3 6.13 C 3.75 km/h
129 01-12-2018 08:00:00 6.575 C 7.26 g/m*3 6.58 C 3.06667 km/h
130 01-12-2018 09:00:00 7.225 C 7.55 g/m*3 7.23 C 0.26667 km/h
131 01-12-2018 10:00:00 7.95833 C 7.83 g/m*3 7.96 C 2.00833 km/h
132 01-12-2018 11:00:00 8.975 C 7.91 g/m*3 8.98 C 2.66667 km/h
133 01-12-2018 12:00:00 9.75 C 7.98 g/m*3 9.75 C 2.66667 km/h
134 01-12-2018 13:00:00 9.79167 C 7.7 g/m*3 9.37 C 5.5 km/h
135 01-12-2018 14:00:00 9.5 C 7.53 g/m*3 9.12 C 5.21667 km/h
136 01-12-2018 15:00:00 9.475 C 7.63 g/m*3 9.48 C 0.66667 km/h
137 01-12-2018 16:00:00 9.00833 C 7.51 g/m*3 9.01 C 1.2 km/h
138 01-12-2018 17:00:00 8.60833 C 7.6 g/m*3 8.61 C 1.06667 km/h
139 01-12-2018 18:00:00 7.71667 C 7.54 g/m*3 7.72 C 1.46667 km/h
140 01-12-2018 19:00:00 7.875 C 7.5 g/m*3 7.88 C 3.88333 km/h
141 01-12-2018 20:00:00 8.34167 C 7.47 g/m*3 8.34 C 2.80833 km/h
142 01-12-2018 21:00:00 8.41667 C 7.54 g/m*3 8.42 C 3.33333 km/h
143 01-12-2018 22:00:00 8.38333 C 7.65 g/m*3 8.38 C 0.53333 km/h
144 01-12-2018 23:00:00 8.69167 C 7.75 g/m*3 8.69 C 2.66667 km/h
145 02-12-2018 00:00:00 9.1 C 7.85 g/m*3 9.1 C 3.875 km/h
146 02-12-2018 01:00:00 9.425 C 7.94 g/m*3 9.43 C 3.46667 km/h
147 02-12-2018 02:00:00 9.76667 C 8.05 g/m*3 9.77 C 3.08333 km/h
148 02-12-2018 03:00:00 9.91667 C 8.13 g/m*3 9.92 C 4.28333 km/h
149 02-12-2018 04:00:00 9.59167 C 8.29 g/m*3 9.59 C 1.46667 km/h
150 02-12-2018 05:00:00 8.75833 C 8.21 g/m*3 8.76 C 0.93333 km/h
Sensor: Nr:Datum:Temp:Abs-Feuchte:Windchill:Wind:
Aussen-T/F 151 02-12-2018 06:00:00 8.74167 C 8.3 g/m*3 8.74 C 0.93333 km/h
152 02-12-2018 07:00:00 8.95 C 8.44 g/m*3 8.95 C 0.8 km/h
153 02-12-2018 08:00:00 9.15 C 8.61 g/m*3 9.15 C 0.66667 km/h
154 02-12-2018 09:00:00 9.60833 C 8.89 g/m*3 9.61 C 3.48333 km/h
155 02-12-2018 10:00:00 10.1 C 9.13 g/m*3 8.56 C 11.15833 km/h
156 02-12-2018 11:00:00 10.9 C 9.52 g/m*3 9.32 C 12.625 km/h
157 02-12-2018 12:00:00 12.15833 C 10.12 g/m*3 12.16 C 13.55833 km/h
158 02-12-2018 13:00:00 13.1 C 10.45 g/m*3 13.1 C 16.1 km/h
159 02-12-2018 14:00:00 13.38333 C 10.68 g/m*3 13.38 C 12.75833 km/h
160 02-12-2018 15:00:00 13.58333 C 10.82 g/m*3 13.58 C 9.80833 km/h
161 02-12-2018 16:00:00 13.25 C 10.69 g/m*3 13.25 C 6.16667 km/h
162 02-12-2018 17:00:00 13.06667 C 10.73 g/m*3 13.07 C 7.38333 km/h
163 02-12-2018 18:00:00 13.70833 C 10.91 g/m*3 13.71 C 10.08333 km/h
164 02-12-2018 19:00:00 13.71667 C 10.99 g/m*3 13.72 C 6.96667 km/h
165 02-12-2018 20:00:00 13.00833 C 10.61 g/m*3 13.01 C 0.93333 km/h
166 02-12-2018 21:00:00 12.8 C 10.62 g/m*3 12.8 C 1.46667 km/h
167 02-12-2018 22:00:00 12.48333 C 10.44 g/m*3 12.48 C 0.13333 km/h
168 02-12-2018 23:00:00 12.46667 C 10.55 g/m*3 12.47 C 2.01667 km/h
169 03-12-2018 00:00:00 12.86667 C 10.82 g/m*3 12.87 C 10.9 km/h
170 03-12-2018 01:00:00 12.40833 C 10.45 g/m*3 12.41 C 7.925 km/h
171 03-12-2018 02:00:00 12.1 C 10.21 g/m*3 12.1 C 4.95833 km/h
172 03-12-2018 03:00:00 11.78333 C 10.08 g/m*3 11.78 C 4.95 km/h
173 03-12-2018 04:00:00 12.39167 C 10.49 g/m*3 12.39 C 6.84167 km/h
174 03-12-2018 05:00:00 12.325 C 10.44 g/m*3 12.33 C 3.2 km/h
175 03-12-2018 06:00:00 11.93333 C 10.22 g/m*3 11.93 C 4.675 km/h
Sensor: Nr:Datum:Temp:Abs-Feuchte:Windchill:Wind:
Aussen-T/F 176 03-12-2018 07:00:00 11.98333 C 10.32 g/m*3 11.98 C 2.80833 km/h
177 03-12-2018 08:00:00 11.84167 C 10.24 g/m*3 11.84 C 4.15833 km/h
178 03-12-2018 09:00:00 12.175 C 10.45 g/m*3 12.18 C 6.425 km/h
179 03-12-2018 10:00:00 12.33333 C 10.55 g/m*3 12.33 C 2.275 km/h
180 03-12-2018 11:00:00 12.825 C 10.88 g/m*3 12.83 C 5.49167 km/h
181 03-12-2018 12:00:00 12.875 C 10.82 g/m*3 12.88 C 7.38333 km/h
182 03-12-2018 13:00:00 12.40833 C 10.28 g/m*3 12.41 C 9.4 km/h
183 03-12-2018 14:00:00 12.13333 C 10.15 g/m*3 12.13 C 7.24167 km/h
184 03-12-2018 15:00:00 11.825 C 9.91 g/m*3 11.83 C 6.69167 km/h
185 03-12-2018 16:00:00 11.55 C 9.79 g/m*3 11.55 C 1.2 km/h
186 03-12-2018 17:00:00 11.225 C 9.67 g/m*3 11.23 C 3.21667 km/h
187 03-12-2018 18:00:00 11.05833 C 9.64 g/m*3 11.06 C 4.95833 km/h
188 03-12-2018 19:00:00 10.88333 C 9.54 g/m*3 10.88 C 4.69167 km/h
189 03-12-2018 20:00:00 10.86667 C 9.53 g/m*3 10.43 C 6.16667 km/h
190 03-12-2018 21:00:00 10.23333 C 9.08 g/m*3 10.23 C 3.74167 km/h
191 03-12-2018 22:00:00 9.73333 C 8.85 g/m*3 9.73 C 4.14167 km/h
192 03-12-2018 23:00:00 10.65 C 9.29 g/m*3 9.42 C 9.94167 km/h
193 04-12-2018 00:00:00 10.775 C 9.28 g/m*3 10.04 C 7.4 km/h
194 04-12-2018 01:00:00 10.58333 C 9.06 g/m*3 9.27 C 10.35833 km/h
195 04-12-2018 02:00:00 10.28333 C 8.59 g/m*3 9.3 C 8.18333 km/h
196 04-12-2018 03:00:00 9.7 C 8.14 g/m*3 7.73 C 13.55833 km/h
197 04-12-2018 04:00:00 8.74167 C 7.78 g/m*3 6.95 C 11.03333 km/h
198 04-12-2018 05:00:00 8.325 C 7.62 g/m*3 7.02 C 8.06667 km/h
199 04-12-2018 06:00:00 7.74167 C 7.45 g/m*3 7.74 C 1.06667 km/h
200 04-12-2018 07:00:00 7.625 C 7.39 g/m*3 7.63 C 4.55 km/h
Sensor: Nr:Datum:Temp:Abs-Feuchte:Windchill:Wind:
Aussen-T/F 201 04-12-2018 08:00:00 7.25 C 7.23 g/m*3 7.25 C 3.875 km/h
202 04-12-2018 09:00:00 7.275 C 7.07 g/m*3 7.28 C 2.66667 km/h
203 04-12-2018 10:00:00 7.59167 C 7.09 g/m*3 7.59 C 3.20833 km/h
204 04-12-2018 11:00:00 7.975 C 7.3 g/m*3 6.91 C 6.84167 km/h
205 04-12-2018 12:00:00 8.28333 C 7.21 g/m*3 7.07 C 7.65 km/h
206 04-12-2018 13:00:00 8.075 C 7.14 g/m*3 8.07 C 2.53333 km/h
207 04-12-2018 14:00:00 7.79167 C 7.18 g/m*3 7.79 C 1.33333 km/h
208 04-12-2018 15:00:00 7.4 C 6.71 g/m*3 7.4 C 3.34167 km/h
209 04-12-2018 16:00:00 5.05833 C 6.07 g/m*3 5.06 C 0 km/h
210 04-12-2018 17:00:00 3.59167 C 5.72 g/m*3 3.59 C 0 km/h
211 04-12-2018 18:00:00 2.75833 C 5.51 g/m*3 2.76 C 0 km/h
212 04-12-2018 19:00:00 2.35833 C 5.4 g/m*3 2.36 C 0 km/h
213 04-12-2018 20:00:00 2.00833 C 5.3 g/m*3 2.01 C 0 km/h
214 04-12-2018 21:00:00 1.54167 C 5.13 g/m*3 1.54 C 0 km/h
215 04-12-2018 22:00:00 1.425 C 5.13 g/m*3 1.43 C 0.13333 km/h
216 04-12-2018 23:00:00 1.53333 C 5.17 g/m*3 1.53 C 0 km/h
217 05-12-2018 00:00:00 1.6 C 5.22 g/m*3 1.6 C 0 km/h
218 05-12-2018 01:00:00 1.31667 C 5.12 g/m*3 1.32 C 0 km/h
219 05-12-2018 02:00:00 1.15833 C 5.05 g/m*3 1.16 C 0.26667 km/h
220 05-12-2018 03:00:00 1.16667 C 5.09 g/m*3 1.17 C 0 km/h
221 05-12-2018 04:00:00 1.1 C 5.07 g/m*3 1.1 C 0.26667 km/h
222 05-12-2018 05:00:00 1.19167 C 5.1 g/m*3 1.19 C 0 km/h
223 05-12-2018 06:00:00 1.31667 C 5.14 g/m*3 1.32 C 0 km/h
224 05-12-2018 07:00:00 1.40833 C 5.18 g/m*3 1.41 C 0 km/h
225 05-12-2018 08:00:00 1.7 C 5.28 g/m*3 1.7 C 0.26667 km/h
Sensor: Nr:Datum:Temp:Abs-Feuchte:Windchill:Wind:
Aussen-T/F 226 05-12-2018 09:00:00 1.84167 C 5.33 g/m*3 1.84 C 1.33333 km/h
227 05-12-2018 10:00:00 2.325 C 5.52 g/m*3 2.33 C 0.4 km/h
228 05-12-2018 11:00:00 3.11667 C 5.87 g/m*3 3.12 C 0.93333 km/h
229 05-12-2018 12:00:00 4.08333 C 6.27 g/m*3 4.08 C 0.4 km/h
230 05-12-2018 13:00:00 5.14167 C 6.72 g/m*3 5.14 C 0.4 km/h
231 05-12-2018 14:00:00 6.35 C 7.23 g/m*3 6.35 C 0.66667 km/h
232 05-12-2018 15:00:00 6.63333 C 7.22 g/m*3 6.63 C 0.8 km/h
233 05-12-2018 16:00:00 6.10833 C 6.9 g/m*3 6.11 C 0.66667 km/h
234 05-12-2018 17:00:00 6.05833 C 6.89 g/m*3 6.06 C 2.40833 km/h
235 05-12-2018 18:00:00 6.09167 C 6.8 g/m*3 6.09 C 4.68333 km/h
236 05-12-2018 19:00:00 5.88333 C 6.72 g/m*3 5.88 C 0.13333 km/h
237 05-12-2018 20:00:00 5.28333 C 6.51 g/m*3 5.28 C 0 km/h
238 05-12-2018 21:00:00 5.025 C 6.47 g/m*3 5.03 C 0 km/h
239 05-12-2018 22:00:00 5.06667 C 6.52 g/m*3 5.07 C 0 km/h
240 05-12-2018 23:00:00 5.60833 C 6.79 g/m*3 5.61 C 0 km/h
241 06-12-2018 00:00:00 6.01667 C 7.01 g/m*3 6.02 C 1.06667 km/h
242 06-12-2018 01:00:00 6.33333 C 7.2 g/m*3 6.33 C 0.13333 km/h
243 06-12-2018 02:00:00 6.28333 C 7.17 g/m*3 6.28 C 0.13333 km/h
244 06-12-2018 03:00:00 6.325 C 7.19 g/m*3 6.33 C 0 km/h
245 06-12-2018 04:00:00 6.53333 C 7.29 g/m*3 6.53 C 0 km/h
246 06-12-2018 05:00:00 6.70833 C 7.37 g/m*3 6.71 C 0 km/h
247 06-12-2018 06:00:00 6.85833 C 7.45 g/m*3 6.86 C 0 km/h
248 06-12-2018 07:00:00 7.24167 C 7.67 g/m*3 7.24 C 1.33333 km/h
249 06-12-2018 08:00:00 8.06667 C 8.14 g/m*3 8.07 C 4.01667 km/h
250 06-12-2018 09:00:00 9.16667 C 8.73 g/m*3 7.64 C 9.95 km/h
Sensor: Nr:Datum:Temp:Abs-Feuchte:Windchill:Wind:
Aussen-T/F 251 06-12-2018 10:00:00 9.90833 C 9.08 g/m*3 8.7 C 9 km/h
252 06-12-2018 11:00:00 10.7 C 9.37 g/m*3 9.84 C 7.925 km/h
253 06-12-2018 12:00:00 11.33333 C 9.48 g/m*3 11.33 C 10.625 km/h
254 06-12-2018 13:00:00 11.79167 C 9.62 g/m*3 11.79 C 7.24167 km/h
255 06-12-2018 14:00:00 12.175 C 9.69 g/m*3 12.18 C 7.79167 km/h
256 06-12-2018 15:00:00 12.05 C 9.58 g/m*3 12.05 C 4.69167 km/h
257 06-12-2018 16:00:00 11.675 C 9.44 g/m*3 11.68 C 4.69167 km/h
258 06-12-2018 17:00:00 11.34167 C 9.31 g/m*3 11.34 C 2.26667 km/h
259 06-12-2018 18:00:00 11.34167 C 9.41 g/m*3 11.34 C 3.875 km/h
260 06-12-2018 19:00:00 11.88333 C 9.7 g/m*3 11.88 C 6.69167 km/h
261 06-12-2018 20:00:00 12.45833 C 9.89 g/m*3 12.46 C 11.00833 km/h
262 06-12-2018 21:00:00 12.73333 C 10.04 g/m*3 12.73 C 10.60833 km/h
263 06-12-2018 22:00:00 12.68333 C 10.01 g/m*3 12.68 C 9.125 km/h
264 06-12-2018 23:00:00 12.64167 C 9.97 g/m*3 12.64 C 10.21667 km/h
265 07-12-2018 00:00:00 12.71667 C 10.03 g/m*3 12.72 C 10.18333 km/h
266 07-12-2018 01:00:00 12.7 C 10.02 g/m*3 12.7 C 11.15833 km/h
267 07-12-2018 02:00:00 12.75833 C 9.92 g/m*3 12.76 C 17.16667 km/h
268 07-12-2018 03:00:00 12.5 C 9.87 g/m*3 12.5 C 14.23333 km/h
269 07-12-2018 04:00:00 12.31667 C 9.68 g/m*3 12.32 C 16.63333 km/h
270 07-12-2018 05:00:00 12.21667 C 9.53 g/m*3 12.22 C 8.30833 km/h
271 07-12-2018 06:00:00 11.96667 C 9.46 g/m*3 11.97 C 7.925 km/h
272 07-12-2018 07:00:00 12.05833 C 9.16 g/m*3 12.06 C 16.36667 km/h
273 07-12-2018 08:00:00 12.05 C 9.03 g/m*3 12.05 C 12.76667 km/h
274 07-12-2018 09:00:00 11.9 C 9.11 g/m*3 11.9 C 13.69167 km/h
275 07-12-2018 10:00:00 11.76667 C 9.18 g/m*3 11.77 C 17.7 km/h
Sensor: Nr:Datum:Temp:Abs-Feuchte:Windchill:Wind:
Aussen-T/F 276 07-12-2018 11:00:00 11.8 C 9.1 g/m*3 11.8 C 15.7 km/h
277 07-12-2018 12:00:00 12.025 C 8.99 g/m*3 12.03 C 18.375 km/h
278 07-12-2018 13:00:00 12.24167 C 8.97 g/m*3 12.24 C 18.64167 km/h
279 07-12-2018 14:00:00 12.40833 C 8.94 g/m*3 12.41 C 17.175 km/h
280 07-12-2018 15:00:00 11.65 C 8.78 g/m*3 11.65 C 14.36667 km/h
281 07-12-2018 16:00:00 11.13333 C 8.56 g/m*3 11.13 C 10.1 km/h
282 07-12-2018 17:00:00 10.69167 C 8.57 g/m*3 10.16 C 6.45 km/h
283 07-12-2018 18:00:00 10.425 C 8.66 g/m*3 9.08 C 10.35 km/h
284 07-12-2018 19:00:00 10.25 C 8.69 g/m*3 8.02 C 16.775 km/h
285 07-12-2018 20:00:00 9.24167 C 7.77 g/m*3 6.55 C 18.76667 km/h
286 07-12-2018 21:00:00 8.35833 C 7.02 g/m*3 5.8 C 15.7 km/h
287 07-12-2018 22:00:00 7.21667 C 6.56 g/m*3 5.09 C 11.14167 km/h
288 07-12-2018 23:00:00 7.1 C 6.71 g/m*3 5.56 C 8.19167 km/h
289 08-12-2018 00:00:00 7.325 C 6.66 g/m*3 5.98 C 7.51667 km/h
290 08-12-2018 01:00:00 6.95 C 6.59 g/m*3 4.84 C 10.74167 km/h
291 08-12-2018 02:00:00 7.04167 C 6.58 g/m*3 4.21 C 15.43333 km/h
292 08-12-2018 03:00:00 6.83333 C 6.58 g/m*3 4.26 C 13.3 km/h
293 08-12-2018 04:00:00 6.60833 C 6.59 g/m*3 4.14 C 12.35833 km/h
294 08-12-2018 05:00:00 6.8 C 6.72 g/m*3 4.02 C 14.63333 km/h
295 08-12-2018 06:00:00 6.90833 C 6.8 g/m*3 3.84 C 16.91667 km/h
296 08-12-2018 07:00:00 6.98333 C 6.8 g/m*3 3.6 C 19.71667 km/h
297 08-12-2018 08:00:00 6.9 C 6.81 g/m*3 3.67 C 18.23333 km/h
298 08-12-2018 09:00:00 6.74167 C 6.87 g/m*3 3.66 C 16.76667 km/h
299 08-12-2018 10:00:00 7.11667 C 7.01 g/m*3 3.94 C 18.23333 km/h
300 08-12-2018 11:00:00 7.50833 C 7.33 g/m*3 4.99 C 13.96667 km/h
Sensor: Nr:Datum:Temp:Abs-Feuchte:Windchill:Wind:
Aussen-T/F 301 08-12-2018 12:00:00 7.78333 C 7.37 g/m*3 4.64 C 19.43333 km/h
302 08-12-2018 13:00:00 8.15 C 7.54 g/m*3 5.38 C 17.03333 km/h
303 08-12-2018 14:00:00 8.6 C 7.63 g/m*3 5.97 C 16.76667 km/h
304 08-12-2018 15:00:00 8.6 C 7.58 g/m*3 6.02 C 16.36667 km/h
305 08-12-2018 16:00:00 8.63333 C 7.6 g/m*3 6.24 C 14.9 km/h
306 08-12-2018 17:00:00 8.86667 C 7.64 g/m*3 6.06 C 18.9 km/h
307 08-12-2018 18:00:00 8.95 C 7.73 g/m*3 6.14 C 19.16667 km/h
308 08-12-2018 19:00:00 9.09167 C 7.83 g/m*3 6.1 C 21.30833 km/h
309 08-12-2018 20:00:00 9.25833 C 8.06 g/m*3 6.55 C 18.9 km/h
310 08-12-2018 21:00:00 9.775 C 8.32 g/m*3 6.98 C 21.19167 km/h
311 08-12-2018 22:00:00 9.9 C 8.57 g/m*3 7.23 C 20.24167 km/h
312 08-12-2018 23:00:00 10.04167 C 8.62 g/m*3 8.04 C 14.375 km/h
313 09-12-2018 00:00:00 10.025 C 7.76 g/m*3 7.57 C 18.375 km/h
314 09-12-2018 01:00:00 9.84167 C 7.56 g/m*3 7.2 C 19.70833 km/h
315 09-12-2018 02:00:00 9.63333 C 7.63 g/m*3 7.04 C 18.775 km/h
316 09-12-2018 03:00:00 9.29167 C 7.21 g/m*3 6.95 C 15.7 km/h
317 09-12-2018 04:00:00 8.81667 C 7.22 g/m*3 6.54 C 14.36667 km/h
318 09-12-2018 05:00:00 8.38333 C 7.17 g/m*3 6.02 C 14.23333 km/h
319 09-12-2018 06:00:00 8.06667 C 7.1 g/m*3 5.73 C 13.56667 km/h
320 09-12-2018 07:00:00 8.15 C 7.15 g/m*3 5.74 C 14.24167 km/h
321 09-12-2018 08:00:00 8.73333 C 7.16 g/m*3 6.85 C 11.56667 km/h
322 09-12-2018 09:00:00 8.56667 C 7.41 g/m*3 6.93 C 9.95 km/h
323 09-12-2018 10:00:00 8.1 C 7.57 g/m*3 5.87 C 12.9 km/h
324 09-12-2018 11:00:00 7.825 C 7.45 g/m*3 5.42 C 13.7 km/h
325 09-12-2018 12:00:00 7.79167 C 7.65 g/m*3 6.5 C 7.65 km/h
Sensor: Nr:Datum:Temp:Abs-Feuchte:Windchill:Wind:
Aussen-T/F 326 09-12-2018 13:00:00 7.475 C 7.41 g/m*3 4.95 C 13.95 km/h
327 09-12-2018 14:00:00 7 C 7.3 g/m*3 5.47 C 8.04545 km/h
328 09-12-2018 15:00:00 7.36667 C 7.46 g/m*3 5.84 C 8.30833 km/h
329 09-12-2018 16:00:00 7.34167 C 7.37 g/m*3 5.97 C 7.63333 km/h
330 09-12-2018 17:00:00 7.225 C 7.3 g/m*3 5.2 C 10.60833 km/h
331 09-12-2018 18:00:00 7.7 C 7.19 g/m*3 5.21 C 14.09167 km/h
332 09-12-2018 19:00:00 8.1 C 7.09 g/m*3 5.27 C 17.43333 km/h
333 09-12-2018 20:00:00 7.81667 C 7.11 g/m*3 5.37 C 13.96667 km/h
334 09-12-2018 21:00:00 6.74167 C 6.9 g/m*3 4.84 C 9.51667 km/h
335 09-12-2018 22:00:00 6.40833 C 6.8 g/m*3 4.91 C 7.51667 km/h
336 09-12-2018 23:00:00 6.125 C 6.71 g/m*3 4.69 C 7.09167 km/h
337 10-12-2018 00:00:00 6.01667 C 6.58 g/m*3 3.45 C 12.21667 km/h
338 10-12-2018 01:00:00 5.85 C 6.54 g/m*3 3.2 C 12.5 km/h
339 10-12-2018 02:00:00 5.96667 C 6.48 g/m*3 3.39 C 12.23333 km/h
340 10-12-2018 03:00:00 5.775 C 6.26 g/m*3 2.99 C 13.16667 km/h
341 10-12-2018 04:00:00 5.7 C 6.25 g/m*3 3.48 C 10.075 km/h
342 10-12-2018 05:00:00 5.36667 C 6.38 g/m*3 4.22 C 5.76667 km/h
343 10-12-2018 06:00:00 4.95 C 6.3 g/m*3 4.95 C 4.275 km/h
344 10-12-2018 07:00:00 4.85 C 6.28 g/m*3 2.52 C 9.825 km/h
345 10-12-2018 08:00:00 4.35 C 6.11 g/m*3 2.67 C 6.95833 km/h
346 10-12-2018 09:00:00 4.51667 C 6.19 g/m*3 4.52 C 4.80833 km/h
347 10-12-2018 10:00:00 4.93333 C 6.31 g/m*3 3.3 C 7.10833 km/h
348 10-12-2018 11:00:00 5.23333 C 6.31 g/m*3 3.82 C 6.55 km/h
349 10-12-2018 12:00:00 5.46667 C 6.47 g/m*3 3.41 C 9.14167 km/h
350 10-12-2018 13:00:00 5.325 C 6.46 g/m*3 5.33 C 3.75 km/h
Sensor: Nr:Datum:Temp:Abs-Feuchte:Windchill:Wind:
Aussen-T/F 351 10-12-2018 14:00:00 5.875 C 6.68 g/m*3 5.88 C 4.175 km/h
352 10-12-2018 15:00:00 5.875 C 6.36 g/m*3 3.63 C 10.35833 km/h
353 10-12-2018 16:00:00 4.675 C 6.13 g/m*3 2.81 C 7.78333 km/h
354 10-12-2018 17:00:00 4.54167 C 6.12 g/m*3 2.62 C 7.91667 km/h
355 10-12-2018 18:00:00 4.25833 C 5.9 g/m*3 1.7 C 10.34167 km/h
356 10-12-2018 19:00:00 3.95 C 5.7 g/m*3 2.51 C 6.025 km/h
357 10-12-2018 20:00:00 4.26667 C 5.83 g/m*3 2.4 C 7.525 km/h
358 10-12-2018 21:00:00 3.95833 C 5.7 g/m*3 2.81 C 5.225 km/h
359 10-12-2018 22:00:00 3.51667 C 5.59 g/m*3 3.52 C 4.13333 km/h
360 10-12-2018 23:00:00 4.00833 C 5.73 g/m*3 2.62 C 5.88333 km/h
361 11-12-2018 00:00:00 3.81667 C 5.66 g/m*3 3.82 C 3.46667 km/h
362 11-12-2018 01:00:00 3.86667 C 5.74 g/m*3 2.56 C 5.625 km/h
363 11-12-2018 02:00:00 4.375 C 5.89 g/m*3 2.61 C 7.25833 km/h
364 11-12-2018 03:00:00 4.275 C 5.93 g/m*3 2.93 C 5.89167 km/h
365 11-12-2018 04:00:00 4.16667 C 5.95 g/m*3 4.17 C 4.95833 km/h
366 11-12-2018 05:00:00 4.25833 C 6 g/m*3 3.05 C 5.5 km/h
367 11-12-2018 06:00:00 4.14167 C 5.96 g/m*3 4.14 C 3.46667 km/h
368 11-12-2018 07:00:00 3.925 C 5.97 g/m*3 3.93 C 2.675 km/h
369 11-12-2018 08:00:00 3.76667 C 5.95 g/m*3 3.77 C 4.7 km/h
370 11-12-2018 09:00:00 3.8 C 5.96 g/m*3 3.8 C 1.73333 km/h
371 11-12-2018 10:00:00 4.09167 C 6.06 g/m*3 4.09 C 4.81667 km/h
372 11-12-2018 11:00:00 4.23333 C 6.1 g/m*3 2.65 C 6.56667 km/h
373 11-12-2018 12:00:00 4.98333 C 6.32 g/m*3 4.98 C 4.275 km/h
374 11-12-2018 13:00:00 4.84167 C 6.22 g/m*3 4.84 C 4.675 km/h
375 11-12-2018 14:00:00 4.675 C 6.24 g/m*3 4.68 C 1.06667 km/h
Sensor: Nr:Datum:Temp:Abs-Feuchte:Windchill:Wind:
Aussen-T/F 376 11-12-2018 15:00:00 4.825 C 6.33 g/m*3 4.83 C 0.13333 km/h
377 11-12-2018 16:00:00 4.45 C 6.19 g/m*3 4.45 C 2.53333 km/h
378 11-12-2018 17:00:00 3.96667 C 5.97 g/m*3 3.97 C 2.94167 km/h
379 11-12-2018 18:00:00 3.18333 C 5.67 g/m*3 3.18 C 1.46667 km/h
380 11-12-2018 19:00:00 3.30833 C 5.8 g/m*3 3.31 C 0.53333 km/h
381 11-12-2018 20:00:00 3.325 C 5.8 g/m*3 3.33 C 0.13333 km/h
382 11-12-2018 21:00:00 2.33333 C 5.41 g/m*3 2.33 C 0 km/h
383 11-12-2018 22:00:00 1.76667 C 5.22 g/m*3 1.77 C 0.26667 km/h
384 11-12-2018 23:00:00 1.875 C 5.29 g/m*3 1.88 C 0 km/h
385 12-12-2018 00:00:00 2.14167 C 5.39 g/m*3 2.14 C 0.13333 km/h
386 12-12-2018 01:00:00 1.69167 C 5.22 g/m*3 1.69 C 0.8 km/h
387 12-12-2018 02:00:00 2.10833 C 5.43 g/m*3 2.11 C 0.66667 km/h
388 12-12-2018 03:00:00 2.4 C 5.54 g/m*3 2.4 C 3.2 km/h
389 12-12-2018 04:00:00 2.43333 C 5.55 g/m*3 2.43 C 0.93333 km/h
390 12-12-2018 05:00:00 2.49167 C 5.55 g/m*3 2.49 C 0.8 km/h
391 12-12-2018 06:00:00 2.58182 C 5.61 g/m*3 2.58 C 0.14545 km/h
392 12-12-2018 07:00:00 2.65 C 5.63 g/m*3 2.65 C 0 km/h
393 12-12-2018 08:00:00 2.73333 C 5.66 g/m*3 2.73 C 0 km/h
394 12-12-2018 09:00:00 2.89167 C 5.73 g/m*3 2.89 C 0.26667 km/h
395 12-12-2018 10:00:00 3.34167 C 5.9 g/m*3 3.34 C 0.26667 km/h
396 12-12-2018 11:00:00 3.89167 C 6.12 g/m*3 3.89 C 0.93333 km/h
397 12-12-2018 12:00:00 4.3 C 6.19 g/m*3 4.3 C 0.4 km/h
398 12-12-2018 13:00:00 4.21667 C 6.08 g/m*3 4.22 C 0 km/h
399 12-12-2018 14:00:00 4.425 C 6.02 g/m*3 4.43 C 0 km/h
400 12-12-2018 15:00:00 3.15833 C 5.51 g/m*3 3.16 C 2 km/h
Sensor: Nr:Datum:Temp:Abs-Feuchte:Windchill:Wind:
Aussen-T/F 401 12-12-2018 16:00:00 2.18333 C 5.23 g/m*3 2.18 C 1.33333 km/h
402 12-12-2018 17:00:00 1.575 C 5.09 g/m*3 1.58 C 0.93333 km/h
403 12-12-2018 18:00:00 1.81667 C 5.21 g/m*3 1.82 C 0 km/h
404 12-12-2018 19:00:00 2.21667 C 5.38 g/m*3 2.22 C 0 km/h
405 12-12-2018 20:00:00 1.94167 C 5.26 g/m*3 1.94 C 0 km/h
406 12-12-2018 21:00:00 2.475 C 5.45 g/m*3 2.48 C 0 km/h
407 12-12-2018 22:00:00 2.61667 C 5.5 g/m*3 2.62 C 0 km/h
408 12-12-2018 23:00:00 2.7 C 5.51 g/m*3 2.7 C 0 km/h
409 13-12-2018 00:00:00 2.775 C 5.5 g/m*3 2.78 C 0 km/h
410 13-12-2018 01:00:00 2.63333 C 5.44 g/m*3 2.63 C 0 km/h
411 13-12-2018 02:00:00 2.4 C 5.34 g/m*3 2.4 C 0.8 km/h
412 13-12-2018 03:00:00 1.55833 C 5.03 g/m*3 1.56 C 0.8 km/h
413 13-12-2018 04:00:00 0.55833 C 4.74 g/m*3 0.56 C 2.26667 km/h
414 13-12-2018 05:00:00 0.35833 C 4.72 g/m*3 0.36 C 0.4 km/h
415 13-12-2018 06:00:00 0.33333 C 4.72 g/m*3 0.33 C 0.93333 km/h
416 13-12-2018 07:00:00 0.4 C 4.71 g/m*3 0.4 C 2.26667 km/h
417 13-12-2018 08:00:00 -0.15 C 4.5 g/m*3 -0.15 C 1.74167 km/h
418 13-12-2018 09:00:00 -0.04167 C 4.49 g/m*3 -0.04 C 2.95 km/h
419 13-12-2018 10:00:00 0.71667 C 4.55 g/m*3 -1.27 C 6.175 km/h
420 13-12-2018 11:00:00 1.48333 C 4.52 g/m*3 -0.11 C 5.48333 km/h
421 13-12-2018 12:00:00 1.73333 C 4.41 g/m*3 -0.87 C 8.58333 km/h
422 13-12-2018 13:00:00 1.76667 C 4.47 g/m*3 1.77 C 3.46667 km/h
423 13-12-2018 14:00:00 2.21667 C 4.54 g/m*3 0.77 C 5.36667 km/h
424 13-12-2018 15:00:00 2.45 C 4.5 g/m*3 0.72 C 6.19167 km/h
425 13-12-2018 16:00:00 1.83333 C 4.55 g/m*3 1.83 C 0.66667 km/h
Sensor: Nr:Datum:Temp:Abs-Feuchte:Windchill:Wind:
Aussen-T/F 426 13-12-2018 17:00:00 1.36667 C 4.55 g/m*3 1.37 C 0.13333 km/h
427 13-12-2018 18:00:00 1.475 C 4.47 g/m*3 1.48 C 2.53333 km/h
428 13-12-2018 19:00:00 1.65833 C 4.41 g/m*3 1.66 C 3.49167 km/h
429 13-12-2018 20:00:00 1.54167 C 4.35 g/m*3 1.54 C 1.06667 km/h
430 13-12-2018 21:00:00 1.3 C 4.42 g/m*3 1.3 C 0.4 km/h
431 13-12-2018 22:00:00 1.15 C 4.39 g/m*3 1.15 C 0 km/h
432 13-12-2018 23:00:00 1.16667 C 4.34 g/m*3 1.17 C 0.66667 km/h
433 14-12-2018 00:00:00 1.25 C 4.29 g/m*3 1.25 C 1.34167 km/h
434 14-12-2018 01:00:00 1.14167 C 4.31 g/m*3 1.14 C 0 km/h
435 14-12-2018 02:00:00 1.15833 C 4.2 g/m*3 1.16 C 1.2 km/h
436 14-12-2018 03:00:00 1.29167 C 4.06 g/m*3 1.29 C 4.95 km/h
437 14-12-2018 04:00:00 1.33333 C 4.01 g/m*3 1.33 C 2.4 km/h
438 14-12-2018 05:00:00 1.19167 C 4.06 g/m*3 1.19 C 1.475 km/h
439 14-12-2018 06:00:00 1.2 C 3.93 g/m*3 -0.32 C 5.21667 km/h
440 14-12-2018 07:00:00 1.075 C 3.96 g/m*3 1.08 C 2.15 km/h
441 14-12-2018 08:00:00 0.775 C 4.04 g/m*3 0.78 C 0.13333 km/h
442 14-12-2018 09:00:00 0.89167 C 4.14 g/m*3 0.89 C 0.66667 km/h
443 14-12-2018 10:00:00 1.33333 C 4.12 g/m*3 1.33 C 1.86667 km/h
444 14-12-2018 11:00:00 1.55833 C 4.12 g/m*3 0.14 C 5.09167 km/h
445 14-12-2018 12:00:00 1.65833 C 4.12 g/m*3 -0.73 C 7.8 km/h
446 14-12-2018 13:00:00 1.7 C 4.09 g/m*3 -0.46 C 7.11667 km/h
447 14-12-2018 14:00:00 1.70833 C 4.09 g/m*3 1.71 C 2.94167 km/h
448 14-12-2018 15:00:00 1.61667 C 4.08 g/m*3 1.62 C 1.73333 km/h
449 14-12-2018 16:00:00 1.375 C 4.09 g/m*3 1.38 C 1.475 km/h
450 14-12-2018 17:00:00 0.98333 C 4.14 g/m*3 0.98 C 0.13333 km/h
Sensor: Nr:Datum:Temp:Abs-Feuchte:Windchill:Wind:
Aussen-T/F 451 14-12-2018 18:00:00 1.025 C 4.07 g/m*3 1.02 C 0.8 km/h
452 14-12-2018 19:00:00 0.85833 C 4.02 g/m*3 0.86 C 0.26667 km/h
453 14-12-2018 20:00:00 0.80833 C 4.05 g/m*3 0.81 C 0 km/h
454 14-12-2018 21:00:00 0.76667 C 3.94 g/m*3 0.77 C 0.4 km/h
455 14-12-2018 22:00:00 0.60833 C 3.81 g/m*3 0.61 C 0.93333 km/h
456 14-12-2018 23:00:00 0.41667 C 3.79 g/m*3 0.42 C 0.4 km/h
457 15-12-2018 00:00:00 0.16667 C 3.86 g/m*3 0.17 C 0 km/h
458 15-12-2018 01:00:00 0.1 C 3.91 g/m*3 0.1 C 0 km/h
459 15-12-2018 02:00:00 0.14167 C 3.95 g/m*3 0.14 C 0 km/h
460 15-12-2018 03:00:00 0.16667 C 3.97 g/m*3 0.17 C 0.26667 km/h
461 15-12-2018 04:00:00 0.2 C 3.98 g/m*3 0.2 C 0.13333 km/h
462 15-12-2018 05:00:00 0.225 C 4.02 g/m*3 0.23 C 0 km/h
463 15-12-2018 06:00:00 0.2 C 4.05 g/m*3 0.2 C 0 km/h
464 15-12-2018 07:00:00 0.2 C 4.07 g/m*3 0.2 C 0 km/h
465 15-12-2018 08:00:00 0.275 C 4.12 g/m*3 0.28 C 0 km/h
466 15-12-2018 09:00:00 0.425 C 4.17 g/m*3 0.43 C 0 km/h
467 15-12-2018 10:00:00 0.84167 C 4.19 g/m*3 0.84 C 0.13333 km/h
468 15-12-2018 11:00:00 1.30833 C 4.09 g/m*3 1.31 C 0.8 km/h
469 15-12-2018 12:00:00 1.68333 C 4.06 g/m*3 1.68 C 2.80833 km/h
470 15-12-2018 13:00:00 1.9 C 4.04 g/m*3 0 C 6.425 km/h
471 15-12-2018 14:00:00 1.81667 C 3.99 g/m*3 0.11 C 5.88333 km/h
472 15-12-2018 15:00:00 1.64167 C 3.96 g/m*3 1.64 C 3.60833 km/h
473 15-12-2018 16:00:00 1.35 C 3.94 g/m*3 1.35 C 4.81667 km/h
474 15-12-2018 17:00:00 1.175 C 3.92 g/m*3 -1.08 C 7.11667 km/h
475 15-12-2018 18:00:00 1.16667 C 3.93 g/m*3 -0.59 C 5.75833 km/h
Sensor: Nr:Datum:Temp:Abs-Feuchte:Windchill:Wind:
Aussen-T/F 476 15-12-2018 19:00:00 0.83333 C 3.89 g/m*3 -1.47 C 7.09167 km/h
477 15-12-2018 20:00:00 0.025 C 3.85 g/m*3 -1.6 C 5.08333 km/h
478 15-12-2018 21:00:00 -0.43333 C 3.81 g/m*3 -0.43 C 4.80833 km/h
479 15-12-2018 22:00:00 -0.58182 C 3.8 g/m*3 -0.58 C 4.22727 km/h
480 15-12-2018 23:00:00 0.11667 C 3.83 g/m*3 0.12 C 4.675 km/h
481 16-12-2018 00:00:00 0.4 C 3.83 g/m*3 -1.93 C 6.98333 km/h
482 16-12-2018 01:00:00 0.43333 C 3.81 g/m*3 -1.49 C 5.9 km/h
483 16-12-2018 02:00:00 0.39167 C 3.82 g/m*3 -1.79 C 6.575 km/h
484 16-12-2018 03:00:00 0.125 C 3.89 g/m*3 -1.94 C 6.15833 km/h
485 16-12-2018 04:00:00 -0.60833 C 4.06 g/m*3 -3.15 C 7.1 km/h
486 16-12-2018 05:00:00 -0.91667 C 4.13 g/m*3 -0.92 C 3.20833 km/h
487 16-12-2018 06:00:00 -1.00833 C 4.16 g/m*3 -1.01 C 0.13333 km/h
488 16-12-2018 07:00:00 -1.05 C 4.18 g/m*3 -1.05 C 0.26667 km/h
489 16-12-2018 08:00:00 -0.93333 C 4.22 g/m*3 -0.93 C 0.13333 km/h
490 16-12-2018 09:00:00 -0.71667 C 4.26 g/m*3 -0.72 C 0 km/h
491 16-12-2018 10:00:00 -0.35833 C 4.32 g/m*3 -0.36 C 0.26667 km/h
492 16-12-2018 11:00:00 0.05833 C 4.45 g/m*3 0.06 C 0.53333 km/h
493 16-12-2018 12:00:00 0.85 C 4.7 g/m*3 0.85 C 1.2 km/h
494 16-12-2018 13:00:00 1.35 C 4.89 g/m*3 1.35 C 1.2 km/h
495 16-12-2018 14:00:00 1.525 C 4.96 g/m*3 1.53 C 0 km/h
496 16-12-2018 15:00:00 1.64167 C 5.05 g/m*3 1.64 C 0.13333 km/h
497 16-12-2018 16:00:00 1.59167 C 5.09 g/m*3 1.59 C 1.2 km/h
498 16-12-2018 17:00:00 1.89167 C 5.24 g/m*3 1.89 C 2 km/h
499 16-12-2018 18:00:00 1.75 C 5.18 g/m*3 1.75 C 1.46667 km/h
500 16-12-2018 19:00:00 2.24167 C 5.39 g/m*3 2.24 C 1.6 km/h
Sensor: Nr:Datum:Temp:Abs-Feuchte:Windchill:Wind:
Aussen-T/F 501 16-12-2018 20:00:00 2.43333 C 5.47 g/m*3 2.43 C 0.4 km/h
502 16-12-2018 21:00:00 2.39167 C 5.48 g/m*3 2.39 C 0.53333 km/h
503 16-12-2018 22:00:00 2.575 C 5.55 g/m*3 2.58 C 0 km/h
504 16-12-2018 23:00:00 2.6 C 5.56 g/m*3 2.6 C 0 km/h
505 17-12-2018 00:00:00 2.55 C 5.54 g/m*3 2.55 C 0.13333 km/h
506 17-12-2018 01:00:00 2.3 C 5.44 g/m*3 2.3 C 0 km/h
507 17-12-2018 02:00:00 2.625 C 5.57 g/m*3 2.63 C 0 km/h
508 17-12-2018 03:00:00 2.96667 C 5.69 g/m*3 2.97 C 0 km/h
509 17-12-2018 04:00:00 3.15833 C 5.79 g/m*3 3.16 C 0 km/h
510 17-12-2018 05:00:00 2.23333 C 5.42 g/m*3 2.23 C 0.4 km/h
511 17-12-2018 06:00:00 1.83333 C 5.27 g/m*3 1.83 C 2.13333 km/h
512 17-12-2018 07:00:00 2.15 C 5.41 g/m*3 2.15 C 0 km/h
513 17-12-2018 08:00:00 2.675 C 5.64 g/m*3 2.68 C 0 km/h
514 17-12-2018 09:00:00 3.08333 C 5.8 g/m*3 3.08 C 0.26667 km/h
515 17-12-2018 10:00:00 3.60833 C 6.01 g/m*3 3.61 C 0.66667 km/h
516 17-12-2018 11:00:00 4.80833 C 6.51 g/m*3 3.23 C 6.85 km/h
517 17-12-2018 12:00:00 5.76667 C 6.89 g/m*3 5.77 C 3.21667 km/h
518 17-12-2018 13:00:00 6.33333 C 6.97 g/m*3 5.29 C 5.9 km/h
519 17-12-2018 14:00:00 6.6 C 6.93 g/m*3 4.61 C 9.81667 km/h
520 17-12-2018 15:00:00 6.575 C 6.82 g/m*3 4.66 C 9.425 km/h
521 17-12-2018 16:00:00 6.59167 C 6.82 g/m*3 5.31 C 6.83333 km/h
522 17-12-2018 17:00:00 5.60833 C 6.45 g/m*3 4.69 C 5.225 km/h
523 17-12-2018 18:00:00 5.10833 C 6.34 g/m*3 3.93 C 5.76667 km/h
524 17-12-2018 19:00:00 4.48333 C 6.13 g/m*3 3.12 C 6.03333 km/h
525 17-12-2018 20:00:00 4.39167 C 6.17 g/m*3 4.39 C 4.95 km/h
Sensor: Nr:Datum:Temp:Abs-Feuchte:Windchill:Wind:
Aussen-T/F 526 17-12-2018 21:00:00 4.28333 C 6.16 g/m*3 4.28 C 4.94167 km/h
527 17-12-2018 22:00:00 5.425 C 6.67 g/m*3 3.45 C 8.73333 km/h
528 17-12-2018 23:00:00 5.575 C 6.59 g/m*3 3.22 C 10.60833 km/h
529 18-12-2018 00:00:00 5.11667 C 6.34 g/m*3 3.85 C 6.025 km/h
530 18-12-2018 01:00:00 4.41667 C 6.14 g/m*3 4.42 C 3.88333 km/h
531 18-12-2018 02:00:00 5.075 C 6.44 g/m*3 4.04 C 5.35 km/h
532 18-12-2018 03:00:00 5.90833 C 6.67 g/m*3 5.91 C 4.53333 km/h
533 18-12-2018 04:00:00 6.15833 C 6.65 g/m*3 6.16 C 4.825 km/h
534 18-12-2018 05:00:00 6.23333 C 6.6 g/m*3 6.23 C 1.33333 km/h
535 18-12-2018 06:00:00 5.925 C 6.55 g/m*3 5.93 C 1.33333 km/h
536 18-12-2018 07:00:00 5.85 C 6.52 g/m*3 5.85 C 0.8 km/h
537 18-12-2018 08:00:00 6.16667 C 6.48 g/m*3 6.17 C 4.95 km/h
538 18-12-2018 09:00:00 6.46667 C 6.35 g/m*3 4.65 C 8.88333 km/h
539 18-12-2018 10:00:00 6 C 6.27 g/m*3 3.83 C 10.1 km/h
540 18-12-2018 11:00:00 5.33333 C 6.16 g/m*3 2.87 C 10.89167 km/h
541 18-12-2018 12:00:00 5.63333 C 6.27 g/m*3 3.73 C 8.59167 km/h
542 18-12-2018 13:00:00 6.43333 C 6.42 g/m*3 6.43 C 2.54167 km/h
543 18-12-2018 14:00:00 6.51667 C 6.48 g/m*3 6.52 C 1.06667 km/h
544 18-12-2018 15:00:00 5.75 C 6.32 g/m*3 5.75 C 0.13333 km/h
545 18-12-2018 16:00:00 4.28333 C 5.88 g/m*3 4.28 C 2 km/h
546 18-12-2018 17:00:00 3.40833 C 5.7 g/m*3 3.41 C 0.53333 km/h
547 18-12-2018 18:00:00 2.825 C 5.52 g/m*3 2.83 C 1.2 km/h
548 18-12-2018 19:00:00 2.54167 C 5.48 g/m*3 2.54 C 1.73333 km/h
549 18-12-2018 20:00:00 2.28333 C 5.39 g/m*3 2.28 C 1.60833 km/h
550 18-12-2018 21:00:00 3.70833 C 5.93 g/m*3 1.56 C 8.20833 km/h
Sensor: Nr:Datum:Temp:Abs-Feuchte:Windchill:Wind:
Aussen-T/F 551 18-12-2018 22:00:00 4.95833 C 5.94 g/m*3 2.5 C 10.49167 km/h
552 18-12-2018 23:00:00 4.98333 C 5.69 g/m*3 2.56 C 10.35 km/h
553 19-12-2018 00:00:00 4.675 C 5.61 g/m*3 2.67 C 8.325 km/h
554 19-12-2018 01:00:00 4.30833 C 5.54 g/m*3 4.31 C 4.28333 km/h
555 19-12-2018 02:00:00 4.15833 C 5.54 g/m*3 4.16 C 2.80833 km/h
556 19-12-2018 03:00:00 3.91667 C 5.57 g/m*3 3.92 C 0.8 km/h
557 19-12-2018 04:00:00 4.26667 C 5.72 g/m*3 4.27 C 3.20833 km/h
558 19-12-2018 05:00:00 4.96667 C 6.03 g/m*3 4.97 C 1.33333 km/h
559 19-12-2018 06:00:00 5.04167 C 6.21 g/m*3 5.04 C 4.80833 km/h
560 19-12-2018 07:00:00 5.98333 C 6.42 g/m*3 5.98 C 4.14167 km/h
561 19-12-2018 08:00:00 6.35833 C 6.7 g/m*3 6.36 C 2.53333 km/h
562 19-12-2018 09:00:00 6.85 C 7 g/m*3 6.85 C 1.46667 km/h
563 19-12-2018 10:00:00 7.13333 C 7.15 g/m*3 7.13 C 0 km/h
564 19-12-2018 11:00:00 7.65 C 7.38 g/m*3 7.65 C 0.26667 km/h
565 19-12-2018 12:00:00 8.80833 C 7.76 g/m*3 8.81 C 1.86667 km/h
566 19-12-2018 13:00:00 9.3 C 7.61 g/m*3 9.3 C 3.875 km/h
567 19-12-2018 14:00:00 9.24545 C 7.5 g/m*3 9.25 C 3.79091 km/h
568 19-12-2018 15:00:00 8.98333 C 7.43 g/m*3 8.98 C 4.275 km/h
569 19-12-2018 16:00:00 8.075 C 7.17 g/m*3 7.25 C 6.01667 km/h
570 19-12-2018 17:00:00 7.4 C 7.05 g/m*3 7.4 C 2.93333 km/h
571 19-12-2018 18:00:00 7.35 C 7.13 g/m*3 7.35 C 3.2 km/h
572 19-12-2018 19:00:00 6.86667 C 6.87 g/m*3 6.87 C 1.2 km/h
573 19-12-2018 20:00:00 6.33333 C 6.84 g/m*3 6.33 C 1.73333 km/h
574 19-12-2018 21:00:00 6.575 C 6.93 g/m*3 6.58 C 1.86667 km/h
575 19-12-2018 22:00:00 6.65 C 7.04 g/m*3 6.65 C 0.13333 km/h
Sensor: Nr:Datum:Temp:Abs-Feuchte:Windchill:Wind:
Aussen-T/F 576 19-12-2018 23:00:00 6.40833 C 6.98 g/m*3 6.41 C 0.53333 km/h
577 20-12-2018 00:00:00 6.35833 C 6.98 g/m*3 6.36 C 0.4 km/h
578 20-12-2018 01:00:00 6.26667 C 6.96 g/m*3 6.27 C 0 km/h
579 20-12-2018 02:00:00 6.35 C 7.04 g/m*3 6.35 C 0.26667 km/h
580 20-12-2018 03:00:00 6.6 C 7.12 g/m*3 6.6 C 0.93333 km/h
581 20-12-2018 04:00:00 6.725 C 7.08 g/m*3 6.73 C 0.8 km/h
582 20-12-2018 05:00:00 6.80833 C 7.12 g/m*3 6.81 C 0 km/h
583 20-12-2018 06:00:00 7.17273 C 7.24 g/m*3 7.17 C 1.74545 km/h
584 20-12-2018 07:00:00 7.18333 C 7.24 g/m*3 5.92 C 7.10833 km/h
585 20-12-2018 08:00:00 6.625 C 7.03 g/m*3 6.63 C 4.01667 km/h
586 20-12-2018 09:00:00 7.28333 C 7.22 g/m*3 7.28 C 4.00833 km/h
587 20-12-2018 10:00:00 7.91667 C 7.34 g/m*3 7.36 C 5.1 km/h
588 20-12-2018 11:00:00 8.1 C 7.37 g/m*3 6.06 C 11.7 km/h
589 20-12-2018 12:00:00 8.43333 C 7.42 g/m*3 6.84 C 9.56667 km/h
590 20-12-2018 13:00:00 8.95 C 7.51 g/m*3 7.15 C 11.3 km/h
591 20-12-2018 14:00:00 8.79091 C 7.4 g/m*3 7.14 C 10.26364 km/h
592 20-12-2018 15:00:00 8.475 C 7.31 g/m*3 6.9 C 9.54167 km/h
593 20-12-2018 16:00:00 8.11667 C 7.16 g/m*3 6.42 C 9.80833 km/h
594 20-12-2018 17:00:00 7.68333 C 7.07 g/m*3 6.15 C 8.6 km/h
595 20-12-2018 18:00:00 7.725 C 7.21 g/m*3 6.14 C 8.86667 km/h
596 20-12-2018 19:00:00 7.8 C 7.22 g/m*3 6.32 C 8.44167 km/h
597 20-12-2018 20:00:00 7.78333 C 7.2 g/m*3 6.39 C 8.05 km/h
598 20-12-2018 21:00:00 8.225 C 7.33 g/m*3 6.76 C 8.73333 km/h
599 20-12-2018 22:00:00 8.34167 C 7.28 g/m*3 6.42 C 11.28333 km/h
600 20-12-2018 23:00:00 8.45 C 7.28 g/m*3 6.55 C 11.28333 km/h
Sensor: Nr:Datum:Temp:Abs-Feuchte:Windchill:Wind:
Aussen-T/F 601 21-12-2018 00:00:00 8.64167 C 7.37 g/m*3 6.65 C 12.09167 km/h
602 21-12-2018 01:00:00 8.725 C 7.33 g/m*3 6.76 C 12.09167 km/h
603 21-12-2018 02:00:00 8.775 C 7.21 g/m*3 6.92 C 11.41667 km/h
604 21-12-2018 03:00:00 9.075 C 7.29 g/m*3 7.59 C 9.66667 km/h
605 21-12-2018 04:00:00 9.175 C 7.31 g/m*3 9.18 C 4.94167 km/h
606 21-12-2018 05:00:00 9.15833 C 7.42 g/m*3 9.16 C 4.80833 km/h
607 21-12-2018 06:00:00 8.54167 C 7.76 g/m*3 8.54 C 3.475 km/h
608 21-12-2018 07:00:00 7.875 C 7.68 g/m*3 7.88 C 3.20833 km/h
609 21-12-2018 08:00:00 8.14167 C 7.91 g/m*3 8.14 C 4.28333 km/h
610 21-12-2018 09:00:00 8.91667 C 8.31 g/m*3 8.92 C 4.53333 km/h
611 21-12-2018 10:00:00 9.65 C 8.62 g/m*3 7.76 C 12.875 km/h
612 21-12-2018 11:00:00 10.54167 C 8.97 g/m*3 7.61 C 25.34167 km/h
613 21-12-2018 12:00:00 11.34167 C 9.31 g/m*3 11.34 C 23.71667 km/h
614 21-12-2018 13:00:00 11.9 C 9.65 g/m*3 11.9 C 19.43333 km/h
615 21-12-2018 14:00:00 12.11667 C 9.85 g/m*3 12.12 C 17.83333 km/h
616 21-12-2018 15:00:00 12.775 C 9.87 g/m*3 12.78 C 17.96667 km/h
617 21-12-2018 16:00:00 13.2 C 9.73 g/m*3 13.2 C 21.575 km/h
618 21-12-2018 17:00:00 13.35833 C 9.64 g/m*3 13.36 C 15.83333 km/h
619 21-12-2018 18:00:00 13.35 C 9.53 g/m*3 13.35 C 12.76667 km/h
620 21-12-2018 19:00:00 13.15 C 9.31 g/m*3 13.15 C 10.63333 km/h
621 21-12-2018 20:00:00 12.88333 C 9.24 g/m*3 12.88 C 7.51667 km/h
622 21-12-2018 21:00:00 12.58333 C 9.16 g/m*3 12.58 C 9.13333 km/h
623 21-12-2018 22:00:00 12.68333 C 8.79 g/m*3 12.68 C 12.5 km/h
624 21-12-2018 23:00:00 12.28333 C 8.32 g/m*3 12.28 C 11.15833 km/h
625 22-12-2018 00:00:00 11.65833 C 8.28 g/m*3 11.66 C 8.06667 km/h
Sensor: Nr:Datum:Temp:Abs-Feuchte:Windchill:Wind:
Aussen-T/F 626 22-12-2018 01:00:00 11.16667 C 8.36 g/m*3 11.17 C 6.85 km/h
627 22-12-2018 02:00:00 11.125 C 7.98 g/m*3 11.13 C 11.15833 km/h
628 22-12-2018 03:00:00 10.775 C 7.94 g/m*3 9.66 C 9.39167 km/h
629 22-12-2018 04:00:00 11.125 C 8.06 g/m*3 11.13 C 11.96667 km/h
630 22-12-2018 05:00:00 10.9 C 8.48 g/m*3 9.51 C 11.28333 km/h
631 22-12-2018 06:00:00 10.45455 C 8.75 g/m*3 9.04 C 10.84545 km/h
632 22-12-2018 07:00:00 10.23333 C 8.75 g/m*3 9.87 C 5.5 km/h
633 22-12-2018 08:00:00 10.71667 C 8.57 g/m*3 9.45 C 10.23333 km/h
634 22-12-2018 09:00:00 10.95 C 8.33 g/m*3 9.4 C 12.5 km/h
635 22-12-2018 10:00:00 9.34167 C 8.19 g/m*3 8.25 C 7.925 km/h
636 22-12-2018 11:00:00 9.525 C 8.46 g/m*3 8.07 C 9.94167 km/h
637 22-12-2018 12:00:00 10.18333 C 8.32 g/m*3 8.54 C 11.95833 km/h
638 22-12-2018 13:00:00 11.075 C 8.29 g/m*3 11.08 C 11.83333 km/h
639 22-12-2018 14:00:00 11.28333 C 8.13 g/m*3 11.28 C 12.36667 km/h
640 22-12-2018 15:00:00 11.01667 C 7.98 g/m*3 11.02 C 8.325 km/h
641 22-12-2018 16:00:00 10.3 C 7.86 g/m*3 9.4 C 7.79167 km/h
642 22-12-2018 17:00:00 9.2 C 7.63 g/m*3 8.4 C 6.55833 km/h
643 22-12-2018 18:00:00 8.53333 C 7.54 g/m*3 8.53 C 4.26667 km/h
644 22-12-2018 19:00:00 8.05833 C 7.52 g/m*3 8.06 C 3.33333 km/h
645 22-12-2018 20:00:00 7.85 C 7.43 g/m*3 7.85 C 4 km/h
646 22-12-2018 21:00:00 7.43333 C 7.35 g/m*3 7.43 C 4 km/h
647 22-12-2018 22:00:00 7.83636 C 7.39 g/m*3 7.22 C 5.25455 km/h
648 22-12-2018 23:00:00 7.75 C 7.33 g/m*3 6.96 C 5.75 km/h
649 23-12-2018 00:00:00 7.40833 C 7.13 g/m*3 7.41 C 3.2 km/h
650 23-12-2018 01:00:00 6.5 C 6.94 g/m*3 6.5 C 1.6 km/h
Sensor: Nr:Datum:Temp:Abs-Feuchte:Windchill:Wind:
Aussen-T/F 651 23-12-2018 02:00:00 6.18333 C 6.89 g/m*3 6.18 C 2.53333 km/h
652 23-12-2018 03:00:00 6.54167 C 7.13 g/m*3 6.54 C 3.74167 km/h
653 23-12-2018 04:00:00 7.06667 C 7.34 g/m*3 7.07 C 3.20833 km/h
654 23-12-2018 05:00:00 6.84167 C 7.27 g/m*3 6.84 C 2.53333 km/h
655 23-12-2018 06:00:00 7.18333 C 7.45 g/m*3 7.18 C 2.26667 km/h
656 23-12-2018 07:00:00 7.525 C 7.56 g/m*3 6.62 C 6.025 km/h
657 23-12-2018 08:00:00 7.88333 C 7.63 g/m*3 7.28 C 5.20833 km/h
658 23-12-2018 09:00:00 8.35833 C 7.76 g/m*3 7.13 C 7.79167 km/h
659 23-12-2018 10:00:00 9.20833 C 7.87 g/m*3 7.38 C 11.83333 km/h
660 23-12-2018 11:00:00 9.70833 C 7.99 g/m*3 7.6 C 14.63333 km/h
661 23-12-2018 12:00:00 9.66667 C 8.19 g/m*3 7.69 C 13.55 km/h
662 23-12-2018 13:00:00 9.11667 C 8.25 g/m*3 9.12 C 1.74167 km/h
663 23-12-2018 14:00:00 8.8 C 8.22 g/m*3 8.8 C 0.13333 km/h
664 23-12-2018 15:00:00 8.58333 C 8.15 g/m*3 8.58 C 0.13333 km/h
665 23-12-2018 16:00:00 8.18333 C 8.02 g/m*3 8.18 C 0 km/h
666 23-12-2018 17:00:00 8.04167 C 7.96 g/m*3 8.04 C 0.66667 km/h
667 23-12-2018 18:00:00 8.525 C 8.27 g/m*3 8.53 C 4.55 km/h
668 23-12-2018 19:00:00 9.64167 C 8.9 g/m*3 7.97 C 11.425 km/h
669 23-12-2018 20:00:00 10.68333 C 9.43 g/m*3 9.02 C 12.9 km/h
670 23-12-2018 21:00:00 11.70833 C 9.96 g/m*3 11.71 C 13.025 km/h
671 23-12-2018 22:00:00 11.66667 C 9.96 g/m*3 11.67 C 6.15833 km/h
672 23-12-2018 23:00:00 11.58333 C 9.95 g/m*3 11.58 C 7.63333 km/h
673 24-12-2018 00:00:00 10.29167 C 9.07 g/m*3 8.25 C 15.16667 km/h
674 24-12-2018 01:00:00 8.34167 C 7.84 g/m*3 5.88 C 14.89167 km/h
675 24-12-2018 02:00:00 6.99167 C 7.14 g/m*3 4.57 C 12.625 km/h
Sensor: Nr:Datum:Temp:Abs-Feuchte:Windchill:Wind:
Aussen-T/F 676 24-12-2018 03:00:00 6.23333 C 6.85 g/m*3 4.06 C 10.35 km/h
677 24-12-2018 04:00:00 5.975 C 6.81 g/m*3 4.04 C 9 km/h
678 24-12-2018 05:00:00 6.13333 C 6.88 g/m*3 4.08 C 9.65833 km/h
679 24-12-2018 06:00:00 6.2 C 6.88 g/m*3 4.89 C 6.7 km/h
680 24-12-2018 07:00:00 6.10833 C 6.87 g/m*3 6.11 C 2.66667 km/h
681 24-12-2018 08:00:00 6.19167 C 6.91 g/m*3 6.19 C 2.8 km/h
682 24-12-2018 09:00:00 6.25833 C 6.93 g/m*3 6.26 C 2.14167 km/h
683 24-12-2018 10:00:00 6.48333 C 6.92 g/m*3 6.48 C 4.4 km/h
684 24-12-2018 11:00:00 6.70833 C 6.77 g/m*3 5.6 C 6.29167 km/h
685 24-12-2018 12:00:00 6.74167 C 6.44 g/m*3 4.47 C 11.425 km/h
686 24-12-2018 13:00:00 6.55 C 6.24 g/m*3 5.01 C 7.79167 km/h
687 24-12-2018 14:00:00 6.225 C 5.81 g/m*3 4.42 C 8.61667 km/h
688 24-12-2018 15:00:00 5.925 C 5.75 g/m*3 4.87 C 5.75 km/h
689 24-12-2018 16:00:00 4.425 C 5.55 g/m*3 4.43 C 1.2 km/h
690 24-12-2018 17:00:00 2.55 C 5.18 g/m*3 2.55 C 2.53333 km/h
691 24-12-2018 18:00:00 1.71667 C 5.01 g/m*3 1.72 C 2.13333 km/h
692 24-12-2018 19:00:00 1.175 C 4.89 g/m*3 1.18 C 2.13333 km/h
693 24-12-2018 20:00:00 0.35833 C 4.64 g/m*3 0.36 C 0 km/h
694 24-12-2018 21:00:00 -0.29167 C 4.46 g/m*3 -0.29 C 0 km/h
695 24-12-2018 22:00:00 -0.30833 C 4.51 g/m*3 -0.31 C 0 km/h
696 24-12-2018 23:00:00 0.35833 C 4.76 g/m*3 0.36 C 0 km/h
697 25-12-2018 00:00:00 0.09167 C 4.64 g/m*3 0.09 C 0 km/h
698 25-12-2018 01:00:00 -0.10833 C 4.6 g/m*3 -0.11 C 0 km/h
699 25-12-2018 02:00:00 0.475 C 4.81 g/m*3 0.48 C 0.4 km/h
700 25-12-2018 03:00:00 0.625 C 4.86 g/m*3 0.63 C 0.53333 km/h
Sensor: Nr:Datum:Temp:Abs-Feuchte:Windchill:Wind:
Aussen-T/F 701 25-12-2018 04:00:00 0.775 C 4.91 g/m*3 0.78 C 2.66667 km/h
702 25-12-2018 05:00:00 1.00833 C 4.99 g/m*3 -1.08 C 6.575 km/h
703 25-12-2018 06:00:00 1.13333 C 5.03 g/m*3 1.13 C 1.875 km/h
704 25-12-2018 07:00:00 1.25 C 5.04 g/m*3 1.25 C 3.225 km/h
705 25-12-2018 08:00:00 1.33333 C 5.04 g/m*3 1.33 C 2.94167 km/h
706 25-12-2018 09:00:00 1.78333 C 5.14 g/m*3 -0.5 C 7.53333 km/h
707 25-12-2018 10:00:00 2.35 C 5.24 g/m*3 2.35 C 2.54167 km/h
708 25-12-2018 11:00:00 2.775 C 5.28 g/m*3 2.78 C 4.80833 km/h
709 25-12-2018 12:00:00 2.49167 C 5.21 g/m*3 2.49 C 2.80833 km/h
710 25-12-2018 13:00:00 2.59167 C 5.29 g/m*3 2.59 C 1.86667 km/h
711 25-12-2018 14:00:00 3.925 C 5.8 g/m*3 3.93 C 1.86667 km/h
712 25-12-2018 15:00:00 4.9 C 6.06 g/m*3 4.9 C 0.4 km/h
713 25-12-2018 16:00:00 4.55 C 5.93 g/m*3 4.55 C 0.53333 km/h
714 25-12-2018 17:00:00 4.00833 C 5.76 g/m*3 4.01 C 0.8 km/h
715 25-12-2018 18:00:00 3.575 C 5.66 g/m*3 3.58 C 0.13333 km/h
716 25-12-2018 19:00:00 3.30833 C 5.54 g/m*3 3.31 C 0.66667 km/h
717 25-12-2018 20:00:00 1.95833 C 5.03 g/m*3 1.96 C 0.8 km/h
718 25-12-2018 21:00:00 0.65 C 4.7 g/m*3 0.65 C 0.13333 km/h
719 25-12-2018 22:00:00 -0.15833 C 4.49 g/m*3 -0.16 C 0.53333 km/h
720 25-12-2018 23:00:00 -0.84167 C 4.3 g/m*3 -0.84 C 0.66667 km/h
721 26-12-2018 00:00:00 -1.2 C 4.23 g/m*3 -1.2 C 3.06667 km/h
722 26-12-2018 01:00:00 -1.00833 C 4.32 g/m*3 -3.13 C 5.875 km/h
723 26-12-2018 02:00:00 -1.18333 C 4.28 g/m*3 -3.1 C 5.35 km/h
724 26-12-2018 03:00:00 -1.41667 C 4.22 g/m*3 -1.42 C 4.80833 km/h
725 26-12-2018 04:00:00 -1.6 C 4.16 g/m*3 -1.6 C 1.06667 km/h
Sensor: Nr:Datum:Temp:Abs-Feuchte:Windchill:Wind:
Aussen-T/F 726 26-12-2018 05:00:00 -1.64167 C 4.15 g/m*3 -1.64 C 4.54167 km/h
727 26-12-2018 06:00:00 -1.725 C 4.13 g/m*3 -1.73 C 2 km/h
728 26-12-2018 07:00:00 -1.94167 C 4.06 g/m*3 -1.94 C 2.13333 km/h
729 26-12-2018 08:00:00 -2.05833 C 4.03 g/m*3 -2.06 C 2.13333 km/h
730 26-12-2018 09:00:00 -1.9 C 4.08 g/m*3 -1.9 C 3.6 km/h
731 26-12-2018 10:00:00 -1.78333 C 4.11 g/m*3 -1.78 C 2 km/h
732 26-12-2018 11:00:00 -1.10833 C 4.3 g/m*3 -1.11 C 0.66667 km/h
733 26-12-2018 12:00:00 -0.4 C 4.48 g/m*3 -0.4 C 0.4 km/h
734 26-12-2018 13:00:00 0.21667 C 4.67 g/m*3 0.22 C 2.53333 km/h
735 26-12-2018 14:00:00 0.75833 C 4.83 g/m*3 0.76 C 0 km/h
736 26-12-2018 15:00:00 1.23333 C 4.97 g/m*3 1.23 C 0.26667 km/h
737 26-12-2018 16:00:00 0.55 C 4.73 g/m*3 0.55 C 0 km/h
738 26-12-2018 17:00:00 -0.1 C 4.56 g/m*3 -0.1 C 0 km/h
739 26-12-2018 18:00:00 -0.48333 C 4.45 g/m*3 -0.48 C 0 km/h
740 26-12-2018 19:00:00 -0.79167 C 4.36 g/m*3 -0.79 C 0 km/h
741 26-12-2018 20:00:00 -0.85 C 4.39 g/m*3 -0.85 C 0 km/h
742 26-12-2018 21:00:00 -1.01667 C 4.33 g/m*3 -1.02 C 0 km/h
743 26-12-2018 22:00:00 -1.225 C 4.27 g/m*3 -1.23 C 0 km/h
744 26-12-2018 23:00:00 -1.34167 C 4.24 g/m*3 -1.34 C 0 km/h
745 27-12-2018 00:00:00 -1.025 C 4.34 g/m*3 -1.02 C 0 km/h
746 27-12-2018 01:00:00 -0.775 C 4.41 g/m*3 -0.78 C 0 km/h
747 27-12-2018 02:00:00 -0.58333 C 4.51 g/m*3 -0.58 C 0 km/h
748 27-12-2018 03:00:00 -0.36667 C 4.58 g/m*3 -0.37 C 0 km/h
749 27-12-2018 04:00:00 -0.48333 C 4.51 g/m*3 -0.48 C 0 km/h
750 27-12-2018 05:00:00 -0.96667 C 4.35 g/m*3 -0.97 C 0 km/h
Sensor: Nr:Datum:Temp:Abs-Feuchte:Windchill:Wind:
Aussen-T/F 751 27-12-2018 06:00:00 -1.39167 C 4.22 g/m*3 -1.39 C 0 km/h
752 27-12-2018 07:00:00 -1.7 C 4.13 g/m*3 -1.7 C 0 km/h
753 27-12-2018 08:00:00 -2 C 4.05 g/m*3 -2 C 0 km/h
754 27-12-2018 09:00:00 -1.76667 C 4.15 g/m*3 -1.77 C 0 km/h
755 27-12-2018 10:00:00 -0.925 C 4.41 g/m*3 -0.93 C 0.26667 km/h
756 27-12-2018 11:00:00 -0.08333 C 4.67 g/m*3 -0.08 C 0 km/h
757 27-12-2018 12:00:00 0.73333 C 4.94 g/m*3 0.73 C 0.13333 km/h
758 27-12-2018 13:00:00 1.40833 C 5.16 g/m*3 1.41 C 0 km/h
759 27-12-2018 14:00:00 2.08333 C 5.36 g/m*3 2.08 C 0 km/h
760 27-12-2018 15:00:00 2.175 C 5.32 g/m*3 2.17 C 0 km/h
761 27-12-2018 16:00:00 1.525 C 5.07 g/m*3 1.53 C 0.13333 km/h
762 27-12-2018 17:00:00 1.04167 C 4.93 g/m*3 1.04 C 0 km/h
763 27-12-2018 18:00:00 1.025 C 4.91 g/m*3 1.02 C 0 km/h
764 27-12-2018 19:00:00 0.55833 C 4.75 g/m*3 0.56 C 0 km/h
765 27-12-2018 20:00:00 0.73333 C 4.84 g/m*3 0.73 C 0 km/h
766 27-12-2018 21:00:00 0.94167 C 4.91 g/m*3 0.94 C 0 km/h
767 27-12-2018 22:00:00 0.9 C 4.9 g/m*3 0.9 C 0 km/h
768 27-12-2018 23:00:00 0.89167 C 4.89 g/m*3 0.89 C 0.13333 km/h
769 28-12-2018 00:00:00 0.78333 C 4.86 g/m*3 0.78 C 0 km/h
770 28-12-2018 01:00:00 0.55833 C 4.79 g/m*3 0.56 C 0 km/h
771 28-12-2018 02:00:00 0.34167 C 4.75 g/m*3 0.34 C 0 km/h
772 28-12-2018 03:00:00 0.625 C 4.86 g/m*3 0.63 C 0.4 km/h
773 28-12-2018 04:00:00 0.49167 C 4.81 g/m*3 0.49 C 2.26667 km/h
774 28-12-2018 05:00:00 0.05833 C 4.64 g/m*3 0.06 C 0 km/h
775 28-12-2018 06:00:00 -0.26667 C 4.55 g/m*3 -0.27 C 0.4 km/h
Sensor: Nr:Datum:Temp:Abs-Feuchte:Windchill:Wind:
Aussen-T/F 776 28-12-2018 07:00:00 -0.70833 C 4.42 g/m*3 -0.71 C 0.13333 km/h
777 28-12-2018 08:00:00 -0.89167 C 4.37 g/m*3 -0.89 C 0 km/h
778 28-12-2018 09:00:00 -0.76667 C 4.41 g/m*3 -0.77 C 3.09167 km/h
779 28-12-2018 10:00:00 -0.075 C 4.65 g/m*3 -2.28 C 6.44167 km/h
780 28-12-2018 11:00:00 0.23333 C 4.73 g/m*3 -2.53 C 8.21667 km/h
781 28-12-2018 12:00:00 0.58333 C 4.84 g/m*3 -1.36 C 6.025 km/h
782 28-12-2018 13:00:00 1.01667 C 4.92 g/m*3 -0.54 C 5.225 km/h
783 28-12-2018 14:00:00 1.275 C 4.95 g/m*3 -0.24 C 5.21667 km/h
784 28-12-2018 15:00:00 0.99167 C 4.82 g/m*3 -0.5 C 5.08333 km/h
785 28-12-2018 16:00:00 0.55833 C 4.7 g/m*3 0.56 C 4.68333 km/h
786 28-12-2018 17:00:00 0.33333 C 4.66 g/m*3 0.33 C 3.74167 km/h
787 28-12-2018 18:00:00 0.21667 C 4.62 g/m*3 -1.78 C 6.01667 km/h
788 28-12-2018 19:00:00 0.13333 C 4.6 g/m*3 0.13 C 4.8 km/h
789 28-12-2018 20:00:00 -0.025 C 4.55 g/m*3 -0.03 C 1.86667 km/h
790 28-12-2018 21:00:00 -0.09167 C 4.53 g/m*3 -0.09 C 0.13333 km/h
791 28-12-2018 22:00:00 -0.08333 C 4.56 g/m*3 -0.08 C 0.4 km/h
792 28-12-2018 23:00:00 0.10833 C 4.6 g/m*3 0.11 C 4.4 km/h
793 29-12-2018 00:00:00 0.26667 C 4.64 g/m*3 0.27 C 3.6 km/h
794 29-12-2018 01:00:00 0.45833 C 4.7 g/m*3 0.46 C 0.53333 km/h
795 29-12-2018 02:00:00 0.68333 C 4.77 g/m*3 0.68 C 1.2 km/h
796 29-12-2018 03:00:00 0.88333 C 4.84 g/m*3 0.88 C 1.33333 km/h
797 29-12-2018 04:00:00 1.09167 C 4.91 g/m*3 1.09 C 0.26667 km/h
798 29-12-2018 05:00:00 1.225 C 4.95 g/m*3 1.23 C 0.93333 km/h
799 29-12-2018 06:00:00 1.35833 C 5 g/m*3 1.36 C 0.8 km/h
800 29-12-2018 07:00:00 1.45 C 5.06 g/m*3 1.45 C 0.53333 km/h
Sensor: Nr:Datum:Temp:Abs-Feuchte:Windchill:Wind:
Aussen-T/F 801 29-12-2018 08:00:00 1.63333 C 5.15 g/m*3 1.63 C 3.33333 km/h
802 29-12-2018 09:00:00 1.95 C 5.26 g/m*3 0.3 C 5.775 km/h
803 29-12-2018 10:00:00 2.46667 C 5.45 g/m*3 0.47 C 6.99167 km/h
804 29-12-2018 11:00:00 3.01667 C 5.62 g/m*3 1.25 C 6.55833 km/h
805 29-12-2018 12:00:00 3.64167 C 5.76 g/m*3 0.96 C 10.35 km/h
806 29-12-2018 13:00:00 3.875 C 5.75 g/m*3 0.42 C 14.63333 km/h
807 29-12-2018 14:00:00 3.70833 C 5.67 g/m*3 1.03 C 10.35833 km/h
808 29-12-2018 15:00:00 3.73333 C 5.68 g/m*3 2.12 C 6.425 km/h
809 29-12-2018 16:00:00 3.775 C 5.7 g/m*3 0.6 C 12.9 km/h
810 29-12-2018 17:00:00 4.09167 C 5.81 g/m*3 2.76 C 5.76667 km/h
811 29-12-2018 18:00:00 4.09167 C 5.91 g/m*3 1.67 C 9.56667 km/h
812 29-12-2018 19:00:00 3.99167 C 6.02 g/m*3 0.75 C 13.56667 km/h
813 29-12-2018 20:00:00 4.18333 C 6.05 g/m*3 0.42 C 17.16667 km/h
814 29-12-2018 21:00:00 4.36667 C 6.08 g/m*3 0.98 C 14.9 km/h
815 29-12-2018 22:00:00 4.43333 C 6.09 g/m*3 0.98 C 15.43333 km/h
816 29-12-2018 23:00:00 4.65833 C 6.2 g/m*3 2.09 C 10.75833 km/h
817 30-12-2018 00:00:00 5.3 C 6.46 g/m*3 3.14 C 9.425 km/h
818 30-12-2018 01:00:00 7.79167 C 7.06 g/m*3 5.19 C 15.03333 km/h
819 30-12-2018 02:00:00 8.275 C 7.04 g/m*3 5.51 C 17.16667 km/h
820 30-12-2018 03:00:00 8.325 C 6.86 g/m*3 5.79 C 15.43333 km/h
821 30-12-2018 04:00:00 8.20833 C 6.93 g/m*3 6.02 C 12.76667 km/h
822 30-12-2018 05:00:00 8.1 C 6.91 g/m*3 5.66 C 14.36667 km/h
823 30-12-2018 06:00:00 7.96667 C 6.92 g/m*3 6.09 C 10.61667 km/h
824 30-12-2018 07:00:00 7.81667 C 6.9 g/m*3 6.88 C 6.3 km/h
825 30-12-2018 08:00:00 7.625 C 6.99 g/m*3 6.73 C 6.03333 km/h
Sensor: Nr:Datum:Temp:Abs-Feuchte:Windchill:Wind:
Aussen-T/F 826 30-12-2018 09:00:00 7.6 C 7.01 g/m*3 7.6 C 4.275 km/h
827 30-12-2018 10:00:00 7.45833 C 7.08 g/m*3 7.46 C 4.4 km/h
828 30-12-2018 11:00:00 7.675 C 7.14 g/m*3 7.09 C 5.08333 km/h
829 30-12-2018 12:00:00 8.25833 C 7.08 g/m*3 8.26 C 4.66667 km/h
830 30-12-2018 13:00:00 8.45833 C 7.01 g/m*3 8.46 C 2.53333 km/h
831 30-12-2018 14:00:00 8.375 C 6.97 g/m*3 8.38 C 4.275 km/h
832 30-12-2018 15:00:00 8.16667 C 7.03 g/m*3 8.17 C 2.26667 km/h
833 30-12-2018 16:00:00 7.65833 C 7.01 g/m*3 7.66 C 3.74167 km/h
834 30-12-2018 17:00:00 7.13333 C 7 g/m*3 7.13 C 4.13333 km/h
835 30-12-2018 18:00:00 7.05833 C 7 g/m*3 7.06 C 4.66667 km/h
836 30-12-2018 19:00:00 7.06667 C 7.05 g/m*3 7.07 C 4.55 km/h
837 30-12-2018 20:00:00 6.675 C 7.09 g/m*3 5.15 C 7.79167 km/h
838 30-12-2018 21:00:00 6.44167 C 7.09 g/m*3 5.55 C 5.49167 km/h
839 30-12-2018 22:00:00 6.30833 C 7.05 g/m*3 5.02 C 6.68333 km/h
840 30-12-2018 23:00:00 6.33333 C 7.12 g/m*3 5.3 C 5.875 km/h
841 31-12-2018 00:00:00 6.4 C 7.15 g/m*3 4.73 C 8.2 km/h
842 31-12-2018 01:00:00 6.54167 C 7.22 g/m*3 5.29 C 6.7 km/h
843 31-12-2018 02:00:00 6.6 C 7.25 g/m*3 5.73 C 5.475 km/h
844 31-12-2018 03:00:00 6.69167 C 7.29 g/m*3 6.69 C 4.69167 km/h
845 31-12-2018 04:00:00 6.78333 C 7.33 g/m*3 6.03 C 5.225 km/h
846 31-12-2018 05:00:00 6.8 C 7.34 g/m*3 6.8 C 4.54167 km/h
847 31-12-2018 06:00:00 6.775 C 7.39 g/m*3 6.78 C 2.53333 km/h
848 31-12-2018 07:00:00 6.88333 C 7.46 g/m*3 6.88 C 3.2 km/h
849 31-12-2018 08:00:00 6.925 C 7.48 g/m*3 6.93 C 0.93333 km/h
850 31-12-2018 09:00:00 7.075 C 7.55 g/m*3 7.08 C 2.4 km/h
Sensor: Nr:Datum:Temp:Abs-Feuchte:Windchill:Wind:
Aussen-T/F 851 31-12-2018 10:00:00 7.35833 C 7.69 g/m*3 7.36 C 4.81667 km/h
852 31-12-2018 11:00:00 7.925 C 7.98 g/m*3 7.93 C 3.74167 km/h
853 31-12-2018 12:00:00 8.44167 C 8.21 g/m*3 8.44 C 3.86667 km/h
854 31-12-2018 13:00:00 8.68333 C 8.29 g/m*3 8.68 C 3.46667 km/h
855 31-12-2018 14:00:00 8.88333 C 8.4 g/m*3 8.88 C 1.33333 km/h
856 31-12-2018 15:00:00 8.95833 C 8.44 g/m*3 8.96 C 1.33333 km/h
857 31-12-2018 16:00:00 8.81667 C 8.36 g/m*3 8.82 C 0.8 km/h
858 31-12-2018 17:00:00 8.44167 C 8.17 g/m*3 8.44 C 0.26667 km/h
859 31-12-2018 18:00:00 8.31667 C 8.1 g/m*3 8.32 C 0.13333 km/h
860 31-12-2018 19:00:00 8.1 C 8.02 g/m*3 8.1 C 0.4 km/h
861 31-12-2018 20:00:00 7.85833 C 7.91 g/m*3 7.86 C 0.4 km/h
862 31-12-2018 21:00:00 7.76667 C 7.9 g/m*3 7.77 C 0.13333 km/h
863 31-12-2018 22:00:00 7.675 C 7.85 g/m*3 7.68 C 3.21667 km/h
864 31-12-2018 23:00:00 7.525 C 7.78 g/m*3 7.53 C 1.6 km/h
865 01-01-2019 00:00:00 7.4 C 7.71 g/m*3 7.4 C 0.4 km/h
866 01-01-2019 01:00:00 7.25 C 7.64 g/m*3 7.25 C 1.73333 km/h
867 01-01-2019 02:00:00 7.325 C 7.68 g/m*3 7.33 C 3.2 km/h
868 01-01-2019 03:00:00 7.34167 C 7.68 g/m*3 7.34 C 1.33333 km/h
869 01-01-2019 04:00:00 7.23333 C 7.61 g/m*3 7.23 C 1.2 km/h
870 01-01-2019 05:00:00 7.29167 C 7.53 g/m*3 7.29 C 3.06667 km/h
871 01-01-2019 06:00:00 7.3 C 7.49 g/m*3 7.3 C 4.26667 km/h
872 01-01-2019 07:00:00 7.35833 C 7.41 g/m*3 7.36 C 4.275 km/h
873 01-01-2019 08:00:00 7.33333 C 7.31 g/m*3 7.33 C 3.2 km/h
874 01-01-2019 09:00:00 7.20833 C 7.19 g/m*3 6.29 C 5.90833 km/h
875 01-01-2019 10:00:00 7.26667 C 6.98 g/m*3 5.22 C 10.75833 km/h
Sensor: Nr:Datum:Temp:Abs-Feuchte:Windchill:Wind:
Aussen-T/F 876 01-01-2019 11:00:00 7.58333 C 7.11 g/m*3 5.83 C 9.55 km/h
877 01-01-2019 12:00:00 7.55 C 7.31 g/m*3 6.18 C 7.79167 km/h
878 01-01-2019 13:00:00 7.49167 C 7.5 g/m*3 5.89 C 8.74167 km/h
879 01-01-2019 14:00:00 7.725 C 7.63 g/m*3 6.03 C 9.41667 km/h
880 01-01-2019 15:00:00 7.65833 C 7.68 g/m*3 5.67 C 10.9 km/h
881 01-01-2019 16:00:00 7.61667 C 7.73 g/m*3 5.69 C 10.49167 km/h
882 01-01-2019 17:00:00 7.55833 C 7.48 g/m*3 5.03 C 14.09167 km/h
883 01-01-2019 18:00:00 7.45833 C 6.97 g/m*3 4.65 C 15.96667 km/h
884 01-01-2019 19:00:00 7.15 C 6.78 g/m*3 4.41 C 14.9 km/h
885 01-01-2019 20:00:00 6.46667 C 6.37 g/m*3 3.53 C 15.16667 km/h
886 01-01-2019 21:00:00 5.78333 C 6.09 g/m*3 2.63 C 15.56667 km/h
887 01-01-2019 22:00:00 5.375 C 5.95 g/m*3 2.27 C 14.625 km/h
888 01-01-2019 23:00:00 4.5 C 5.82 g/m*3 1.68 C 11.825 km/h
889 02-01-2019 00:00:00 5 C 5.83 g/m*3 1.89 C 14.1 km/h
890 02-01-2019 01:00:00 5.21667 C 5.64 g/m*3 1.72 C 17.03333 km/h
891 02-01-2019 02:00:00 4.85833 C 5.34 g/m*3 2.09 C 11.95 km/h
892 02-01-2019 03:00:00 4.60833 C 5.22 g/m*3 2.11 C 10.36667 km/h
893 02-01-2019 04:00:00 4.20833 C 5.05 g/m*3 1.84 C 9.425 km/h
894 02-01-2019 05:00:00 4.24167 C 5.12 g/m*3 1.68 C 10.35 km/h
895 02-01-2019 06:00:00 4.35 C 5.27 g/m*3 2.08 C 9.13333 km/h
896 02-01-2019 07:00:00 4.75 C 5.37 g/m*3 1.56 C 14.23333 km/h
897 02-01-2019 08:00:00 4.725 C 5.39 g/m*3 2.31 C 10.08333 km/h
898 02-01-2019 09:00:00 4.69167 C 5.44 g/m*3 2.39 C 9.54167 km/h
899 02-01-2019 10:00:00 4.55833 C 5.57 g/m*3 1.78 C 11.68333 km/h
900 02-01-2019 11:00:00 4.95833 C 5.69 g/m*3 2.54 C 10.34167 km/h
Sensor: Nr:Datum:Temp:Abs-Feuchte:Windchill:Wind:
Aussen-T/F 901 02-01-2019 12:00:00 5.24167 C 5.72 g/m*3 2.46 C 12.49167 km/h
902 02-01-2019 13:00:00 4.25833 C 5.63 g/m*3 1.73 C 10.20833 km/h
903 02-01-2019 14:00:00 5.425 C 5.29 g/m*3 2.71 C 12.36667 km/h
904 02-01-2019 15:00:00 5.375 C 5.22 g/m*3 3.17 C 9.69167 km/h
905 02-01-2019 16:00:00 4.575 C 5.15 g/m*3 2.89 C 7.1 km/h
906 02-01-2019 17:00:00 3.34167 C 4.85 g/m*3 3.34 C 4.275 km/h
907 02-01-2019 18:00:00 1.75833 C 4.66 g/m*3 1.76 C 3.86667 km/h
908 02-01-2019 19:00:00 0.94167 C 4.56 g/m*3 0.94 C 2.13333 km/h
909 02-01-2019 20:00:00 0.64167 C 4.56 g/m*3 0.64 C 2.4 km/h
910 02-01-2019 21:00:00 0.6 C 4.56 g/m*3 0.6 C 3.46667 km/h
911 02-01-2019 22:00:00 0.675 C 4.55 g/m*3 0.68 C 3.46667 km/h
912 02-01-2019 23:00:00 -0.175 C 4.3 g/m*3 -0.18 C 1.33333 km/h
913 03-01-2019 00:00:00 -1.175 C 4.11 g/m*3 -1.18 C 0 km/h
914 03-01-2019 01:00:00 -1.56667 C 4.05 g/m*3 -1.57 C 0.66667 km/h
915 03-01-2019 02:00:00 -1.525 C 4.11 g/m*3 -1.53 C 1.2 km/h
916 03-01-2019 03:00:00 -0.64167 C 4.4 g/m*3 -0.64 C 3.73333 km/h
917 03-01-2019 04:00:00 -0.24167 C 4.49 g/m*3 -0.24 C 4.13333 km/h
918 03-01-2019 05:00:00 0.175 C 4.61 g/m*3 0.18 C 1.46667 km/h
919 03-01-2019 06:00:00 0.58333 C 4.69 g/m*3 0.58 C 0.53333 km/h
920 03-01-2019 07:00:00 0.80833 C 4.77 g/m*3 0.81 C 1.73333 km/h
921 03-01-2019 08:00:00 0.825 C 4.81 g/m*3 0.83 C 0.4 km/h
922 03-01-2019 09:00:00 1.025 C 4.93 g/m*3 1.02 C 1.2 km/h
923 03-01-2019 10:00:00 1.4 C 5.07 g/m*3 1.4 C 0.66667 km/h
924 03-01-2019 11:00:00 1.85833 C 5.23 g/m*3 1.86 C 0.4 km/h
925 03-01-2019 12:00:00 2.66667 C 5.56 g/m*3 2.67 C 0.93333 km/h
Sensor: Nr:Datum:Temp:Abs-Feuchte:Windchill:Wind:
Aussen-T/F 926 03-01-2019 13:00:00 3.45 C 5.78 g/m*3 3.45 C 3.46667 km/h
927 03-01-2019 14:00:00 3.95 C 5.89 g/m*3 3.95 C 2.93333 km/h
928 03-01-2019 15:00:00 4.4 C 5.93 g/m*3 2.72 C 6.975 km/h
929 03-01-2019 16:00:00 4.31667 C 5.83 g/m*3 4.32 C 2.26667 km/h
930 03-01-2019 17:00:00 4.13333 C 5.82 g/m*3 4.13 C 2.26667 km/h
931 03-01-2019 18:00:00 3.96667 C 5.77 g/m*3 3.97 C 2.26667 km/h
932 03-01-2019 19:00:00 4.075 C 5.84 g/m*3 4.08 C 1.86667 km/h
933 03-01-2019 20:00:00 4.16667 C 5.89 g/m*3 4.17 C 3.48333 km/h
934 03-01-2019 21:00:00 4.15 C 5.91 g/m*3 4.15 C 2 km/h
935 03-01-2019 22:00:00 4.15 C 5.91 g/m*3 4.15 C 1.6 km/h
936 03-01-2019 23:00:00 3.94167 C 5.86 g/m*3 3.94 C 0.53333 km/h
937 04-01-2019 00:00:00 3.29167 C 5.59 g/m*3 3.29 C 0.4 km/h
938 04-01-2019 01:00:00 2.075 C 5.2 g/m*3 2.08 C 2 km/h
939 04-01-2019 02:00:00 2.06667 C 5.29 g/m*3 2.07 C 0 km/h
940 04-01-2019 03:00:00 1.9 C 5.22 g/m*3 1.9 C 0 km/h
941 04-01-2019 04:00:00 1.94167 C 5.26 g/m*3 1.94 C 0 km/h
942 04-01-2019 05:00:00 1.85833 C 5.23 g/m*3 1.86 C 0 km/h
943 04-01-2019 06:00:00 1.80833 C 5.23 g/m*3 1.81 C 0 km/h
944 04-01-2019 07:00:00 1.68333 C 5.19 g/m*3 1.68 C 0 km/h
945 04-01-2019 08:00:00 1.5 C 5.13 g/m*3 1.5 C 0.53333 km/h
946 04-01-2019 09:00:00 1.55 C 5.17 g/m*3 1.55 C 1.46667 km/h
947 04-01-2019 10:00:00 2.09167 C 5.36 g/m*3 0.68 C 5.24167 km/h
948 04-01-2019 11:00:00 2.275 C 5.36 g/m*3 0.39 C 6.55 km/h
949 04-01-2019 12:00:00 3.05 C 5.54 g/m*3 1.38 C 6.29167 km/h
950 04-01-2019 13:00:00 3.68333 C 5.74 g/m*3 3.68 C 4.80833 km/h
Sensor: Nr:Datum:Temp:Abs-Feuchte:Windchill:Wind:
Aussen-T/F 951 04-01-2019 14:00:00 4.71667 C 5.87 g/m*3 2.65 C 8.58333 km/h
952 04-01-2019 15:00:00 4.69167 C 5.8 g/m*3 2.58 C 8.74167 km/h
953 04-01-2019 16:00:00 4.7 C 5.75 g/m*3 2.53 C 9.01667 km/h
954 04-01-2019 17:00:00 4.46667 C 5.68 g/m*3 1.59 C 12.08333 km/h
955 04-01-2019 18:00:00 4.35 C 5.71 g/m*3 2.43 C 7.78333 km/h
956 04-01-2019 19:00:00 4.35833 C 5.73 g/m*3 1.73 C 10.75 km/h
957 04-01-2019 20:00:00 4.34167 C 5.75 g/m*3 3.2 C 5.35 km/h
958 04-01-2019 21:00:00 4.325 C 5.79 g/m*3 2.59 C 7.125 km/h
959 04-01-2019 22:00:00 4.23333 C 5.89 g/m*3 2.97 C 5.625 km/h
960 04-01-2019 23:00:00 4.35 C 5.99 g/m*3 2.38 C 7.95 km/h
961 05-01-2019 00:00:00 4.45833 C 6.07 g/m*3 4.46 C 4.675 km/h
962 05-01-2019 01:00:00 4.26667 C 6.09 g/m*3 4.27 C 3.6 km/h
963 05-01-2019 02:00:00 4.225 C 6.13 g/m*3 2.97 C 5.625 km/h
964 05-01-2019 03:00:00 4.36667 C 6.25 g/m*3 4.37 C 4 km/h
965 05-01-2019 04:00:00 4.48333 C 6.3 g/m*3 3.41 C 5.21667 km/h
966 05-01-2019 05:00:00 4.475 C 6.3 g/m*3 2.97 C 6.44167 km/h
967 05-01-2019 06:00:00 4.41667 C 6.26 g/m*3 3.13 C 5.76667 km/h
968 05-01-2019 07:00:00 4.86667 C 6.47 g/m*3 4.87 C 4.28333 km/h
969 05-01-2019 08:00:00 5.96667 C 6.95 g/m*3 3.8 C 10.075 km/h
970 05-01-2019 09:00:00 6.71667 C 7.14 g/m*3 3.88 C 14.9 km/h
971 05-01-2019 10:00:00 6.79167 C 7.18 g/m*3 4.53 C 11.425 km/h
972 05-01-2019 11:00:00 6.9 C 7.2 g/m*3 4.47 C 12.54444 km/h
973 05-01-2019 12:00:00 6.95 C 7.18 g/m*3 4.28 C 14.1 km/h
974 05-01-2019 13:00:00 7.01667 C 7.21 g/m*3 4.41 C 13.83333 km/h
975 05-01-2019 14:00:00 7.06667 C 7.24 g/m*3 4.75 C 12.08333 km/h
Sensor: Nr:Datum:Temp:Abs-Feuchte:Windchill:Wind:
Aussen-T/F 976 05-01-2019 15:00:00 7 C 7.19 g/m*3 4.21 C 15.03333 km/h
977 05-01-2019 16:00:00 6.9 C 7.04 g/m*3 4.26 C 13.83333 km/h
978 05-01-2019 17:00:00 6.775 C 6.94 g/m*3 4.34 C 12.36667 km/h
979 05-01-2019 18:00:00 6.61667 C 6.91 g/m*3 4.27 C 11.68333 km/h
980 05-01-2019 19:00:00 6.58333 C 6.88 g/m*3 3.92 C 13.56667 km/h
981 05-01-2019 20:00:00 6.55 C 6.86 g/m*3 3.92 C 13.3 km/h
982 05-01-2019 21:00:00 6.4 C 6.79 g/m*3 3.67 C 13.7 km/h
983 05-01-2019 22:00:00 6.38333 C 6.8 g/m*3 3.82 C 12.63333 km/h
984 05-01-2019 23:00:00 6.3 C 6.82 g/m*3 3.72 C 12.63333 km/h
985 06-01-2019 00:00:00 6.125 C 6.82 g/m*3 3.85 C 10.76667 km/h
986 06-01-2019 01:00:00 5.9 C 6.78 g/m*3 3.48 C 11.3 km/h
987 06-01-2019 02:00:00 5.71667 C 6.67 g/m*3 3.56 C 9.80833 km/h
988 06-01-2019 03:00:00 5.7 C 6.62 g/m*3 3.71 C 9.01667 km/h
989 06-01-2019 04:00:00 5.725 C 6.63 g/m*3 3.42 C 10.5 km/h
990 06-01-2019 05:00:00 5.74167 C 6.64 g/m*3 3.16 C 11.95833 km/h
991 06-01-2019 06:00:00 5.7 C 6.62 g/m*3 3.29 C 11.025 km/h
992 06-01-2019 07:00:00 5.7 C 6.62 g/m*3 3.87 C 8.33333 km/h
993 06-01-2019 08:00:00 5.69167 C 6.6 g/m*3 3.36 C 10.61667 km/h
994 06-01-2019 09:00:00 5.7 C 6.55 g/m*3 3.75 C 8.85833 km/h
995 06-01-2019 10:00:00 5.79167 C 6.59 g/m*3 3.98 C 8.34167 km/h
996 06-01-2019 11:00:00 5.975 C 6.61 g/m*3 4.37 C 7.65 km/h
997 06-01-2019 12:00:00 6.275 C 6.67 g/m*3 4.34 C 9.275 km/h
998 06-01-2019 13:00:00 6.325 C 6.67 g/m*3 4.58 C 8.475 km/h
999 06-01-2019 14:00:00 6.23333 C 6.69 g/m*3 4.71 C 7.51667 km/h
1000 06-01-2019 15:00:00 6.125 C 6.6 g/m*3 4.84 C 6.56667 km/h
Sensor: Nr:Datum:Temp:Abs-Feuchte:Windchill:Wind:
Aussen-T/F 1001 06-01-2019 16:00:00 6.025 C 6.56 g/m*3 6.03 C 4.95 km/h
1002 06-01-2019 17:00:00 5.81667 C 6.51 g/m*3 5.82 C 1.2 km/h
1003 06-01-2019 18:00:00 5.56667 C 6.42 g/m*3 5.57 C 0.26667 km/h
1004 06-01-2019 19:00:00 5.29167 C 6.31 g/m*3 5.29 C 0 km/h
1005 06-01-2019 20:00:00 5.25 C 6.3 g/m*3 5.25 C 0.93333 km/h
1006 06-01-2019 21:00:00 5.35833 C 6.33 g/m*3 5.36 C 0.26667 km/h
1007 06-01-2019 22:00:00 5.38333 C 6.34 g/m*3 5.38 C 0.93333 km/h
1008 06-01-2019 23:00:00 5.35 C 6.33 g/m*3 5.35 C 3.2 km/h
1009 07-01-2019 00:00:00 5.38333 C 6.34 g/m*3 5.38 C 4.01667 km/h
1010 07-01-2019 01:00:00 5.25833 C 6.29 g/m*3 5.26 C 2.13333 km/h
1011 07-01-2019 02:00:00 5.2 C 6.27 g/m*3 4.13 C 5.48333 km/h
1012 07-01-2019 03:00:00 5.2 C 6.29 g/m*3 5.2 C 1.86667 km/h
1013 07-01-2019 04:00:00 5.10833 C 6.26 g/m*3 5.11 C 0.93333 km/h
1014 07-01-2019 05:00:00 4.96667 C 6.18 g/m*3 4.97 C 0 km/h
1015 07-01-2019 06:00:00 4.825 C 6.18 g/m*3 4.83 C 0.4 km/h
1016 07-01-2019 07:00:00 4.64167 C 6.08 g/m*3 4.64 C 0.4 km/h
1017 07-01-2019 08:00:00 4.38333 C 6.03 g/m*3 4.38 C 0 km/h
1018 07-01-2019 09:00:00 4.39167 C 6.07 g/m*3 4.39 C 0.8 km/h
1019 07-01-2019 10:00:00 4.55833 C 6.14 g/m*3 4.56 C 1.86667 km/h
1020 07-01-2019 11:00:00 4.99167 C 6.21 g/m*3 4.99 C 3.33333 km/h
1021 07-01-2019 12:00:00 5.975 C 6.27 g/m*3 4.33 C 7.8 km/h
1022 07-01-2019 13:00:00 6.70833 C 6.34 g/m*3 5.64 C 6.15833 km/h
1023 07-01-2019 14:00:00 6.95 C 6.38 g/m*3 6.13 C 5.48333 km/h
1024 07-01-2019 15:00:00 6.85 C 6.38 g/m*3 6.85 C 3.875 km/h
1025 07-01-2019 16:00:00 6.25833 C 6.37 g/m*3 3.93 C 11.16667 km/h
Sensor: Nr:Datum:Temp:Abs-Feuchte:Windchill:Wind:
Aussen-T/F 1026 07-01-2019 17:00:00 5.75 C 6.29 g/m*3 3.15 C 12.1 km/h
1027 07-01-2019 18:00:00 5.48333 C 6.23 g/m*3 3.11 C 10.625 km/h
1028 07-01-2019 19:00:00 5.55833 C 6.27 g/m*3 3.99 C 7.26667 km/h
1029 07-01-2019 20:00:00 5.94167 C 6.49 g/m*3 3.22 C 13.01667 km/h
1030 07-01-2019 21:00:00 5.86667 C 6.63 g/m*3 2.98 C 13.96667 km/h
1031 07-01-2019 22:00:00 5.83333 C 6.7 g/m*3 2.42 C 17.56667 km/h
1032 07-01-2019 23:00:00 6.01667 C 6.79 g/m*3 2.66 C 17.44167 km/h
1033 08-01-2019 00:00:00 6.28333 C 6.88 g/m*3 2.86 C 18.5 km/h
1034 08-01-2019 01:00:00 6.61667 C 7 g/m*3 3.64 C 15.7 km/h
1035 08-01-2019 02:00:00 6.73333 C 7.16 g/m*3 4.43 C 11.56667 km/h
1036 08-01-2019 03:00:00 6.875 C 7.3 g/m*3 4.51 C 12.08333 km/h
1037 08-01-2019 04:00:00 7 C 7.17 g/m*3 4.85 C 11.01667 km/h
1038 08-01-2019 05:00:00 7.1 C 6.83 g/m*3 4.43 C 14.36667 km/h
1039 08-01-2019 06:00:00 7.3 C 6.59 g/m*3 4.73 C 13.96667 km/h
1040 08-01-2019 07:00:00 7.2 C 6.46 g/m*3 4.8 C 12.76667 km/h
1041 08-01-2019 08:00:00 6.86667 C 6.23 g/m*3 4.24 C 13.7 km/h
1042 08-01-2019 09:00:00 6.78333 C 6.24 g/m*3 4.59 C 11.03333 km/h
1043 08-01-2019 10:00:00 6.25833 C 6.53 g/m*3 4.09 C 10.34167 km/h
1044 08-01-2019 11:00:00 6.85 C 6.51 g/m*3 3.84 C 16.36667 km/h
1045 08-01-2019 12:00:00 6.99167 C 6.57 g/m*3 3.72 C 18.76667 km/h
1046 08-01-2019 13:00:00 7.475 C 6.53 g/m*3 4.22 C 19.70833 km/h
1047 08-01-2019 14:00:00 7.45833 C 6.46 g/m*3 3.86 C 23.05833 km/h
1048 08-01-2019 15:00:00 7.075 C 6.57 g/m*3 3.78 C 19.175 km/h
1049 08-01-2019 16:00:00 5.88333 C 6.46 g/m*3 3.02 C 13.81667 km/h
1050 08-01-2019 17:00:00 6.03333 C 6.44 g/m*3 2.39 C 19.85 km/h
Sensor: Nr:Datum:Temp:Abs-Feuchte:Windchill:Wind:
Aussen-T/F 1051 08-01-2019 18:00:00 6.16667 C 6.3 g/m*3 2.54 C 19.98333 km/h
1052 08-01-2019 19:00:00 6.33333 C 6.11 g/m*3 2.8 C 19.56667 km/h
1053 08-01-2019 20:00:00 6.28333 C 5.95 g/m*3 2.67 C 20.11667 km/h
1054 08-01-2019 21:00:00 5.775 C 5.98 g/m*3 2.34 C 17.58333 km/h
1055 08-01-2019 22:00:00 6.08333 C 5.89 g/m*3 1.73 C 26.95 km/h
1056 08-01-2019 23:00:00 5.50833 C 5.87 g/m*3 1.47 C 22.11667 km/h
1057 09-01-2019 00:00:00 5.11667 C 5.94 g/m*3 1.33 C 19.03333 km/h
1058 09-01-2019 01:00:00 4.9 C 5.96 g/m*3 1.01 C 19.44167 km/h
1059 09-01-2019 02:00:00 4.33333 C 5.89 g/m*3 0.96 C 14.76667 km/h
1060 09-01-2019 03:00:00 3.75 C 5.8 g/m*3 1.03 C 10.61667 km/h
1061 09-01-2019 04:00:00 4.05833 C 5.84 g/m*3 0.61 C 14.89167 km/h
1062 09-01-2019 05:00:00 3.4 C 5.59 g/m*3 0.46 C 11.28333 km/h
1063 09-01-2019 06:00:00 3.10833 C 5.63 g/m*3 0.86 C 8.19167 km/h
1064 09-01-2019 07:00:00 3.05833 C 5.55 g/m*3 0.32 C 10.08333 km/h
1065 09-01-2019 08:00:00 2.68333 C 5.44 g/m*3 0.64 C 7.25 km/h
1066 09-01-2019 09:00:00 2.375 C 5.35 g/m*3 -0.12 C 8.59167 km/h
1067 09-01-2019 10:00:00 3.09167 C 5.59 g/m*3 0.59 C 9.125 km/h
1068 09-01-2019 11:00:00 4 C 5.58 g/m*3 -0.02 C 18.63333 km/h
1069 09-01-2019 12:00:00 4.4 C 5.48 g/m*3 0.84 C 16.1 km/h
1070 09-01-2019 13:00:00 4.64167 C 5.33 g/m*3 0.51 C 20.90833 km/h
1071 09-01-2019 14:00:00 4.775 C 5.16 g/m*3 0.99 C 18.36667 km/h
1072 09-01-2019 15:00:00 4.8 C 4.98 g/m*3 0.99 C 18.63333 km/h
1073 09-01-2019 16:00:00 4.55833 C 4.88 g/m*3 0.75 C 18.1 km/h
1074 09-01-2019 17:00:00 4.3 C 4.84 g/m*3 1.06 C 13.96667 km/h
1075 09-01-2019 18:00:00 4.275 C 4.75 g/m*3 0.85 C 15.03333 km/h
Sensor: Nr:Datum:Temp:Abs-Feuchte:Windchill:Wind:
Aussen-T/F 1076 09-01-2019 19:00:00 4.15 C 4.81 g/m*3 1.56 C 10.35833 km/h
1077 09-01-2019 20:00:00 3.93333 C 4.81 g/m*3 0.47 C 14.76667 km/h
1078 09-01-2019 21:00:00 3.64167 C 4.59 g/m*3 0.11 C 14.76667 km/h
1079 09-01-2019 22:00:00 3.26667 C 4.61 g/m*3 0.19 C 11.83333 km/h
1080 09-01-2019 23:00:00 3.1 C 4.58 g/m*3 0.1 C 11.29167 km/h
1081 10-01-2019 00:00:00 3.00833 C 4.57 g/m*3 -0.17 C 12.09167 km/h
1082 10-01-2019 01:00:00 2.775 C 4.54 g/m*3 0.54 C 7.925 km/h
1083 10-01-2019 02:00:00 2.65 C 4.53 g/m*3 -0.07 C 9.69167 km/h
1084 10-01-2019 03:00:00 2.475 C 4.56 g/m*3 0.66 C 6.44167 km/h
1085 10-01-2019 04:00:00 2.325 C 4.54 g/m*3 0.96 C 5.21667 km/h
1086 10-01-2019 05:00:00 2.15833 C 4.54 g/m*3 2.16 C 3.86667 km/h
1087 10-01-2019 06:00:00 2.04167 C 4.59 g/m*3 0.02 C 6.84167 km/h
1088 10-01-2019 07:00:00 1.75 C 4.59 g/m*3 1.75 C 3.33333 km/h
1089 10-01-2019 08:00:00 1.59167 C 4.63 g/m*3 1.59 C 3.6 km/h
1090 10-01-2019 09:00:00 1.80833 C 4.68 g/m*3 1.81 C 3.20833 km/h
1091 10-01-2019 10:00:00 1.99167 C 4.79 g/m*3 1.99 C 4.66667 km/h
1092 10-01-2019 11:00:00 2.18333 C 4.83 g/m*3 0.23 C 6.70833 km/h
1093 10-01-2019 12:00:00 2.20833 C 4.83 g/m*3 0.21 C 6.85 km/h
1094 10-01-2019 13:00:00 2.525 C 4.62 g/m*3 -0.29 C 9.96667 km/h
1095 10-01-2019 14:00:00 2.875 C 4.61 g/m*3 0.29 C 9.28333 km/h
1096 10-01-2019 15:00:00 2.875 C 4.63 g/m*3 0.19 C 9.69167 km/h
1097 10-01-2019 16:00:00 2.59167 C 4.64 g/m*3 2.59 C 4.00833 km/h
1098 10-01-2019 17:00:00 2.15833 C 4.69 g/m*3 2.16 C 1.2 km/h
1099 10-01-2019 18:00:00 1.85833 C 4.74 g/m*3 1.86 C 3.20833 km/h
1100 10-01-2019 19:00:00 1.29167 C 4.7 g/m*3 1.29 C 2.53333 km/h
Sensor: Nr:Datum:Temp:Abs-Feuchte:Windchill:Wind:
Aussen-T/F 1101 10-01-2019 20:00:00 1.03333 C 4.73 g/m*3 1.03 C 0.8 km/h
1102 10-01-2019 21:00:00 1.04167 C 4.77 g/m*3 1.04 C 0.26667 km/h
1103 10-01-2019 22:00:00 1.1 C 4.81 g/m*3 1.1 C 0 km/h
1104 10-01-2019 23:00:00 1.05 C 4.83 g/m*3 1.05 C 0 km/h
1105 11-01-2019 00:00:00 1.1 C 4.86 g/m*3 1.1 C 0.66667 km/h
1106 11-01-2019 01:00:00 1.23333 C 4.83 g/m*3 1.23 C 2.53333 km/h
1107 11-01-2019 02:00:00 1.14167 C 4.8 g/m*3 1.14 C 0.4 km/h
1108 11-01-2019 03:00:00 0.85 C 4.75 g/m*3 0.85 C 0.93333 km/h
1109 11-01-2019 04:00:00 0.85833 C 4.81 g/m*3 0.86 C 2.26667 km/h
1110 11-01-2019 05:00:00 0.9 C 4.85 g/m*3 0.9 C 2 km/h
1111 11-01-2019 06:00:00 0.93333 C 4.89 g/m*3 0.93 C 1.86667 km/h
1112 11-01-2019 07:00:00 1.21667 C 5 g/m*3 -0.3 C 5.20833 km/h
1113 11-01-2019 08:00:00 1.4 C 5.03 g/m*3 -0.04 C 5.09167 km/h
1114 11-01-2019 09:00:00 1.70833 C 5.12 g/m*3 -0.75 C 8.075 km/h
1115 11-01-2019 10:00:00 1.93333 C 5.19 g/m*3 0 C 6.55833 km/h
1116 11-01-2019 11:00:00 2.20833 C 5.3 g/m*3 -0.08 C 7.78333 km/h
1117 11-01-2019 12:00:00 2.45 C 5.41 g/m*3 0.45 C 6.98333 km/h
1118 11-01-2019 13:00:00 2.675 C 5.53 g/m*3 1.04 C 6.025 km/h
1119 11-01-2019 14:00:00 3.075 C 5.74 g/m*3 1.1 C 7.23333 km/h
1120 11-01-2019 15:00:00 3.35 C 5.84 g/m*3 1.26 C 7.79167 km/h
1121 11-01-2019 16:00:00 3.61667 C 5.95 g/m*3 1.77 C 7.1 km/h
1122 11-01-2019 17:00:00 3.81667 C 6.03 g/m*3 2.26 C 6.29167 km/h
1123 11-01-2019 18:00:00 4.18333 C 6.21 g/m*3 3.07 C 5.20833 km/h
1124 11-01-2019 19:00:00 4.575 C 6.4 g/m*3 3.57 C 5.075 km/h
1125 11-01-2019 20:00:00 5.225 C 6.69 g/m*3 5.23 C 2.8 km/h
Sensor: Nr:Datum:Temp:Abs-Feuchte:Windchill:Wind:
Aussen-T/F 1126 11-01-2019 21:00:00 6.28333 C 7.17 g/m*3 5.15 C 6.15 km/h
1127 11-01-2019 22:00:00 6.48333 C 7.23 g/m*3 5.42 C 6.025 km/h
1128 11-01-2019 23:00:00 6.66667 C 7.28 g/m*3 5.25 C 7.38333 km/h
1129 12-01-2019 00:00:00 6.60833 C 7.25 g/m*3 4.56 C 10.08333 km/h
1130 12-01-2019 01:00:00 6.56364 C 7.23 g/m*3 5.11 C 7.45455 km/h
1131 12-01-2019 07:00:00 5.1 C 6.43 g/m*3 2.84 C 9.7 km/h
1132 12-01-2019 08:00:00 4.98333 C 6.42 g/m*3 3.93 C 5.34167 km/h
1133 12-01-2019 09:00:00 4.9 C 6.41 g/m*3 3.65 C 5.88333 km/h
1134 12-01-2019 11:00:00 5.9 C 6.42 g/m*3 3.33 C 12.1 km/h
1135 12-01-2019 12:00:00 5.875 C 6.34 g/m*3 3.03 C 13.7 km/h
1136 12-01-2019 13:00:00 5.9 C 6.32 g/m*3 3.1 C 13.425 km/h
1137 12-01-2019 14:00:00 6.06667 C 6.44 g/m*3 3.31 C 13.43333 km/h
1138 12-01-2019 15:00:00 6.20833 C 6.6 g/m*3 3.35 C 14.23333 km/h
1139 12-01-2019 16:00:00 6.05833 C 6.64 g/m*3 3.11 C 14.63333 km/h
1140 12-01-2019 17:00:00 5.89167 C 6.65 g/m*3 2.86 C 14.9 km/h
1141 12-01-2019 18:00:00 5.88333 C 6.7 g/m*3 3.41 C 11.55833 km/h
1142 12-01-2019 19:00:00 5.90833 C 6.82 g/m*3 4.44 C 7.1 km/h
1143 12-01-2019 20:00:00 5.9 C 6.89 g/m*3 5.9 C 3.86667 km/h
1144 12-01-2019 21:00:00 5.94167 C 6.94 g/m*3 5.07 C 5.21667 km/h
1145 12-01-2019 22:00:00 6.18333 C 7.02 g/m*3 5.35 C 5.21667 km/h
1146 12-01-2019 23:00:00 6.2 C 7.05 g/m*3 6.2 C 2.53333 km/h
1147 13-01-2019 00:00:00 6.16667 C 7.04 g/m*3 6.17 C 0.8 km/h
1148 13-01-2019 01:00:00 6.13333 C 7.03 g/m*3 5.29 C 5.21667 km/h
1149 13-01-2019 02:00:00 6.05833 C 6.99 g/m*3 6.06 C 3.06667 km/h
1150 13-01-2019 03:00:00 6.06667 C 7 g/m*3 6.07 C 3.74167 km/h
Sensor: Nr:Datum:Temp:Abs-Feuchte:Windchill:Wind:
Aussen-T/F 1151 13-01-2019 04:00:00 6.225 C 7.07 g/m*3 6.23 C 2.93333 km/h
1152 13-01-2019 05:00:00 6.49167 C 7.23 g/m*3 4.71 C 8.73333 km/h
1153 13-01-2019 06:00:00 6.8 C 7.34 g/m*3 4.69 C 10.625 km/h
1154 13-01-2019 07:00:00 7.14167 C 7.42 g/m*3 4.52 C 14.1 km/h
1155 13-01-2019 08:00:00 7.325 C 7.49 g/m*3 5.95 C 7.64167 km/h
1156 13-01-2019 09:00:00 7.38333 C 7.63 g/m*3 5.41 C 10.5 km/h
1157 13-01-2019 10:00:00 7.675 C 7.77 g/m*3 6 C 9.28333 km/h
1158 13-01-2019 11:00:00 8.13333 C 8.01 g/m*3 6.8 C 8.06667 km/h
1159 13-01-2019 12:00:00 8.59167 C 8.27 g/m*3 7.06 C 9.425 km/h
1160 13-01-2019 13:00:00 8.85833 C 8.38 g/m*3 7.03 C 11.40833 km/h
1161 13-01-2019 14:00:00 8.89167 C 8.41 g/m*3 7.2 C 10.625 km/h
1162 13-01-2019 15:00:00 8.85 C 8.38 g/m*3 7.45 C 9.00833 km/h
1163 13-01-2019 16:00:00 8.86667 C 8.39 g/m*3 7.55 C 8.6 km/h
1164 13-01-2019 17:00:00 8.99167 C 8.41 g/m*3 7.39 C 10.21667 km/h
1165 13-01-2019 18:00:00 9.25833 C 8.34 g/m*3 7.26 C 13.03333 km/h
1166 13-01-2019 19:00:00 9.50833 C 7.96 g/m*3 7.02 C 17.43333 km/h
1167 13-01-2019 20:00:00 9.30833 C 7.68 g/m*3 6.6 C 19.04167 km/h
1168 13-01-2019 21:00:00 9.06667 C 7.51 g/m*3 6.58 C 16.5 km/h
1169 13-01-2019 22:00:00 7.19167 C 7.1 g/m*3 4.38 C 15.55 km/h
1170 13-01-2019 23:00:00 6.70833 C 7.04 g/m*3 4.23 C 12.59167 km/h
1171 14-01-2019 00:00:00 7.325 C 6.94 g/m*3 5.06 C 12.1 km/h
1172 14-01-2019 01:00:00 7.06667 C 6.82 g/m*3 5.04 C 10.475 km/h
1173 14-01-2019 02:00:00 7.425 C 6.7 g/m*3 5.03 C 13.025 km/h
1174 14-01-2019 03:00:00 6.59167 C 6.55 g/m*3 4.29 C 11.425 km/h
1175 14-01-2019 04:00:00 6.71667 C 6.61 g/m*3 3.77 C 15.7 km/h
Sensor: Nr:Datum:Temp:Abs-Feuchte:Windchill:Wind:
Aussen-T/F 1176 14-01-2019 05:00:00 7.1 C 6.65 g/m*3 4.07 C 17.03333 km/h
1177 14-01-2019 06:00:00 6.725 C 6.63 g/m*3 3.95 C 14.5 km/h
1178 14-01-2019 07:00:00 6.33333 C 6.57 g/m*3 3.55 C 13.95833 km/h
1179 14-01-2019 08:00:00 6.23333 C 6.6 g/m*3 3.83 C 11.56667 km/h
1180 14-01-2019 09:00:00 6.425 C 6.64 g/m*3 4.43 C 9.675 km/h
1181 14-01-2019 10:00:00 6.4 C 6.63 g/m*3 3.67 C 13.7 km/h
1182 14-01-2019 11:00:00 4.40833 C 6.01 g/m*3 2.12 C 9.26667 km/h
1183 14-01-2019 12:00:00 4.70833 C 6.13 g/m*3 2.44 C 9.40833 km/h
1184 14-01-2019 13:00:00 5.36667 C 6.21 g/m*3 3.16 C 9.7 km/h
1185 14-01-2019 14:00:00 4.33333 C 5.76 g/m*3 1.38 C 12.35833 km/h
1186 14-01-2019 15:00:00 4.05 C 5.76 g/m*3 2.53 C 6.29167 km/h
1187 14-01-2019 16:00:00 3.76667 C 5.66 g/m*3 0.99 C 10.875 km/h
1188 14-01-2019 17:00:00 2.725 C 5.38 g/m*3 2.73 C 3.6 km/h
1189 14-01-2019 18:00:00 2.75833 C 5.46 g/m*3 0.68 C 7.38333 km/h
1190 14-01-2019 19:00:00 2.74167 C 5.43 g/m*3 2.74 C 3.73333 km/h
1191 14-01-2019 20:00:00 2.39167 C 5.36 g/m*3 2.39 C 3.86667 km/h
1192 14-01-2019 21:00:00 3.01667 C 5.54 g/m*3 1.2 C 6.70833 km/h
1193 14-01-2019 22:00:00 3.59167 C 5.56 g/m*3 3.59 C 4 km/h
1194 14-01-2019 23:00:00 3.5 C 5.54 g/m*3 3.5 C 1.60833 km/h
1195 15-01-2019 00:00:00 3.3 C 5.52 g/m*3 3.3 C 2.13333 km/h
1196 15-01-2019 01:00:00 3.25 C 5.46 g/m*3 3.25 C 2.4 km/h
1197 15-01-2019 02:00:00 2.94167 C 5.35 g/m*3 2.94 C 2.26667 km/h
1198 15-01-2019 03:00:00 2.95 C 5.39 g/m*3 2.95 C 3.48333 km/h
1199 15-01-2019 04:00:00 2.625 C 5.33 g/m*3 2.63 C 4.00833 km/h
1200 15-01-2019 05:00:00 2.825 C 5.43 g/m*3 1.2 C 6.05 km/h
Sensor: Nr:Datum:Temp:Abs-Feuchte:Windchill:Wind:
Aussen-T/F 1201 15-01-2019 06:00:00 2.81667 C 5.43 g/m*3 0.97 C 6.7 km/h
1202 15-01-2019 07:00:00 2.89167 C 5.49 g/m*3 0.8 C 7.525 km/h
1203 15-01-2019 08:00:00 3.49167 C 5.63 g/m*3 0.87 C 9.95833 km/h
1204 15-01-2019 09:00:00 3.98333 C 5.78 g/m*3 1.11 C 11.56667 km/h
1205 15-01-2019 10:00:00 4.75 C 5.98 g/m*3 1.91 C 12.23333 km/h
1206 15-01-2019 11:00:00 5.35 C 6.17 g/m*3 2.52 C 12.9 km/h
1207 15-01-2019 12:00:00 6.04167 C 6.33 g/m*3 3.55 C 11.83333 km/h
1208 15-01-2019 13:00:00 6.65833 C 6.41 g/m*3 3.79 C 15.03333 km/h
1209 15-01-2019 14:00:00 6.79167 C 6.41 g/m*3 4.89 C 9.56667 km/h
1210 15-01-2019 15:00:00 6.68333 C 6.38 g/m*3 4.76 C 9.54167 km/h
1211 15-01-2019 16:00:00 6.475 C 6.36 g/m*3 5.17 C 6.85833 km/h
1212 15-01-2019 17:00:00 6.38333 C 6.33 g/m*3 4.62 C 8.6 km/h
1213 15-01-2019 18:00:00 6.65 C 6.31 g/m*3 4.61 C 10.08333 km/h
1214 15-01-2019 19:00:00 6.24167 C 6.38 g/m*3 4.79 C 7.24167 km/h
1215 15-01-2019 20:00:00 5.675 C 6.45 g/m*3 3.51 C 9.8 km/h
1216 15-01-2019 21:00:00 5.35833 C 6.39 g/m*3 3.16 C 9.675 km/h
1217 15-01-2019 22:00:00 5.33333 C 6.38 g/m*3 3.51 C 8.06667 km/h
1218 15-01-2019 23:00:00 5.45833 C 6.43 g/m*3 4.24 C 6.01667 km/h
1219 16-01-2019 00:00:00 5.23333 C 6.42 g/m*3 5.23 C 2.66667 km/h
1220 16-01-2019 01:00:00 5.2 C 6.52 g/m*3 5.2 C 3.73333 km/h
1221 16-01-2019 02:00:00 5.275 C 6.53 g/m*3 4.27 C 5.34167 km/h
1222 16-01-2019 03:00:00 5.44167 C 6.39 g/m*3 3.28 C 9.55 km/h
1223 16-01-2019 04:00:00 5.5 C 6.2 g/m*3 3.1 C 10.75 km/h
1224 16-01-2019 05:00:00 5.575 C 6.12 g/m*3 3.94 C 7.51667 km/h
1225 16-01-2019 06:00:00 5.66667 C 6.06 g/m*3 3.77 C 8.58333 km/h
Sensor: Nr:Datum:Temp:Abs-Feuchte:Windchill:Wind:
Aussen-T/F 1226 16-01-2019 07:00:00 5.51667 C 5.95 g/m*3 3.8 C 7.775 km/h
1227 16-01-2019 08:00:00 5.31667 C 5.79 g/m*3 3.46 C 8.18333 km/h
1228 16-01-2019 09:00:00 5.2 C 5.71 g/m*3 2.82 C 10.35833 km/h
1229 16-01-2019 10:00:00 5.2 C 5.72 g/m*3 2.94 C 9.81667 km/h
1230 16-01-2019 11:00:00 5.225 C 5.69 g/m*3 3.12 C 9.15 km/h
1231 16-01-2019 12:00:00 5.50833 C 5.73 g/m*3 3.65 C 8.325 km/h
1232 16-01-2019 13:00:00 5.9 C 5.8 g/m*3 4.11 C 8.34167 km/h
1233 16-01-2019 14:00:00 6.35833 C 5.88 g/m*3 5.49 C 5.36667 km/h
1234 16-01-2019 15:00:00 6.18333 C 5.87 g/m*3 6.18 C 2.54167 km/h
1235 16-01-2019 16:00:00 5 C 5.83 g/m*3 5 C 0 km/h
1236 16-01-2019 17:00:00 3.75 C 5.65 g/m*3 3.75 C 1.86667 km/h
1237 16-01-2019 18:00:00 3.475 C 5.59 g/m*3 3.48 C 2.15 km/h
1238 16-01-2019 19:00:00 4.29167 C 5.65 g/m*3 2.68 C 6.69167 km/h
1239 16-01-2019 20:00:00 4.88333 C 5.66 g/m*3 1.62 C 14.89167 km/h
1240 16-01-2019 21:00:00 5.55833 C 5.72 g/m*3 1.86 C 19.3 km/h
1241 16-01-2019 22:00:00 5.64167 C 5.72 g/m*3 2.29 C 16.76667 km/h
1242 16-01-2019 23:00:00 5.625 C 5.68 g/m*3 3.33 C 10.34167 km/h
1243 17-01-2019 00:00:00 5.54167 C 5.76 g/m*3 2.87 C 12.23333 km/h
1244 17-01-2019 01:00:00 5.84167 C 5.82 g/m*3 1.95 C 21.575 km/h
1245 17-01-2019 02:00:00 5.94167 C 6.04 g/m*3 2.34 C 19.30833 km/h
1246 17-01-2019 03:00:00 5.91667 C 6.26 g/m*3 2.82 C 15.43333 km/h
1247 17-01-2019 04:00:00 6.09167 C 6.47 g/m*3 2.99 C 15.7 km/h
1248 17-01-2019 05:00:00 6.025 C 6.57 g/m*3 3.26 C 13.43333 km/h
1249 17-01-2019 06:00:00 5.85833 C 6.59 g/m*3 4.17 C 7.90833 km/h
1250 17-01-2019 07:00:00 5.68333 C 6.54 g/m*3 4.46 C 6.15833 km/h
Sensor: Nr:Datum:Temp:Abs-Feuchte:Windchill:Wind:
Aussen-T/F 1251 17-01-2019 08:00:00 5.61667 C 6.51 g/m*3 4.22 C 6.7 km/h
1252 17-01-2019 09:00:00 5.7 C 6.47 g/m*3 4.08 C 7.53333 km/h
1253 17-01-2019 10:00:00 6.3 C 6.41 g/m*3 3.79 C 12.23333 km/h
1254 17-01-2019 11:00:00 6.68333 C 6.35 g/m*3 3.55 C 17.03333 km/h
1255 17-01-2019 12:00:00 7.13333 C 6.46 g/m*3 3.88 C 18.90833 km/h
1256 17-01-2019 13:00:00 7.225 C 6.42 g/m*3 3.79 C 20.78333 km/h
1257 17-01-2019 14:00:00 6.24167 C 6.28 g/m*3 2.68 C 19.575 km/h
1258 17-01-2019 15:00:00 4.88333 C 6.07 g/m*3 2.48 C 10.2 km/h
1259 17-01-2019 16:00:00 4.80833 C 5.84 g/m*3 2.03 C 11.95 km/h
1260 17-01-2019 17:00:00 2.9 C 5.44 g/m*3 1.35 C 5.9 km/h
1261 17-01-2019 18:00:00 2.71667 C 5.4 g/m*3 1.41 C 5.20833 km/h
1262 17-01-2019 19:00:00 2.36667 C 5.13 g/m*3 0.1 C 7.8 km/h
1263 17-01-2019 20:00:00 2.375 C 5.03 g/m*3 -0.53 C 10.20833 km/h
1264 17-01-2019 21:00:00 2.69167 C 5.02 g/m*3 -0.19 C 10.36667 km/h
1265 17-01-2019 22:00:00 2.7 C 5.11 g/m*3 -0.01 C 9.68333 km/h
1266 17-01-2019 23:00:00 2.91667 C 5.04 g/m*3 1.31 C 6.05 km/h
1267 18-01-2019 00:00:00 2.49167 C 5.04 g/m*3 2.49 C 1.73333 km/h
1268 18-01-2019 01:00:00 2.125 C 4.95 g/m*3 2.13 C 4.53333 km/h
1269 18-01-2019 02:00:00 2.21667 C 4.95 g/m*3 2.22 C 4.26667 km/h
1270 18-01-2019 03:00:00 1.95833 C 5.01 g/m*3 1.96 C 2.26667 km/h
1271 18-01-2019 04:00:00 1.725 C 5.07 g/m*3 1.73 C 2.8 km/h
1272 18-01-2019 05:00:00 1.95833 C 5.08 g/m*3 1.96 C 4 km/h
1273 18-01-2019 06:00:00 1.56667 C 5.02 g/m*3 1.57 C 0.93333 km/h
1274 18-01-2019 07:00:00 0.94167 C 4.85 g/m*3 0.94 C 1.2 km/h
1275 18-01-2019 08:00:00 0.275 C 4.64 g/m*3 0.28 C 2.13333 km/h
Sensor: Nr:Datum:Temp:Abs-Feuchte:Windchill:Wind:
Aussen-T/F 1276 18-01-2019 09:00:00 0.00833 C 4.6 g/m*3 0.01 C 0.53333 km/h
1277 18-01-2019 10:00:00 0.08333 C 4.64 g/m*3 0.08 C 0.4 km/h
1278 18-01-2019 11:00:00 0.91667 C 4.95 g/m*3 0.92 C 0.13333 km/h
1279 18-01-2019 12:00:00 1.58333 C 5.11 g/m*3 1.58 C 0 km/h
1280 18-01-2019 13:00:00 1.85 C 4.98 g/m*3 1.85 C 1.6 km/h
1281 18-01-2019 14:00:00 1.94167 C 4.89 g/m*3 1.94 C 0.13333 km/h
1282 18-01-2019 15:00:00 1.13333 C 4.73 g/m*3 1.13 C 3.06667 km/h
1283 18-01-2019 16:00:00 0.83333 C 4.63 g/m*3 0.83 C 3.73333 km/h
1284 18-01-2019 17:00:00 0.225 C 4.43 g/m*3 0.23 C 2.93333 km/h
1285 18-01-2019 18:00:00 -0.25 C 4.32 g/m*3 -0.25 C 0 km/h
1286 18-01-2019 19:00:00 -0.65833 C 4.26 g/m*3 -0.66 C 0 km/h
1287 18-01-2019 20:00:00 -0.85 C 4.24 g/m*3 -0.85 C 0 km/h
1288 18-01-2019 21:00:00 -1 C 4.2 g/m*3 -1 C 0.8 km/h
1289 18-01-2019 22:00:00 -1.05 C 4.19 g/m*3 -1.05 C 1.6 km/h
1290 18-01-2019 23:00:00 -1.40833 C 4.09 g/m*3 -1.41 C 0 km/h
1291 19-01-2019 00:00:00 -2.00833 C 3.92 g/m*3 -2.01 C 0 km/h
1292 19-01-2019 01:00:00 -2.58333 C 3.8 g/m*3 -2.58 C 0 km/h
1293 19-01-2019 02:00:00 -2.9 C 3.72 g/m*3 -2.9 C 0 km/h
1294 19-01-2019 03:00:00 -3.23333 C 3.66 g/m*3 -3.23 C 0 km/h
1295 19-01-2019 04:00:00 -3.575 C 3.58 g/m*3 -3.58 C 0 km/h
1296 19-01-2019 05:00:00 -3.85 C 3.51 g/m*3 -3.85 C 0 km/h
1297 19-01-2019 06:00:00 -4.05833 C 3.46 g/m*3 -4.06 C 0 km/h
1298 19-01-2019 07:00:00 -4.50833 C 3.35 g/m*3 -4.51 C 0 km/h
1299 19-01-2019 08:00:00 -4.78333 C 3.29 g/m*3 -4.78 C 0 km/h
1300 19-01-2019 09:00:00 -4.58333 C 3.33 g/m*3 -4.58 C 0 km/h
Sensor: Nr:Datum:Temp:Abs-Feuchte:Windchill:Wind:
Aussen-T/F 1301 19-01-2019 10:00:00 -3.86667 C 3.53 g/m*3 -3.87 C 0 km/h
1302 19-01-2019 11:00:00 -2.76667 C 3.83 g/m*3 -2.77 C 0.8 km/h
1303 19-01-2019 12:00:00 -2.23333 C 3.98 g/m*3 -2.23 C 1.73333 km/h
1304 19-01-2019 13:00:00 -1.35833 C 4.23 g/m*3 -1.36 C 2.26667 km/h
1305 19-01-2019 14:00:00 -0.20833 C 4.56 g/m*3 -0.21 C 1.6 km/h
1306 19-01-2019 15:00:00 0.08333 C 4.58 g/m*3 0.08 C 2 km/h
1307 19-01-2019 16:00:00 -0.08333 C 4.44 g/m*3 -0.08 C 3.6 km/h
1308 19-01-2019 17:00:00 -1.06667 C 4.02 g/m*3 -2.83 C 5.06667 km/h
1309 19-01-2019 18:00:00 -1.75 C 3.82 g/m*3 -1.75 C 3.2 km/h
1310 19-01-2019 19:00:00 -2.44167 C 3.64 g/m*3 -2.44 C 3.06667 km/h
1311 19-01-2019 20:00:00 -2.69167 C 3.61 g/m*3 -2.69 C 2 km/h
1312 19-01-2019 21:00:00 -2.85833 C 3.56 g/m*3 -2.86 C 0.4 km/h
1313 19-01-2019 22:00:00 -3.75 C 3.36 g/m*3 -3.75 C 0.13333 km/h
1314 19-01-2019 23:00:00 -4.3 C 3.28 g/m*3 -4.3 C 0 km/h
1315 20-01-2019 00:00:00 -4.73333 C 3.2 g/m*3 -4.73 C 0 km/h
1316 20-01-2019 01:00:00 -5.29167 C 3.1 g/m*3 -5.29 C 0 km/h
1317 20-01-2019 02:00:00 -5.63333 C 3.02 g/m*3 -5.63 C 0 km/h
1318 20-01-2019 03:00:00 -5.825 C 2.99 g/m*3 -5.83 C 0 km/h
1319 20-01-2019 04:00:00 -6.24167 C 2.89 g/m*3 -6.24 C 0 km/h
1320 20-01-2019 05:00:00 -6.625 C 2.82 g/m*3 -6.63 C 0 km/h
1321 20-01-2019 06:00:00 -6.8 C 2.79 g/m*3 -6.8 C 0 km/h
1322 20-01-2019 07:00:00 -7.05 C 2.74 g/m*3 -7.05 C 0 km/h
1323 20-01-2019 08:00:00 -7.33333 C 2.67 g/m*3 -7.33 C 0 km/h
1324 20-01-2019 09:00:00 -7.04167 C 2.76 g/m*3 -7.04 C 0 km/h
1325 20-01-2019 10:00:00 -6.29167 C 2.91 g/m*3 -6.29 C 0 km/h
Sensor: Nr:Datum:Temp:Abs-Feuchte:Windchill:Wind:
Aussen-T/F 1326 20-01-2019 11:00:00 -5.36667 C 3.14 g/m*3 -5.37 C 0.26667 km/h
1327 20-01-2019 12:00:00 -4.21667 C 3.4 g/m*3 -4.22 C 0.13333 km/h
1328 20-01-2019 13:00:00 -3.25833 C 3.63 g/m*3 -3.26 C 0.93333 km/h
1329 20-01-2019 14:00:00 -2.55833 C 3.78 g/m*3 -2.56 C 0 km/h
1330 20-01-2019 15:00:00 -2.04167 C 3.9 g/m*3 -2.04 C 0 km/h
1331 20-01-2019 16:00:00 -1.975 C 3.88 g/m*3 -1.98 C 0 km/h
1332 20-01-2019 17:00:00 -2.49167 C 3.7 g/m*3 -2.49 C 0 km/h
1333 20-01-2019 18:00:00 -3.31667 C 3.48 g/m*3 -3.32 C 0 km/h
1334 20-01-2019 19:00:00 -3.775 C 3.41 g/m*3 -3.78 C 0 km/h
1335 20-01-2019 20:00:00 -4.44167 C 3.25 g/m*3 -4.44 C 0 km/h
1336 20-01-2019 21:00:00 -5.175 C 3.1 g/m*3 -5.18 C 0 km/h
1337 20-01-2019 22:00:00 -5.675 C 3.01 g/m*3 -5.68 C 0 km/h
1338 20-01-2019 23:00:00 -6.16667 C 2.91 g/m*3 -6.17 C 0 km/h
1339 21-01-2019 00:00:00 -6.45833 C 2.86 g/m*3 -6.46 C 0 km/h
1340 21-01-2019 01:00:00 -6.56667 C 2.85 g/m*3 -6.57 C 0 km/h
1341 21-01-2019 02:00:00 -6.90833 C 2.77 g/m*3 -6.91 C 0 km/h
1342 21-01-2019 03:00:00 -7.35 C 2.69 g/m*3 -7.35 C 0 km/h
1343 21-01-2019 04:00:00 -7.64167 C 2.63 g/m*3 -7.64 C 0 km/h
1344 21-01-2019 05:00:00 -7.89167 C 2.57 g/m*3 -7.89 C 0 km/h
1345 21-01-2019 06:00:00 -8.09167 C 2.53 g/m*3 -8.09 C 0 km/h
1346 21-01-2019 07:00:00 -8.35833 C 2.48 g/m*3 -8.36 C 0 km/h
1347 21-01-2019 08:00:00 -8.55 C 2.44 g/m*3 -8.55 C 0 km/h
1348 21-01-2019 09:00:00 -8.225 C 2.51 g/m*3 -8.23 C 0 km/h
1349 21-01-2019 10:00:00 -7.53333 C 2.66 g/m*3 -7.53 C 0 km/h
1350 21-01-2019 11:00:00 -5.70833 C 3.07 g/m*3 -5.71 C 1.73333 km/h
Sensor: Nr:Datum:Temp:Abs-Feuchte:Windchill:Wind:
Aussen-T/F 1351 21-01-2019 12:00:00 -4.86667 C 3.26 g/m*3 -4.87 C 1.06667 km/h
1352 21-01-2019 13:00:00 -4.49167 C 3.35 g/m*3 -4.49 C 0.26667 km/h
1353 21-01-2019 14:00:00 -3.775 C 3.53 g/m*3 -3.78 C 0.66667 km/h
1354 21-01-2019 15:00:00 -3.275 C 3.66 g/m*3 -3.28 C 0 km/h
1355 21-01-2019 16:00:00 -3.26667 C 3.64 g/m*3 -3.27 C 0.4 km/h
1356 21-01-2019 17:00:00 -3.83333 C 3.48 g/m*3 -3.83 C 0.93333 km/h
1357 21-01-2019 18:00:00 -4.5 C 3.31 g/m*3 -4.5 C 0 km/h
1358 21-01-2019 19:00:00 -5.41667 C 3.09 g/m*3 -5.42 C 0 km/h
1359 21-01-2019 20:00:00 -6.05 C 2.94 g/m*3 -6.05 C 0 km/h
1360 21-01-2019 21:00:00 -6.40833 C 2.88 g/m*3 -6.41 C 0 km/h
1361 21-01-2019 22:00:00 -6.75833 C 2.81 g/m*3 -6.76 C 0 km/h
1362 21-01-2019 23:00:00 -7.10833 C 2.74 g/m*3 -7.11 C 0 km/h
1363 22-01-2019 00:00:00 -7.50833 C 2.64 g/m*3 -7.51 C 0 km/h
1364 22-01-2019 01:00:00 -7.80833 C 2.58 g/m*3 -7.81 C 0 km/h
1365 22-01-2019 02:00:00 -8.075 C 2.53 g/m*3 -8.07 C 0 km/h
1366 22-01-2019 03:00:00 -8.275 C 2.49 g/m*3 -8.28 C 0 km/h
1367 22-01-2019 04:00:00 -8.575 C 2.44 g/m*3 -8.57 C 0 km/h
1368 22-01-2019 05:00:00 -8.51667 C 2.45 g/m*3 -8.52 C 0 km/h
1369 22-01-2019 06:00:00 -8.74167 C 2.41 g/m*3 -8.74 C 0 km/h
1370 22-01-2019 07:00:00 -8.65 C 2.42 g/m*3 -8.65 C 0 km/h
1371 22-01-2019 08:00:00 -8.2 C 2.52 g/m*3 -8.2 C 0 km/h
1372 22-01-2019 09:00:00 -7.33333 C 2.7 g/m*3 -7.33 C 0 km/h
1373 22-01-2019 10:00:00 -6.31667 C 2.92 g/m*3 -6.32 C 0 km/h
1374 22-01-2019 11:00:00 -4.99167 C 3.24 g/m*3 -4.99 C 0 km/h
1375 22-01-2019 12:00:00 -3.175 C 3.69 g/m*3 -3.18 C 0.53333 km/h
Sensor: Nr:Datum:Temp:Abs-Feuchte:Windchill:Wind:
Aussen-T/F 1376 22-01-2019 13:00:00 -1.45833 C 4.02 g/m*3 -1.46 C 3.73333 km/h
1377 22-01-2019 14:00:00 -0.89167 C 4.03 g/m*3 -0.89 C 4.53333 km/h
1378 22-01-2019 15:00:00 -0.99167 C 3.96 g/m*3 -0.99 C 3.6 km/h
1379 22-01-2019 16:00:00 -1.225 C 3.88 g/m*3 -1.23 C 2.93333 km/h
1380 22-01-2019 17:00:00 -2.225 C 3.66 g/m*3 -2.23 C 0.4 km/h
1381 22-01-2019 18:00:00 -2.86667 C 3.6 g/m*3 -2.87 C 0 km/h
1382 22-01-2019 19:00:00 -3.10833 C 3.55 g/m*3 -3.11 C 0.4 km/h
1383 22-01-2019 20:00:00 -3.125 C 3.59 g/m*3 -3.13 C 0.4 km/h
1384 22-01-2019 21:00:00 -2.69167 C 3.72 g/m*3 -2.69 C 0 km/h
1385 22-01-2019 22:00:00 -2.375 C 3.8 g/m*3 -2.38 C 0.13333 km/h
1386 22-01-2019 23:00:00 -2.075 C 3.85 g/m*3 -2.08 C 2.15 km/h
1387 23-01-2019 00:00:00 -1.65833 C 3.84 g/m*3 -1.66 C 4.55 km/h
1388 23-01-2019 01:00:00 -1.63333 C 3.88 g/m*3 -1.63 C 0 km/h
1389 23-01-2019 02:00:00 -1.7 C 3.92 g/m*3 -1.7 C 0 km/h
1390 23-01-2019 03:00:00 -1.775 C 3.95 g/m*3 -1.78 C 0 km/h
1391 23-01-2019 04:00:00 -1.81667 C 3.97 g/m*3 -1.82 C 0 km/h
1392 23-01-2019 05:00:00 -2.025 C 3.92 g/m*3 -2.03 C 0.13333 km/h
1393 23-01-2019 06:00:00 -2.18333 C 3.91 g/m*3 -2.18 C 0.13333 km/h
1394 23-01-2019 07:00:00 -2.3 C 3.88 g/m*3 -2.3 C 0 km/h
1395 23-01-2019 08:00:00 -2.4 C 3.85 g/m*3 -2.4 C 0 km/h
1396 23-01-2019 09:00:00 -2.275 C 3.91 g/m*3 -2.28 C 0.4 km/h
1397 23-01-2019 10:00:00 -1.75833 C 4.03 g/m*3 -1.76 C 3.6 km/h
1398 23-01-2019 11:00:00 -1.25 C 4.09 g/m*3 -3.42 C 5.9 km/h
1399 23-01-2019 12:00:00 -0.75833 C 4.02 g/m*3 -0.76 C 3.875 km/h
1400 23-01-2019 13:00:00 -0.7 C 3.92 g/m*3 -0.7 C 4.69167 km/h
Sensor: Nr:Datum:Temp:Abs-Feuchte:Windchill:Wind:
Aussen-T/F 1401 23-01-2019 14:00:00 -0.71667 C 3.85 g/m*3 -0.72 C 4.425 km/h
1402 23-01-2019 15:00:00 -0.8 C 3.8 g/m*3 -0.8 C 1.33333 km/h
1403 23-01-2019 16:00:00 -0.83333 C 3.83 g/m*3 -0.83 C 1.86667 km/h
1404 23-01-2019 17:00:00 -1.13333 C 3.82 g/m*3 -1.13 C 0.93333 km/h
1405 23-01-2019 18:00:00 -1.375 C 3.83 g/m*3 -1.38 C 0.4 km/h
1406 23-01-2019 19:00:00 -1.49167 C 3.77 g/m*3 -1.49 C 1.60833 km/h
1407 23-01-2019 20:00:00 -1.7 C 3.78 g/m*3 -1.7 C 0.13333 km/h
1408 23-01-2019 21:00:00 -1.81667 C 3.77 g/m*3 -1.82 C 0 km/h
1409 23-01-2019 22:00:00 -1.875 C 3.76 g/m*3 -1.88 C 0 km/h
1410 23-01-2019 23:00:00 -1.88333 C 3.78 g/m*3 -1.88 C 0 km/h
1411 24-01-2019 00:00:00 -1.83333 C 3.75 g/m*3 -1.83 C 1.46667 km/h
1412 24-01-2019 01:00:00 -1.64167 C 3.6 g/m*3 -3.62 C 5.35 km/h
1413 24-01-2019 02:00:00 -1.65833 C 3.55 g/m*3 -1.66 C 4.81667 km/h
1414 24-01-2019 03:00:00 -1.725 C 3.55 g/m*3 -1.73 C 4.13333 km/h
1415 24-01-2019 04:00:00 -1.83333 C 3.53 g/m*3 -1.83 C 3.46667 km/h
1416 24-01-2019 05:00:00 -1.9 C 3.51 g/m*3 -1.9 C 2.93333 km/h
1417 24-01-2019 06:00:00 -2.01667 C 3.51 g/m*3 -2.02 C 3.2 km/h
1418 24-01-2019 07:00:00 -2.1 C 3.48 g/m*3 -2.1 C 3.46667 km/h
1419 24-01-2019 08:00:00 -2.16667 C 3.49 g/m*3 -2.17 C 2.26667 km/h
1420 24-01-2019 09:00:00 -2.14167 C 3.48 g/m*3 -2.14 C 0.53333 km/h
1421 24-01-2019 10:00:00 -1.90833 C 3.55 g/m*3 -1.91 C 3.6 km/h
1422 24-01-2019 11:00:00 -2.05833 C 3.71 g/m*3 -2.06 C 1.33333 km/h
1423 24-01-2019 12:00:00 -1.86667 C 3.77 g/m*3 -1.87 C 1.2 km/h
1424 24-01-2019 13:00:00 -1.34167 C 3.76 g/m*3 -1.34 C 4.15833 km/h
1425 24-01-2019 14:00:00 -1.21667 C 3.67 g/m*3 -1.22 C 4.01667 km/h
Sensor: Nr:Datum:Temp:Abs-Feuchte:Windchill:Wind:
Aussen-T/F 1426 24-01-2019 15:00:00 -1.325 C 3.53 g/m*3 -1.33 C 3.6 km/h
1427 24-01-2019 16:00:00 -1.475 C 3.52 g/m*3 -1.48 C 2.4 km/h
1428 24-01-2019 17:00:00 -1.75833 C 3.49 g/m*3 -1.76 C 3.46667 km/h
1429 24-01-2019 18:00:00 -1.91667 C 3.44 g/m*3 -1.92 C 1.86667 km/h
1430 24-01-2019 19:00:00 -2.08333 C 3.47 g/m*3 -2.08 C 0 km/h
1431 24-01-2019 20:00:00 -2.48333 C 3.44 g/m*3 -2.48 C 0.26667 km/h
1432 24-01-2019 21:00:00 -2.63333 C 3.48 g/m*3 -2.63 C 0 km/h
1433 24-01-2019 22:00:00 -2.53333 C 3.51 g/m*3 -2.53 C 0 km/h
1434 24-01-2019 23:00:00 -2.4 C 3.57 g/m*3 -2.4 C 0 km/h
1435 25-01-2019 00:00:00 -2.375 C 3.55 g/m*3 -2.38 C 0.13333 km/h
1436 25-01-2019 01:00:00 -2.13333 C 3.59 g/m*3 -2.13 C 2 km/h
1437 25-01-2019 02:00:00 -1.80833 C 3.7 g/m*3 -1.81 C 2.4 km/h
1438 25-01-2019 03:00:00 -1.7 C 3.77 g/m*3 -1.7 C 0.8 km/h
1439 25-01-2019 04:00:00 -1.56667 C 3.84 g/m*3 -1.57 C 1.46667 km/h
1440 25-01-2019 05:00:00 -1.4 C 3.92 g/m*3 -1.4 C 1.86667 km/h
1441 25-01-2019 06:00:00 -1.3 C 3.98 g/m*3 -1.3 C 0.8 km/h
1442 25-01-2019 07:00:00 -1.24167 C 4.01 g/m*3 -1.24 C 0.26667 km/h
1443 25-01-2019 08:00:00 -1.1 C 4.09 g/m*3 -1.1 C 0.66667 km/h
1444 25-01-2019 09:00:00 -0.75 C 4.19 g/m*3 -0.75 C 1.33333 km/h
1445 25-01-2019 10:00:00 -0.2 C 4.35 g/m*3 -2.72 C 7.24167 km/h
1446 25-01-2019 11:00:00 0.63333 C 4.56 g/m*3 -1.89 C 7.675 km/h
1447 25-01-2019 12:00:00 1.63333 C 4.69 g/m*3 -0.8 C 7.94167 km/h
1448 25-01-2019 13:00:00 2.45833 C 4.66 g/m*3 -1 C 12.89167 km/h
1449 25-01-2019 14:00:00 2.24167 C 4.58 g/m*3 -1.02 C 11.7 km/h
1450 25-01-2019 15:00:00 1.96667 C 4.58 g/m*3 -1.76 C 13.7 km/h
Sensor: Nr:Datum:Temp:Abs-Feuchte:Windchill:Wind:
Aussen-T/F 1451 25-01-2019 16:00:00 1.725 C 4.64 g/m*3 -1.9 C 12.9 km/h
1452 25-01-2019 17:00:00 1.7 C 4.73 g/m*3 -1.76 C 12.08333 km/h
1453 25-01-2019 18:00:00 1.76667 C 4.76 g/m*3 -1.47 C 11.14167 km/h
1454 25-01-2019 19:00:00 1.51667 C 4.83 g/m*3 -1.9 C 11.69167 km/h
1455 25-01-2019 20:00:00 1.5 C 4.9 g/m*3 -2.09 C 12.5 km/h
1456 25-01-2019 21:00:00 1.66667 C 4.94 g/m*3 -2.66 C 16.76667 km/h
1457 25-01-2019 22:00:00 1.78333 C 5.01 g/m*3 -2.38 C 15.96667 km/h
1458 25-01-2019 23:00:00 1.8 C 5.12 g/m*3 -2.16 C 14.76667 km/h
1459 26-01-2019 00:00:00 1.85 C 5.18 g/m*3 -2.7 C 18.50833 km/h
1460 26-01-2019 01:00:00 2.04167 C 5.28 g/m*3 -2.11 C 16.23333 km/h
1461 26-01-2019 02:00:00 2.325 C 5.34 g/m*3 -2 C 17.83333 km/h
1462 26-01-2019 03:00:00 2.625 C 5.42 g/m*3 -1.53 C 17.16667 km/h
1463 26-01-2019 04:00:00 2.975 C 5.51 g/m*3 -1.13 C 17.43333 km/h
1464 26-01-2019 05:00:00 3.35833 C 5.6 g/m*3 -0.43 C 15.96667 km/h
1465 26-01-2019 06:00:00 3.24167 C 5.59 g/m*3 -0.33 C 14.5 km/h
1466 26-01-2019 07:00:00 3.25833 C 5.66 g/m*3 -0.27 C 14.23333 km/h
1467 26-01-2019 08:00:00 3.75833 C 5.88 g/m*3 0.02 C 16.23333 km/h
1468 26-01-2019 09:00:00 4.325 C 6.04 g/m*3 0.41 C 18.50833 km/h
1469 26-01-2019 10:00:00 4.83333 C 6.18 g/m*3 1.67 C 14.23333 km/h
1470 26-01-2019 11:00:00 5.16667 C 6.32 g/m*3 1.87 C 15.56667 km/h
1471 26-01-2019 12:00:00 5.80833 C 6.5 g/m*3 2.7 C 15.3 km/h
1472 26-01-2019 13:00:00 5.95 C 6.51 g/m*3 2.96 C 14.76667 km/h
1473 26-01-2019 14:00:00 5.95833 C 6.56 g/m*3 3.4 C 12.09167 km/h
1474 26-01-2019 15:00:00 6.21667 C 6.57 g/m*3 3.99 C 10.625 km/h
1475 26-01-2019 16:00:00 5.95833 C 6.51 g/m*3 4.61 C 6.7 km/h
Sensor: Nr:Datum:Temp:Abs-Feuchte:Windchill:Wind:
Aussen-T/F 1476 26-01-2019 17:00:00 5.56667 C 6.34 g/m*3 5.57 C 4.15 km/h
1477 26-01-2019 18:00:00 4.89167 C 6.23 g/m*3 4.89 C 1.46667 km/h
1478 26-01-2019 19:00:00 5.00833 C 6.37 g/m*3 5.01 C 1.2 km/h
1479 26-01-2019 20:00:00 5.31667 C 6.53 g/m*3 5.32 C 4.95833 km/h
1480 26-01-2019 21:00:00 5.63333 C 6.58 g/m*3 5.63 C 4.825 km/h
1481 26-01-2019 22:00:00 5.975 C 6.61 g/m*3 5.98 C 2.675 km/h
1482 26-01-2019 23:00:00 5.53333 C 6.54 g/m*3 5.53 C 2 km/h
1483 27-01-2019 00:00:00 5.8 C 6.64 g/m*3 4.68 C 5.9 km/h
1484 27-01-2019 01:00:00 5.7 C 6.62 g/m*3 5.7 C 3.88333 km/h
1485 27-01-2019 02:00:00 5.975 C 6.68 g/m*3 4.88 C 5.88333 km/h
1486 27-01-2019 03:00:00 6.41667 C 6.76 g/m*3 5.43 C 5.75833 km/h
1487 27-01-2019 04:00:00 6.18333 C 6.7 g/m*3 6.18 C 4.425 km/h
1488 27-01-2019 05:00:00 5.9 C 6.6 g/m*3 5.02 C 5.21667 km/h
1489 27-01-2019 06:00:00 6.13333 C 6.62 g/m*3 4.81 C 6.70833 km/h
1490 27-01-2019 07:00:00 6.51667 C 6.82 g/m*3 6.52 C 4.95 km/h
1491 27-01-2019 08:00:00 6.5 C 6.81 g/m*3 5.44 C 6.03333 km/h
1492 27-01-2019 09:00:00 5.99167 C 6.75 g/m*3 5.03 C 5.48333 km/h
1493 27-01-2019 10:00:00 5.74167 C 6.76 g/m*3 5.74 C 4.28333 km/h
1494 27-01-2019 11:00:00 7.025 C 7.12 g/m*3 5.03 C 10.21667 km/h
1495 27-01-2019 12:00:00 7.69167 C 7.08 g/m*3 6.19 C 8.46667 km/h
1496 27-01-2019 13:00:00 7.75833 C 7.05 g/m*3 5.88 C 10.36667 km/h
1497 27-01-2019 14:00:00 8.175 C 7.09 g/m*3 6.49 C 9.80833 km/h
1498 27-01-2019 15:00:00 7.73333 C 7.13 g/m*3 7.11 C 5.225 km/h
1499 27-01-2019 16:00:00 7.06667 C 6.93 g/m*3 5.22 C 9.54167 km/h
1500 27-01-2019 17:00:00 6.6 C 6.62 g/m*3 3.74 C 14.89167 km/h
Sensor: Nr:Datum:Temp:Abs-Feuchte:Windchill:Wind:
Aussen-T/F 1501 27-01-2019 18:00:00 5.5 C 6.29 g/m*3 3.07 C 10.89167 km/h
1502 27-01-2019 19:00:00 4.53333 C 5.96 g/m*3 3.04 C 6.43333 km/h
1503 27-01-2019 20:00:00 3.89167 C 5.62 g/m*3 1.74 C 8.33333 km/h
1504 27-01-2019 21:00:00 3.45833 C 5.45 g/m*3 3.46 C 4.7 km/h
1505 27-01-2019 22:00:00 3.25833 C 5.43 g/m*3 1.36 C 7.09167 km/h
1506 27-01-2019 23:00:00 3.15 C 5.31 g/m*3 0.79 C 8.60833 km/h
1507 28-01-2019 00:00:00 3.06667 C 5.36 g/m*3 -0.05 C 11.83333 km/h
1508 28-01-2019 01:00:00 3.40833 C 5.4 g/m*3 0.26 C 12.35833 km/h
1509 28-01-2019 02:00:00 3.21667 C 5.39 g/m*3 0.57 C 9.80833 km/h
1510 28-01-2019 03:00:00 3.24167 C 5.43 g/m*3 -0.05 C 12.9 km/h
1511 28-01-2019 04:00:00 3.23333 C 5.47 g/m*3 0.04 C 12.36667 km/h
1512 28-01-2019 05:00:00 3.26667 C 5.42 g/m*3 -0.54 C 15.96667 km/h
1513 28-01-2019 06:00:00 3.16667 C 5.4 g/m*3 -1.14 C 19.16667 km/h
1514 28-01-2019 07:00:00 2.71667 C 5.41 g/m*3 -1.41 C 17.175 km/h
1515 28-01-2019 08:00:00 2.5 C 5.38 g/m*3 -1.49 C 15.96667 km/h
1516 28-01-2019 09:00:00 2.24167 C 5.33 g/m*3 -0.99 C 11.56667 km/h
1517 28-01-2019 10:00:00 2.40833 C 5.43 g/m*3 -1.17 C 13.43333 km/h
1518 28-01-2019 11:00:00 2.925 C 5.62 g/m*3 -0.56 C 13.56667 km/h
1519 28-01-2019 12:00:00 3.3 C 5.74 g/m*3 0.26 C 11.7 km/h
1520 28-01-2019 13:00:00 3.55 C 5.82 g/m*3 0.73 C 10.88333 km/h
1521 28-01-2019 14:00:00 4.03333 C 5.87 g/m*3 0.99 C 12.5 km/h
1522 28-01-2019 15:00:00 4.01667 C 5.77 g/m*3 0.66 C 14.23333 km/h
1523 28-01-2019 16:00:00 3.44167 C 5.61 g/m*3 0.03 C 13.81667 km/h
1524 28-01-2019 17:00:00 2.975 C 5.5 g/m*3 0.77 C 7.93333 km/h
1525 28-01-2019 18:00:00 2.80833 C 5.44 g/m*3 1.19 C 6.05 km/h
Sensor: Nr:Datum:Temp:Abs-Feuchte:Windchill:Wind:
Aussen-T/F 1526 28-01-2019 19:00:00 3 C 5.28 g/m*3 0.41 C 9.4 km/h
1527 28-01-2019 20:00:00 3.46667 C 5.27 g/m*3 0.66 C 10.75 km/h
1528 28-01-2019 21:00:00 3.35833 C 5.28 g/m*3 1.35 C 7.50833 km/h
1529 28-01-2019 22:00:00 3.48333 C 5.29 g/m*3 0.95 C 9.54167 km/h
1530 28-01-2019 23:00:00 3.28333 C 5.28 g/m*3 1.56 C 6.55833 km/h
1531 29-01-2019 00:00:00 2.75 C 5.19 g/m*3 1.39 C 5.34167 km/h
1532 29-01-2019 01:00:00 2.38333 C 5.18 g/m*3 1.03 C 5.20833 km/h
1533 29-01-2019 02:00:00 1.91667 C 5.12 g/m*3 -0.08 C 6.70833 km/h
1534 29-01-2019 03:00:00 1.59167 C 5.07 g/m*3 1.59 C 4.54167 km/h
1535 29-01-2019 04:00:00 1.04167 C 4.89 g/m*3 -1.09 C 6.71667 km/h
1536 29-01-2019 05:00:00 0.69167 C 4.79 g/m*3 0.69 C 4.55 km/h
1537 29-01-2019 06:00:00 0.95 C 4.91 g/m*3 0.95 C 4.68333 km/h
1538 29-01-2019 07:00:00 1.15 C 4.93 g/m*3 1.15 C 4.275 km/h
1539 29-01-2019 08:00:00 1.18333 C 4.94 g/m*3 1.18 C 3.6 km/h
1540 29-01-2019 09:00:00 1.00833 C 4.88 g/m*3 1.01 C 4.53333 km/h
1541 29-01-2019 10:00:00 2.06667 C 5.08 g/m*3 0.55 C 5.48333 km/h
1542 29-01-2019 11:00:00 2.91667 C 5.19 g/m*3 1.47 C 5.61667 km/h
1543 29-01-2019 12:00:00 3.63333 C 5.29 g/m*3 3.63 C 4.95833 km/h
1544 29-01-2019 13:00:00 3.96667 C 5.32 g/m*3 2.58 C 5.875 km/h
1545 29-01-2019 14:00:00 3.85 C 5.21 g/m*3 3.85 C 4.275 km/h
1546 29-01-2019 15:00:00 3.8 C 5.11 g/m*3 3.8 C 2.4 km/h
1547 29-01-2019 16:00:00 3.76667 C 5.11 g/m*3 3.77 C 0.13333 km/h
1548 29-01-2019 17:00:00 2.78333 C 4.96 g/m*3 2.78 C 0.13333 km/h
1549 29-01-2019 18:00:00 1.3 C 4.62 g/m*3 1.3 C 0.4 km/h
1550 29-01-2019 19:00:00 0.25833 C 4.43 g/m*3 0.26 C 0 km/h
Sensor: Nr:Datum:Temp:Abs-Feuchte:Windchill:Wind:
Aussen-T/F 1551 29-01-2019 20:00:00 -0.25833 C 4.33 g/m*3 -0.26 C 0 km/h
1552 29-01-2019 21:00:00 -0.3 C 4.32 g/m*3 -0.3 C 0 km/h
1553 29-01-2019 22:00:00 -0.375 C 4.31 g/m*3 -0.38 C 0 km/h
1554 29-01-2019 23:00:00 -0.55 C 4.31 g/m*3 -0.55 C 0 km/h
1555 30-01-2019 00:00:00 -0.55 C 4.34 g/m*3 -0.55 C 1.73333 km/h
1556 30-01-2019 01:00:00 -0.675 C 4.3 g/m*3 -0.68 C 0.8 km/h
1557 30-01-2019 02:00:00 -0.68333 C 4.3 g/m*3 -0.68 C 0.8 km/h
1558 30-01-2019 03:00:00 -0.8 C 4.24 g/m*3 -0.8 C 0.4 km/h
1559 30-01-2019 04:00:00 -0.875 C 4.23 g/m*3 -0.88 C 1.06667 km/h
1560 30-01-2019 05:00:00 -0.51667 C 4.3 g/m*3 -0.52 C 0.4 km/h
1561 30-01-2019 06:00:00 -0.10833 C 4.36 g/m*3 -0.11 C 0.26667 km/h
1562 30-01-2019 07:00:00 0.30833 C 4.38 g/m*3 0.31 C 3.06667 km/h
1563 30-01-2019 08:00:00 0.16667 C 4.49 g/m*3 0.17 C 1.2 km/h
1564 30-01-2019 09:00:00 0.025 C 4.55 g/m*3 0.03 C 0.4 km/h
1565 30-01-2019 10:00:00 0.3 C 4.65 g/m*3 0.3 C 0.26667 km/h
1566 30-01-2019 11:00:00 0.825 C 4.82 g/m*3 0.83 C 0.13333 km/h
1567 30-01-2019 12:00:00 1.40833 C 5.02 g/m*3 1.41 C 0.26667 km/h
1568 30-01-2019 13:00:00 1.66667 C 5.11 g/m*3 1.67 C 0.26667 km/h
1569 30-01-2019 14:00:00 1.70833 C 5.11 g/m*3 1.71 C 0 km/h
1570 30-01-2019 15:00:00 1.475 C 5.04 g/m*3 1.48 C 3.61667 km/h
1571 30-01-2019 16:00:00 1.15833 C 4.97 g/m*3 1.16 C 4.53333 km/h
1572 30-01-2019 17:00:00 1.1 C 4.96 g/m*3 1.1 C 4.68333 km/h
1573 30-01-2019 18:00:00 1.075 C 4.96 g/m*3 1.08 C 4.00833 km/h
1574 30-01-2019 19:00:00 1.08333 C 5 g/m*3 1.08 C 1.73333 km/h
1575 30-01-2019 20:00:00 1.03333 C 4.98 g/m*3 -1.78 C 8.86667 km/h
Sensor: Nr:Datum:Temp:Abs-Feuchte:Windchill:Wind:
Aussen-T/F 1576 30-01-2019 21:00:00 0.95833 C 4.86 g/m*3 -1.79 C 8.6 km/h
1577 30-01-2019 22:00:00 0.71667 C 4.73 g/m*3 -1.96 C 8.19167 km/h
1578 30-01-2019 23:00:00 0.23333 C 4.55 g/m*3 -1.82 C 6.15 km/h
1579 31-01-2019 00:00:00 -0.4 C 4.38 g/m*3 -0.4 C 4.00833 km/h
1580 31-01-2019 01:00:00 -1.24167 C 4.17 g/m*3 -1.24 C 0 km/h
1581 31-01-2019 02:00:00 -1.29167 C 4.19 g/m*3 -1.29 C 0 km/h
1582 31-01-2019 03:00:00 -1.30833 C 4.2 g/m*3 -1.31 C 0 km/h
1583 31-01-2019 04:00:00 -0.8 C 4.38 g/m*3 -0.8 C 0 km/h
1584 31-01-2019 05:00:00 -0.61667 C 4.46 g/m*3 -0.62 C 0 km/h
1585 31-01-2019 06:00:00 -0.41667 C 4.52 g/m*3 -0.42 C 0 km/h
1586 31-01-2019 07:00:00 -0.35833 C 4.54 g/m*3 -0.36 C 0 km/h
1587 31-01-2019 08:00:00 -0.29167 C 4.56 g/m*3 -0.29 C 0 km/h
1588 31-01-2019 09:00:00 0.15833 C 4.7 g/m*3 0.16 C 0.53333 km/h
1589 31-01-2019 10:00:00 0.725 C 4.85 g/m*3 0.73 C 2.275 km/h
1590 31-01-2019 11:00:00 1.39167 C 5.02 g/m*3 1.39 C 0.53333 km/h
1591 31-01-2019 12:00:00 1.81667 C 5.15 g/m*3 1.82 C 0.66667 km/h
1592 31-01-2019 13:00:00 1.53333 C 5.05 g/m*3 1.53 C 0.26667 km/h
1593 31-01-2019 14:00:00 1.83333 C 5.2 g/m*3 1.83 C 0 km/h
1594 31-01-2019 15:00:00 2.25 C 5.28 g/m*3 2.25 C 0 km/h
1595 31-01-2019 16:00:00 1.56667 C 5.03 g/m*3 1.57 C 0 km/h
1596 31-01-2019 17:00:00 0.93333 C 4.86 g/m*3 0.93 C 0 km/h
1597 31-01-2019 18:00:00 0.06667 C 4.58 g/m*3 0.07 C 3.33333 km/h
1598 31-01-2019 19:00:00 -1.11667 C 4.21 g/m*3 -1.12 C 2.13333 km/h
1599 31-01-2019 20:00:00 -1.95833 C 3.98 g/m*3 -1.96 C 0.93333 km/h
1600 31-01-2019 21:00:00 -2.00833 C 4 g/m*3 -2.01 C 0 km/h
Sensor: Nr:Datum:Temp:Abs-Feuchte:Windchill:Wind:
Aussen-T/F 1601 31-01-2019 22:00:00 -1.6 C 4.16 g/m*3 -1.6 C 0 km/h
1602 31-01-2019 23:00:00 -1.225 C 4.27 g/m*3 -1.23 C 0 km/h
1603 01-02-2019 00:00:00 -0.775 C 4.41 g/m*3 -0.78 C 0 km/h
1604 01-02-2019 01:00:00 -0.44167 C 4.51 g/m*3 -0.44 C 0 km/h
1605 01-02-2019 02:00:00 -0.125 C 4.61 g/m*3 -0.13 C 0 km/h
1606 01-02-2019 03:00:00 0.575 C 4.88 g/m*3 0.57 C 2.53333 km/h
1607 01-02-2019 04:00:00 1.08333 C 5.02 g/m*3 -0.52 C 5.35833 km/h
1608 01-02-2019 05:00:00 1.18333 C 5.04 g/m*3 1.18 C 2.54167 km/h
1609 01-02-2019 06:00:00 1.13333 C 5.02 g/m*3 1.13 C 1.2 km/h
1610 01-02-2019 07:00:00 1.2 C 5.05 g/m*3 1.2 C 1.73333 km/h
1611 01-02-2019 08:00:00 1.31667 C 5.1 g/m*3 1.32 C 2.66667 km/h
1612 01-02-2019 09:00:00 1.54167 C 5.17 g/m*3 1.54 C 1.60833 km/h
1613 01-02-2019 10:00:00 2.21667 C 5.41 g/m*3 2.22 C 3.06667 km/h
1614 01-02-2019 11:00:00 3.15833 C 5.71 g/m*3 3.16 C 1.46667 km/h
1615 01-02-2019 12:00:00 3.225 C 5.63 g/m*3 3.23 C 1.6 km/h
1616 01-02-2019 13:00:00 2.73333 C 5.51 g/m*3 2.73 C 3.06667 km/h
1617 01-02-2019 14:00:00 3.49167 C 5.83 g/m*3 3.49 C 3.06667 km/h
1618 01-02-2019 15:00:00 3.23333 C 5.67 g/m*3 3.23 C 3.6 km/h
1619 01-02-2019 16:00:00 2.86667 C 5.59 g/m*3 2.87 C 4.8 km/h
1620 01-02-2019 17:00:00 2.54167 C 5.5 g/m*3 2.54 C 4.66667 km/h
1621 01-02-2019 18:00:00 2.46667 C 5.51 g/m*3 2.47 C 4.26667 km/h
1622 01-02-2019 19:00:00 2.24167 C 5.42 g/m*3 2.24 C 3.86667 km/h
1623 01-02-2019 20:00:00 2.01667 C 5.34 g/m*3 2.02 C 2.93333 km/h
1624 01-02-2019 21:00:00 1.80833 C 5.27 g/m*3 1.81 C 0 km/h
1625 01-02-2019 22:00:00 1.675 C 5.22 g/m*3 1.68 C 0.13333 km/h
Sensor: Nr:Datum:Temp:Abs-Feuchte:Windchill:Wind:
Aussen-T/F 1626 01-02-2019 23:00:00 1.59167 C 5.23 g/m*3 1.59 C 0 km/h
1627 02-02-2019 00:00:00 1.74167 C 5.3 g/m*3 1.74 C 0 km/h
1628 02-02-2019 01:00:00 1.825 C 5.33 g/m*3 1.83 C 0 km/h
1629 02-02-2019 02:00:00 1.825 C 5.33 g/m*3 1.83 C 0 km/h
1630 02-02-2019 03:00:00 1.75833 C 5.3 g/m*3 1.76 C 0 km/h
1631 02-02-2019 04:00:00 1.81667 C 5.32 g/m*3 1.82 C 0 km/h
1632 02-02-2019 05:00:00 1.70833 C 5.28 g/m*3 1.71 C 0 km/h
1633 02-02-2019 06:00:00 1.725 C 5.29 g/m*3 1.73 C 0 km/h
1634 02-02-2019 07:00:00 1.73333 C 5.29 g/m*3 1.73 C 0 km/h
1635 02-02-2019 08:00:00 1.8 C 5.32 g/m*3 1.8 C 0 km/h
1636 02-02-2019 09:00:00 2.09167 C 5.42 g/m*3 2.09 C 0 km/h
1637 02-02-2019 10:00:00 2.71667 C 5.69 g/m*3 2.72 C 0.26667 km/h
1638 02-02-2019 11:00:00 3.05 C 5.79 g/m*3 3.05 C 0.26667 km/h
1639 02-02-2019 12:00:00 3.31667 C 5.89 g/m*3 3.32 C 0 km/h
1640 02-02-2019 13:00:00 3.675 C 6.03 g/m*3 3.68 C 0.53333 km/h
1641 02-02-2019 14:00:00 3.725 C 6.05 g/m*3 3.73 C 0 km/h
1642 02-02-2019 15:00:00 3.90833 C 6.13 g/m*3 3.91 C 0 km/h
1643 02-02-2019 16:00:00 3.675 C 6.03 g/m*3 3.68 C 0 km/h
1644 02-02-2019 17:00:00 3.25 C 5.86 g/m*3 3.25 C 0.53333 km/h
1645 02-02-2019 18:00:00 3.15833 C 5.83 g/m*3 1.96 C 5.075 km/h
1646 02-02-2019 19:00:00 2.625 C 5.6 g/m*3 2.63 C 3.60833 km/h
1647 02-02-2019 20:00:00 2.30833 C 5.46 g/m*3 2.31 C 4.81667 km/h
1648 02-02-2019 21:00:00 2.1 C 5.37 g/m*3 2.1 C 0.53333 km/h
1649 02-02-2019 22:00:00 1.875 C 5.29 g/m*3 0.07 C 6.15833 km/h
1650 02-02-2019 23:00:00 1.8 C 5.28 g/m*3 1.8 C 4.95 km/h
Sensor: Nr:Datum:Temp:Abs-Feuchte:Windchill:Wind:
Aussen-T/F 1651 03-02-2019 00:00:00 1.875 C 5.32 g/m*3 0.44 C 5.225 km/h
1652 03-02-2019 01:00:00 2.06667 C 5.36 g/m*3 -0.24 C 7.76667 km/h
1653 03-02-2019 02:00:00 2.15833 C 5.3 g/m*3 -1.21 C 12.09167 km/h
1654 03-02-2019 03:00:00 2.18333 C 5.23 g/m*3 -0.89 C 10.76667 km/h
1655 03-02-2019 04:00:00 2.1 C 5.23 g/m*3 -0.52 C 8.86667 km/h
1656 03-02-2019 05:00:00 2.18333 C 5.24 g/m*3 2.18 C 4 km/h
1657 03-02-2019 06:00:00 2.19167 C 5.21 g/m*3 -0.02 C 7.50833 km/h
1658 03-02-2019 07:00:00 1.9 C 5.13 g/m*3 -0.28 C 7.25833 km/h
1659 03-02-2019 08:00:00 1.875 C 5.12 g/m*3 1.88 C 4.96667 km/h
1660 03-02-2019 09:00:00 2.00833 C 5.18 g/m*3 2.01 C 2.54167 km/h
1661 03-02-2019 10:00:00 2.46667 C 5.24 g/m*3 -0.01 C 8.59167 km/h
1662 03-02-2019 11:00:00 3.10833 C 5.32 g/m*3 1.21 C 6.99167 km/h
1663 03-02-2019 12:00:00 3.58333 C 5.3 g/m*3 0.8 C 10.75 km/h
1664 03-02-2019 13:00:00 3.96667 C 5.29 g/m*3 0.91 C 12.5 km/h
1665 03-02-2019 14:00:00 4.1 C 5.32 g/m*3 1.12 C 12.23333 km/h
1666 03-02-2019 15:00:00 4.50833 C 5.05 g/m*3 1.82 C 11.16667 km/h
1667 03-02-2019 16:00:00 4.43333 C 4.98 g/m*3 3.3 C 5.35 km/h
1668 03-02-2019 17:00:00 4.26667 C 5.05 g/m*3 4.27 C 4.13333 km/h
1669 03-02-2019 18:00:00 3.875 C 5.19 g/m*3 3.88 C 3.34167 km/h
1670 03-02-2019 19:00:00 3.58333 C 5.25 g/m*3 3.58 C 2.13333 km/h
1671 03-02-2019 20:00:00 3.19167 C 5.25 g/m*3 3.19 C 2.4 km/h
1672 03-02-2019 21:00:00 1.925 C 4.92 g/m*3 1.93 C 1.46667 km/h
1673 03-02-2019 22:00:00 0.99167 C 4.73 g/m*3 0.99 C 0 km/h
1674 03-02-2019 23:00:00 0.25833 C 4.58 g/m*3 0.26 C 0.4 km/h
1675 04-02-2019 00:00:00 -0.31667 C 4.44 g/m*3 -0.32 C 1.06667 km/h
Sensor: Nr:Datum:Temp:Abs-Feuchte:Windchill:Wind:
Aussen-T/F 1676 04-02-2019 01:00:00 -0.05833 C 4.58 g/m*3 -0.06 C 1.73333 km/h
1677 04-02-2019 02:00:00 0 C 4.57 g/m*3 0 C 1.73333 km/h
1678 04-02-2019 03:00:00 -0.2 C 4.49 g/m*3 -2.81 C 7.50833 km/h
1679 04-02-2019 04:00:00 -0.475 C 4.41 g/m*3 -0.48 C 0.4 km/h
1680 04-02-2019 05:00:00 -0.03333 C 4.59 g/m*3 -0.03 C 0.4 km/h
1681 04-02-2019 06:00:00 0.36667 C 4.72 g/m*3 0.37 C 0 km/h
1682 04-02-2019 07:00:00 0.51667 C 4.77 g/m*3 0.52 C 0.26667 km/h
1683 04-02-2019 08:00:00 0.7 C 4.8 g/m*3 0.7 C 0.26667 km/h
1684 04-02-2019 09:00:00 0.60833 C 4.75 g/m*3 0.61 C 0.13333 km/h
1685 04-02-2019 10:00:00 0.9 C 4.85 g/m*3 0.9 C 0 km/h
1686 04-02-2019 11:00:00 2.04167 C 5.08 g/m*3 2.04 C 0 km/h
1687 04-02-2019 12:00:00 3.75 C 5.12 g/m*3 3.75 C 4.425 km/h
1688 04-02-2019 13:00:00 4.78333 C 4.86 g/m*3 2.8 C 8.325 km/h
1689 04-02-2019 14:00:00 5.30833 C 4.75 g/m*3 3.94 C 6.43333 km/h
1690 04-02-2019 15:00:00 5.325 C 4.63 g/m*3 5.33 C 4.55833 km/h
1691 04-02-2019 16:00:00 5 C 4.88 g/m*3 5 C 1.6 km/h
1692 04-02-2019 17:00:00 2.75 C 4.88 g/m*3 2.75 C 0.8 km/h
1693 04-02-2019 18:00:00 1.4 C 4.67 g/m*3 1.4 C 3.6 km/h
1694 04-02-2019 19:00:00 1.40833 C 4.78 g/m*3 1.41 C 1.6 km/h
1695 04-02-2019 20:00:00 2.00833 C 4.87 g/m*3 2.01 C 1.475 km/h
1696 04-02-2019 21:00:00 2.625 C 4.79 g/m*3 2.63 C 1.6 km/h
1697 04-02-2019 22:00:00 2.85 C 4.88 g/m*3 2.85 C 0.66667 km/h
1698 04-02-2019 23:00:00 2.71667 C 4.95 g/m*3 2.72 C 0.26667 km/h
1699 05-02-2019 00:00:00 2.99167 C 4.91 g/m*3 2.99 C 1.33333 km/h
1700 05-02-2019 01:00:00 3.31667 C 4.91 g/m*3 3.32 C 2.14167 km/h
Sensor: Nr:Datum:Temp:Abs-Feuchte:Windchill:Wind:
Aussen-T/F 1701 05-02-2019 02:00:00 3.41667 C 4.85 g/m*3 3.42 C 3.46667 km/h
1702 05-02-2019 03:00:00 3.6 C 4.82 g/m*3 3.6 C 1.06667 km/h
1703 05-02-2019 04:00:00 3.44167 C 4.83 g/m*3 3.44 C 3.75 km/h
1704 05-02-2019 05:00:00 3.65 C 4.76 g/m*3 2.36 C 5.49167 km/h
1705 05-02-2019 06:00:00 3.39167 C 4.97 g/m*3 3.39 C 0.93333 km/h
1706 05-02-2019 07:00:00 2.98333 C 5.04 g/m*3 2.98 C 0.13333 km/h
1707 05-02-2019 08:00:00 2.98333 C 5.05 g/m*3 2.98 C 0.53333 km/h
1708 05-02-2019 09:00:00 3.58333 C 4.97 g/m*3 2.23 C 5.61667 km/h
1709 05-02-2019 10:00:00 4.175 C 5.02 g/m*3 2.68 C 6.28333 km/h
1710 05-02-2019 11:00:00 5.00833 C 5.15 g/m*3 3.47 C 6.83333 km/h
1711 05-02-2019 12:00:00 5.85833 C 5.37 g/m*3 4.49 C 6.70833 km/h
1712 05-02-2019 13:00:00 6.30833 C 5.44 g/m*3 4.94 C 6.975 km/h
1713 05-02-2019 14:00:00 6.73333 C 5.55 g/m*3 5.47 C 6.85833 km/h
1714 05-02-2019 15:00:00 7.03333 C 5.71 g/m*3 7.03 C 4.8 km/h
1715 05-02-2019 16:00:00 6.83333 C 5.86 g/m*3 6.83 C 2 km/h
1716 05-02-2019 17:00:00 6.15833 C 6.08 g/m*3 6.16 C 0.4 km/h
1717 05-02-2019 18:00:00 5.15833 C 5.92 g/m*3 5.16 C 0.26667 km/h
1718 05-02-2019 19:00:00 4.75 C 5.85 g/m*3 4.75 C 0.53333 km/h
1719 05-02-2019 20:00:00 4.35 C 5.74 g/m*3 4.35 C 0.93333 km/h
1720 05-02-2019 21:00:00 4.10833 C 5.72 g/m*3 4.11 C 1.46667 km/h
1721 05-02-2019 22:00:00 2.69167 C 5.22 g/m*3 2.69 C 4.66667 km/h
1722 05-02-2019 23:00:00 1.725 C 5 g/m*3 1.73 C 2.66667 km/h
1723 06-02-2019 00:00:00 0.43333 C 4.62 g/m*3 0.43 C 0 km/h
1724 06-02-2019 01:00:00 -0.225 C 4.48 g/m*3 -0.23 C 0 km/h
1725 06-02-2019 02:00:00 -0.675 C 4.37 g/m*3 -0.68 C 0 km/h
Sensor: Nr:Datum:Temp:Abs-Feuchte:Windchill:Wind:
Aussen-T/F 1726 06-02-2019 03:00:00 -1.16667 C 4.24 g/m*3 -1.17 C 0 km/h
1727 06-02-2019 04:00:00 -1.425 C 4.17 g/m*3 -1.43 C 0 km/h
1728 06-02-2019 05:00:00 -1.59167 C 4.12 g/m*3 -1.59 C 0 km/h
1729 06-02-2019 06:00:00 -1.76667 C 4.07 g/m*3 -1.77 C 0 km/h
1730 06-02-2019 07:00:00 -1.975 C 4.01 g/m*3 -1.98 C 0.13333 km/h
1731 06-02-2019 08:00:00 -2.21667 C 3.97 g/m*3 -2.22 C 0.13333 km/h
1732 06-02-2019 09:00:00 -1.36667 C 4.23 g/m*3 -1.37 C 0 km/h
1733 06-02-2019 10:00:00 0.10833 C 4.69 g/m*3 0.11 C 0.66667 km/h
1734 06-02-2019 11:00:00 1.675 C 5.13 g/m*3 1.68 C 1.06667 km/h
1735 06-02-2019 12:00:00 2.98333 C 5.41 g/m*3 2.98 C 0.4 km/h
1736 06-02-2019 13:00:00 4.15 C 5.6 g/m*3 4.15 C 2.94167 km/h
1737 06-02-2019 14:00:00 5.675 C 5.05 g/m*3 3.45 C 10.08333 km/h
1738 06-02-2019 15:00:00 5.975 C 5.24 g/m*3 5.98 C 2.26667 km/h
1739 06-02-2019 16:00:00 5.13333 C 5.35 g/m*3 5.13 C 1.86667 km/h
1740 06-02-2019 17:00:00 3.79167 C 5.14 g/m*3 2.58 C 5.33333 km/h
1741 06-02-2019 18:00:00 2.64167 C 4.99 g/m*3 2.64 C 2.66667 km/h
1742 06-02-2019 19:00:00 2.14167 C 5.01 g/m*3 2.14 C 0 km/h
1743 06-02-2019 20:00:00 1.91667 C 4.95 g/m*3 1.92 C 0 km/h
1744 06-02-2019 21:00:00 1.53333 C 4.9 g/m*3 1.53 C 0 km/h
1745 06-02-2019 22:00:00 1.21667 C 4.83 g/m*3 1.22 C 0 km/h
1746 06-02-2019 23:00:00 1.26667 C 4.86 g/m*3 1.27 C 0 km/h
1747 07-02-2019 00:00:00 0.90833 C 4.73 g/m*3 0.91 C 0 km/h
1748 07-02-2019 01:00:00 1.20833 C 4.84 g/m*3 1.21 C 0 km/h
1749 07-02-2019 02:00:00 1.44167 C 4.89 g/m*3 1.44 C 0 km/h
1750 07-02-2019 03:00:00 1.73333 C 5 g/m*3 1.73 C 0.26667 km/h
Sensor: Nr:Datum:Temp:Abs-Feuchte:Windchill:Wind:
Aussen-T/F 1751 07-02-2019 04:00:00 2.33333 C 5.14 g/m*3 2.33 C 0.4 km/h
1752 07-02-2019 05:00:00 2.65833 C 5.29 g/m*3 2.66 C 4.01667 km/h
1753 07-02-2019 06:00:00 3.00833 C 5.26 g/m*3 3.01 C 3.06667 km/h
1754 07-02-2019 07:00:00 3.5 C 5.5 g/m*3 3.5 C 0.13333 km/h
1755 07-02-2019 08:00:00 3.99167 C 5.87 g/m*3 3.99 C 0.93333 km/h
1756 07-02-2019 09:00:00 4.53333 C 6.24 g/m*3 4.53 C 0.66667 km/h
1757 07-02-2019 10:00:00 5.175 C 6.54 g/m*3 5.18 C 0 km/h
1758 07-02-2019 11:00:00 5.675 C 6.8 g/m*3 5.68 C 3.475 km/h
1759 07-02-2019 12:00:00 6.775 C 7.26 g/m*3 4.34 C 12.36667 km/h
1760 07-02-2019 13:00:00 7.54167 C 7.3 g/m*3 4.77 C 15.83333 km/h
1761 07-02-2019 14:00:00 8.09167 C 7.08 g/m*3 5.49 C 15.56667 km/h
1762 07-02-2019 15:00:00 8.53333 C 6.92 g/m*3 5.95 C 16.23333 km/h
1763 07-02-2019 16:00:00 8.59167 C 6.81 g/m*3 6.68 C 11.56667 km/h
1764 07-02-2019 17:00:00 7.51667 C 6.58 g/m*3 7.52 C 4.41667 km/h
1765 07-02-2019 18:00:00 6.6 C 6.33 g/m*3 5.87 C 5.075 km/h
1766 07-02-2019 19:00:00 6.65 C 6.14 g/m*3 5.41 C 6.7 km/h
1767 07-02-2019 20:00:00 6.28333 C 6.14 g/m*3 6.28 C 4.275 km/h
1768 07-02-2019 21:00:00 6.9 C 6.33 g/m*3 4.86 C 10.35 km/h
1769 07-02-2019 22:00:00 6.44167 C 6.14 g/m*3 4.82 C 8.05 km/h
1770 07-02-2019 23:00:00 6.2 C 6.21 g/m*3 4.31 C 8.98333 km/h
1771 08-02-2019 00:00:00 5.525 C 6.14 g/m*3 3.91 C 7.39167 km/h
1772 08-02-2019 01:00:00 5.89167 C 6.23 g/m*3 4.58 C 6.55833 km/h
1773 08-02-2019 02:00:00 5.8 C 6.22 g/m*3 3.71 C 9.53333 km/h
1774 08-02-2019 03:00:00 5.75 C 6.25 g/m*3 4.62 C 5.9 km/h
1775 08-02-2019 04:00:00 6.28333 C 6.38 g/m*3 4.26 C 9.69167 km/h
Sensor: Nr:Datum:Temp:Abs-Feuchte:Windchill:Wind:
Aussen-T/F 1776 08-02-2019 05:00:00 6.4 C 6.41 g/m*3 5.2 C 6.44167 km/h
1777 08-02-2019 06:00:00 6.325 C 6.43 g/m*3 6.33 C 2.95 km/h
1778 08-02-2019 07:00:00 6.38333 C 6.46 g/m*3 5.39 C 5.75833 km/h
1779 08-02-2019 08:00:00 6.675 C 6.52 g/m*3 5.48 C 6.56667 km/h
1780 08-02-2019 09:00:00 7.05 C 6.65 g/m*3 7.05 C 4.41667 km/h
1781 08-02-2019 10:00:00 7.425 C 6.78 g/m*3 6 C 7.925 km/h
1782 08-02-2019 11:00:00 8.45 C 7.01 g/m*3 7.57 C 6.425 km/h
1783 08-02-2019 12:00:00 9.44167 C 7.21 g/m*3 8.07 C 9.425 km/h
1784 08-02-2019 13:00:00 9.21667 C 7.11 g/m*3 7.78 C 9.54167 km/h
1785 08-02-2019 14:00:00 8.40833 C 6.94 g/m*3 6.98 C 8.75 km/h
1786 08-02-2019 15:00:00 8.25 C 6.95 g/m*3 7.16 C 7.10833 km/h
1787 08-02-2019 16:00:00 8.28333 C 6.97 g/m*3 7.73 C 5.225 km/h
1788 08-02-2019 17:00:00 8.21667 C 6.87 g/m*3 7.66 C 5.225 km/h
1789 08-02-2019 18:00:00 8.06667 C 6.84 g/m*3 8.07 C 4.675 km/h
1790 08-02-2019 19:00:00 8.21667 C 6.79 g/m*3 7.7 C 5.1 km/h
1791 08-02-2019 20:00:00 8.23333 C 6.74 g/m*3 7.64 C 5.35 km/h
1792 08-02-2019 21:00:00 8.075 C 6.65 g/m*3 7.17 C 6.30833 km/h
1793 08-02-2019 22:00:00 7.75833 C 6.57 g/m*3 7.76 C 3.34167 km/h
1794 08-02-2019 23:00:00 8.1 C 6.59 g/m*3 7.24 C 6.16667 km/h
1795 09-02-2019 00:00:00 8.29167 C 6.56 g/m*3 7.62 C 5.61667 km/h
1796 09-02-2019 01:00:00 7.79167 C 6.64 g/m*3 7.79 C 3.2 km/h
1797 09-02-2019 02:00:00 7.475 C 6.83 g/m*3 5.43 C 10.98333 km/h
1798 09-02-2019 03:00:00 8.075 C 7 g/m*3 5.76 C 13.43333 km/h
1799 09-02-2019 04:00:00 8.90833 C 7.19 g/m*3 5.58 C 24.525 km/h
1800 09-02-2019 05:00:00 8.25833 C 7.03 g/m*3 5.89 C 14.09167 km/h
Sensor: Nr:Datum:Temp:Abs-Feuchte:Windchill:Wind:
Aussen-T/F 1801 09-02-2019 06:00:00 7.8 C 6.76 g/m*3 5.57 C 12.5 km/h
1802 09-02-2019 07:00:00 7.49167 C 6.85 g/m*3 4.8 C 15.16667 km/h
1803 09-02-2019 08:00:00 7.225 C 6.79 g/m*3 4.7 C 13.56667 km/h
1804 09-02-2019 09:00:00 7.73333 C 6.69 g/m*3 4.71 C 18.23333 km/h
1805 09-02-2019 10:00:00 8.85 C 6.93 g/m*3 6.14 C 17.96667 km/h
1806 09-02-2019 11:00:00 9.30833 C 6.98 g/m*3 6.89 C 16.36667 km/h
1807 09-02-2019 12:00:00 9.975 C 6.93 g/m*3 7.69 C 16.63333 km/h
1808 09-02-2019 13:00:00 10.73333 C 6.9 g/m*3 8.34 C 19.56667 km/h
1809 09-02-2019 14:00:00 11.125 C 6.83 g/m*3 11.13 C 20.51667 km/h
1810 09-02-2019 15:00:00 10.60833 C 6.68 g/m*3 8.6 C 15.56667 km/h
1811 09-02-2019 16:00:00 10.06667 C 6.79 g/m*3 7.94 C 15.43333 km/h
1812 09-02-2019 17:00:00 9.375 C 6.68 g/m*3 7.06 C 15.7 km/h
1813 09-02-2019 18:00:00 8.54167 C 6.69 g/m*3 6.24 C 14.1 km/h
1814 09-02-2019 19:00:00 7.86667 C 6.95 g/m*3 5.47 C 13.7 km/h
1815 09-02-2019 20:00:00 7.25 C 6.75 g/m*3 5.47 C 9.4 km/h
1816 09-02-2019 21:00:00 7.60833 C 6.93 g/m*3 5.07 C 14.23333 km/h
1817 09-02-2019 22:00:00 8.15833 C 6.99 g/m*3 5.84 C 13.56667 km/h
1818 09-02-2019 23:00:00 8.625 C 7.06 g/m*3 5.78 C 18.64167 km/h
1819 10-02-2019 00:00:00 8.61667 C 7.05 g/m*3 6.89 C 10.48333 km/h
1820 10-02-2019 01:00:00 7.85 C 6.87 g/m*3 7.85 C 2 km/h
1821 10-02-2019 02:00:00 7.41667 C 6.74 g/m*3 7.42 C 2.26667 km/h
1822 10-02-2019 03:00:00 7.60833 C 6.78 g/m*3 7.61 C 3.46667 km/h
1823 10-02-2019 04:00:00 6.98333 C 7 g/m*3 6.98 C 3.86667 km/h
1824 10-02-2019 05:00:00 6.95833 C 7.24 g/m*3 6.1 C 5.61667 km/h
1825 10-02-2019 06:00:00 7.625 C 7.59 g/m*3 6.33 C 7.50833 km/h
Sensor: Nr:Datum:Temp:Abs-Feuchte:Windchill:Wind:
Aussen-T/F 1826 10-02-2019 07:00:00 8.38333 C 7.91 g/m*3 6.84 C 9.26667 km/h
1827 10-02-2019 08:00:00 8.79167 C 7.98 g/m*3 7.13 C 10.34167 km/h
1828 10-02-2019 09:00:00 9.49167 C 8.1 g/m*3 7.61 C 12.625 km/h
1829 10-02-2019 10:00:00 10.05833 C 8.36 g/m*3 7.74 C 17.175 km/h
1830 10-02-2019 11:00:00 9.725 C 8.38 g/m*3 7.34 C 17.03333 km/h
1831 10-02-2019 12:00:00 9.65833 C 8.43 g/m*3 7.31 C 16.5 km/h
1832 10-02-2019 13:00:00 9.775 C 8.5 g/m*3 7.37 C 17.3 km/h
1833 10-02-2019 14:00:00 9.45833 C 8.22 g/m*3 7.05 C 16.63333 km/h
1834 10-02-2019 15:00:00 8.78333 C 7.53 g/m*3 5.67 C 21.7 km/h
1835 10-02-2019 16:00:00 8.48333 C 7.41 g/m*3 5.54 C 19.3 km/h
1836 10-02-2019 17:00:00 7.95 C 7.11 g/m*3 4.48 C 23.05833 km/h
1837 10-02-2019 18:00:00 6.475 C 6.75 g/m*3 3.66 C 14.36667 km/h
1838 10-02-2019 19:00:00 6.41667 C 6.58 g/m*3 3.32 C 16.23333 km/h
1839 10-02-2019 20:00:00 6.68333 C 6.65 g/m*3 3.4 C 18.24167 km/h
1840 10-02-2019 21:00:00 6.14167 C 6.49 g/m*3 2.93 C 16.63333 km/h
1841 10-02-2019 22:00:00 6.14167 C 6.14 g/m*3 2.08 C 23.99167 km/h
1842 10-02-2019 23:00:00 5.58333 C 6.03 g/m*3 1.58 C 21.975 km/h
1843 11-02-2019 00:00:00 4.96667 C 6.03 g/m*3 1.3 C 17.83333 km/h
1844 11-02-2019 01:00:00 4.3 C 5.99 g/m*3 1.31 C 12.5 km/h
1845 11-02-2019 02:00:00 3.93333 C 5.9 g/m*3 1.31 C 10.34167 km/h
1846 11-02-2019 03:00:00 3.8 C 5.86 g/m*3 1.5 C 8.85833 km/h
1847 11-02-2019 04:00:00 3.60833 C 5.81 g/m*3 2.02 C 6.29167 km/h
1848 11-02-2019 05:00:00 3.85 C 5.92 g/m*3 2.3 C 6.29167 km/h
1849 11-02-2019 06:00:00 3.825 C 5.91 g/m*3 2.14 C 6.69167 km/h
1850 11-02-2019 07:00:00 4.06667 C 5.92 g/m*3 2.06 C 7.93333 km/h
Sensor: Nr:Datum:Temp:Abs-Feuchte:Windchill:Wind:
Aussen-T/F 1851 11-02-2019 08:00:00 4.09167 C 5.82 g/m*3 3.02 C 5.075 km/h
1852 11-02-2019 09:00:00 4.20833 C 5.8 g/m*3 2.67 C 6.43333 km/h
1853 11-02-2019 10:00:00 4.98333 C 5.86 g/m*3 2.71 C 9.675 km/h
1854 11-02-2019 11:00:00 5.94167 C 5.93 g/m*3 3.41 C 11.95833 km/h
1855 11-02-2019 12:00:00 6.61667 C 5.93 g/m*3 4.15 C 12.36667 km/h
1856 11-02-2019 13:00:00 7.29167 C 5.88 g/m*3 4.57 C 15.03333 km/h
1857 11-02-2019 14:00:00 7.35833 C 5.78 g/m*3 5.23 C 11.3 km/h
1858 11-02-2019 15:00:00 7.35833 C 5.85 g/m*3 5.33 C 10.75833 km/h
1859 11-02-2019 16:00:00 6.90833 C 6.08 g/m*3 4.79 C 10.74167 km/h
1860 11-02-2019 17:00:00 6.2 C 6.16 g/m*3 4.85 C 6.83333 km/h
1861 11-02-2019 18:00:00 5.73333 C 5.66 g/m*3 3.76 C 8.99167 km/h
1862 11-02-2019 19:00:00 4.83333 C 5.69 g/m*3 3.61 C 5.75833 km/h
1863 11-02-2019 20:00:00 4.15833 C 5.62 g/m*3 4.16 C 3.875 km/h
1864 11-02-2019 21:00:00 3.45 C 5.43 g/m*3 3.45 C 3.6 km/h
1865 11-02-2019 22:00:00 2.76667 C 5.27 g/m*3 2.77 C 2.26667 km/h
1866 11-02-2019 23:00:00 2.56667 C 5.29 g/m*3 2.57 C 1.46667 km/h
1867 12-02-2019 00:00:00 3.125 C 5.39 g/m*3 3.13 C 2.66667 km/h
1868 12-02-2019 01:00:00 3.05833 C 5.36 g/m*3 3.06 C 0.66667 km/h
1869 12-02-2019 02:00:00 2.8 C 5.33 g/m*3 2.8 C 2.4 km/h
1870 12-02-2019 03:00:00 2.63333 C 5.26 g/m*3 2.63 C 3.33333 km/h
1871 12-02-2019 04:00:00 2.48333 C 5.24 g/m*3 2.48 C 3.06667 km/h
1872 12-02-2019 05:00:00 2.63333 C 5.25 g/m*3 2.63 C 3.20833 km/h
1873 12-02-2019 06:00:00 2.4 C 5.14 g/m*3 0.88 C 5.61667 km/h
1874 12-02-2019 07:00:00 2.41667 C 5.14 g/m*3 0.8 C 5.875 km/h
1875 12-02-2019 08:00:00 2.275 C 5.1 g/m*3 0.84 C 5.35 km/h
Sensor: Nr:Datum:Temp:Abs-Feuchte:Windchill:Wind:
Aussen-T/F 1876 12-02-2019 09:00:00 2.98333 C 5.27 g/m*3 1.55 C 5.60833 km/h
1877 12-02-2019 10:00:00 3.95833 C 5.47 g/m*3 1.89 C 8.08333 km/h
1878 12-02-2019 11:00:00 4.65833 C 5.59 g/m*3 2.9 C 7.39167 km/h
1879 12-02-2019 12:00:00 5.44167 C 5.75 g/m*3 3.74 C 7.65 km/h
1880 12-02-2019 13:00:00 6.30833 C 5.88 g/m*3 4.56 C 8.45833 km/h
1881 12-02-2019 14:00:00 6.875 C 5.9 g/m*3 4.68 C 11.16667 km/h
1882 12-02-2019 15:00:00 7.05 C 5.89 g/m*3 5.23 C 9.40833 km/h
1883 12-02-2019 16:00:00 7.425 C 5.96 g/m*3 5.56 C 9.95833 km/h
1884 12-02-2019 17:00:00 6.55833 C 5.82 g/m*3 5.68 C 5.49167 km/h
1885 12-02-2019 18:00:00 4.35833 C 5.51 g/m*3 4.36 C 4.13333 km/h
1886 12-02-2019 19:00:00 3.025 C 5.27 g/m*3 3.03 C 3.2 km/h
1887 12-02-2019 20:00:00 2.33333 C 5.13 g/m*3 2.33 C 3.33333 km/h
1888 12-02-2019 21:00:00 1.59167 C 4.95 g/m*3 1.59 C 3.2 km/h
1889 12-02-2019 22:00:00 1.41667 C 4.96 g/m*3 -0.3 C 5.75833 km/h
1890 12-02-2019 23:00:00 1.375 C 4.97 g/m*3 1.38 C 4.26667 km/h
1891 13-02-2019 00:00:00 1.25 C 4.91 g/m*3 1.25 C 4.13333 km/h
1892 13-02-2019 01:00:00 0.85833 C 4.79 g/m*3 0.86 C 2.4 km/h
1893 13-02-2019 02:00:00 0.125 C 4.57 g/m*3 0.13 C 2.26667 km/h
1894 13-02-2019 03:00:00 -0.31667 C 4.46 g/m*3 -0.32 C 2 km/h
1895 13-02-2019 04:00:00 -0.33333 C 4.48 g/m*3 -0.33 C 1.6 km/h
1896 13-02-2019 05:00:00 -0.46667 C 4.46 g/m*3 -0.47 C 2 km/h
1897 13-02-2019 06:00:00 -0.45 C 4.47 g/m*3 -0.45 C 1.33333 km/h
1898 13-02-2019 07:00:00 0.26667 C 4.74 g/m*3 0.27 C 0.53333 km/h
1899 13-02-2019 08:00:00 0.66667 C 4.85 g/m*3 0.67 C 0.8 km/h
1900 13-02-2019 09:00:00 1.00833 C 4.94 g/m*3 1.01 C 2 km/h
Sensor: Nr:Datum:Temp:Abs-Feuchte:Windchill:Wind:
Aussen-T/F 1901 13-02-2019 10:00:00 1.60833 C 5.07 g/m*3 1.61 C 2.8 km/h
1902 13-02-2019 11:00:00 2.325 C 5.19 g/m*3 2.33 C 0.8 km/h
1903 13-02-2019 12:00:00 3.58333 C 5.52 g/m*3 3.58 C 1.6 km/h
1904 13-02-2019 13:00:00 4.89167 C 5.71 g/m*3 4.89 C 4.13333 km/h
1905 13-02-2019 14:00:00 5.41667 C 5.8 g/m*3 5.42 C 4.4 km/h
1906 13-02-2019 15:00:00 5.6 C 5.88 g/m*3 5.6 C 2.66667 km/h
1907 13-02-2019 16:00:00 5.54167 C 6.04 g/m*3 5.54 C 0 km/h
1908 13-02-2019 17:00:00 4.69167 C 5.89 g/m*3 4.69 C 0.93333 km/h
1909 13-02-2019 18:00:00 3.20833 C 5.46 g/m*3 3.21 C 0.66667 km/h
1910 13-02-2019 19:00:00 1.85 C 5.04 g/m*3 1.85 C 0 km/h
1911 13-02-2019 20:00:00 1.15 C 4.87 g/m*3 1.15 C 0 km/h
1912 13-02-2019 21:00:00 0.55833 C 4.65 g/m*3 0.56 C 0.13333 km/h
1913 13-02-2019 22:00:00 0.125 C 4.55 g/m*3 0.13 C 0.13333 km/h
1914 13-02-2019 23:00:00 -0.45 C 4.37 g/m*3 -0.45 C 0 km/h
1915 14-02-2019 00:00:00 -0.71667 C 4.3 g/m*3 -0.72 C 0 km/h
1916 14-02-2019 01:00:00 -1.05833 C 4.23 g/m*3 -1.06 C 0 km/h
1917 14-02-2019 02:00:00 -1.1 C 4.23 g/m*3 -1.1 C 0 km/h
1918 14-02-2019 03:00:00 -1.53333 C 4.1 g/m*3 -1.53 C 0.13333 km/h
1919 14-02-2019 04:00:00 -1.775 C 4.06 g/m*3 -1.78 C 0 km/h
1920 14-02-2019 05:00:00 -1.96667 C 4.01 g/m*3 -1.97 C 0 km/h
1921 14-02-2019 06:00:00 -2.45 C 3.88 g/m*3 -2.45 C 0 km/h
1922 14-02-2019 07:00:00 -2.65 C 3.83 g/m*3 -2.65 C 0 km/h
1923 14-02-2019 08:00:00 -2.43333 C 3.91 g/m*3 -2.43 C 0.4 km/h
1924 14-02-2019 09:00:00 -2.08333 C 4.02 g/m*3 -2.08 C 0.53333 km/h
1925 14-02-2019 10:00:00 -1.69167 C 4.14 g/m*3 -1.69 C 0.4 km/h
Sensor: Nr:Datum:Temp:Abs-Feuchte:Windchill:Wind:
Aussen-T/F 1926 14-02-2019 11:00:00 -0.9 C 4.39 g/m*3 -0.9 C 0.26667 km/h
1927 14-02-2019 12:00:00 0.675 C 4.92 g/m*3 0.68 C 0.66667 km/h
1928 14-02-2019 13:00:00 2.75833 C 5.67 g/m*3 2.76 C 0.4 km/h
1929 14-02-2019 14:00:00 4.65833 C 6.28 g/m*3 4.66 C 0.53333 km/h
1930 14-02-2019 15:00:00 6.48333 C 6.77 g/m*3 6.48 C 1.2 km/h
1931 14-02-2019 16:00:00 6.08333 C 6.43 g/m*3 6.08 C 0 km/h
1932 14-02-2019 17:00:00 5.625 C 6.22 g/m*3 5.63 C 0 km/h
1933 14-02-2019 18:00:00 4.58333 C 5.72 g/m*3 4.58 C 0 km/h
1934 14-02-2019 19:00:00 3.30833 C 5.17 g/m*3 3.31 C 0 km/h
1935 14-02-2019 20:00:00 2.78333 C 5.09 g/m*3 2.78 C 0 km/h
1936 14-02-2019 21:00:00 1.55 C 4.82 g/m*3 1.55 C 0 km/h
1937 14-02-2019 22:00:00 0.49167 C 4.57 g/m*3 0.49 C 0 km/h
1938 14-02-2019 23:00:00 -0.05833 C 4.48 g/m*3 -0.06 C 0 km/h
1939 15-02-2019 00:00:00 -0.55 C 4.37 g/m*3 -0.55 C 0 km/h
1940 15-02-2019 01:00:00 -0.93333 C 4.28 g/m*3 -0.93 C 0 km/h
1941 15-02-2019 02:00:00 -1.15 C 4.24 g/m*3 -1.15 C 0 km/h
1942 15-02-2019 03:00:00 -1.40833 C 4.17 g/m*3 -1.41 C 0 km/h
1943 15-02-2019 04:00:00 -1.50833 C 4.14 g/m*3 -1.51 C 0 km/h
1944 15-02-2019 05:00:00 -1.88333 C 4.04 g/m*3 -1.88 C 0 km/h
1945 15-02-2019 06:00:00 -2.075 C 3.99 g/m*3 -2.08 C 0 km/h
1946 15-02-2019 07:00:00 -2.4 C 3.89 g/m*3 -2.4 C 0 km/h
1947 15-02-2019 08:00:00 -2.2 C 3.99 g/m*3 -2.2 C 0 km/h
1948 15-02-2019 09:00:00 -1.69167 C 4.14 g/m*3 -1.69 C 0 km/h
1949 15-02-2019 10:00:00 -0.7 C 4.44 g/m*3 -0.7 C 0 km/h
1950 15-02-2019 11:00:00 1.26667 C 5.13 g/m*3 1.27 C 0 km/h
Sensor: Nr:Datum:Temp:Abs-Feuchte:Windchill:Wind:
Aussen-T/F 1951 15-02-2019 12:00:00 3.41667 C 5.91 g/m*3 3.42 C 0 km/h
1952 15-02-2019 13:00:00 5.93333 C 6.62 g/m*3 5.93 C 2.4 km/h
1953 15-02-2019 14:00:00 8.25833 C 6.95 g/m*3 7.71 C 5.2 km/h
1954 15-02-2019 15:00:00 9.58333 C 7.08 g/m*3 9.14 C 5.46667 km/h
1955 15-02-2019 16:00:00 10.65833 C 6.75 g/m*3 10.19 C 6.13333 km/h
1956 15-02-2019 17:00:00 9.35833 C 6.46 g/m*3 8.56 C 6.68333 km/h
1957 15-02-2019 18:00:00 7.275 C 6 g/m*3 6.38 C 5.86667 km/h
1958 15-02-2019 19:00:00 6.16667 C 5.85 g/m*3 6.17 C 4.26667 km/h
1959 15-02-2019 20:00:00 4.46667 C 5.54 g/m*3 4.47 C 0.53333 km/h
1960 15-02-2019 21:00:00 3.15833 C 5.3 g/m*3 3.16 C 0 km/h
1961 15-02-2019 22:00:00 1.85 C 4.97 g/m*3 1.85 C 0 km/h
1962 15-02-2019 23:00:00 1.23333 C 4.86 g/m*3 1.23 C 0 km/h
1963 16-02-2019 00:00:00 0.41667 C 4.63 g/m*3 0.42 C 0 km/h
1964 16-02-2019 01:00:00 -0.15 C 4.5 g/m*3 -0.15 C 0 km/h
1965 16-02-2019 02:00:00 -0.48333 C 4.42 g/m*3 -0.48 C 0.53333 km/h
1966 16-02-2019 03:00:00 -0.75833 C 4.36 g/m*3 -0.76 C 0.13333 km/h
1967 16-02-2019 04:00:00 -0.925 C 4.32 g/m*3 -0.93 C 0.13333 km/h
1968 16-02-2019 05:00:00 -1.11667 C 4.27 g/m*3 -1.12 C 1.06667 km/h
1969 16-02-2019 06:00:00 -1.20833 C 4.25 g/m*3 -1.21 C 0.8 km/h
1970 16-02-2019 07:00:00 -1.64167 C 4.11 g/m*3 -1.64 C 0.13333 km/h
1971 16-02-2019 08:00:00 -1.78333 C 4.09 g/m*3 -1.78 C 0.13333 km/h
1972 16-02-2019 09:00:00 -1.09167 C 4.31 g/m*3 -1.09 C 0 km/h
1973 16-02-2019 10:00:00 -0.225 C 4.6 g/m*3 -0.23 C 0 km/h
1974 16-02-2019 11:00:00 2.175 C 5.45 g/m*3 2.17 C 0.53333 km/h
1975 16-02-2019 12:00:00 4.96667 C 6.57 g/m*3 4.97 C 1.06667 km/h
Sensor: Nr:Datum:Temp:Abs-Feuchte:Windchill:Wind:
Aussen-T/F 1976 16-02-2019 13:00:00 7.85833 C 7.37 g/m*3 7.86 C 2.26667 km/h
1977 16-02-2019 14:00:00 10.66667 C 7.56 g/m*3 10.67 C 0 km/h
1978 16-02-2019 15:00:00 11.75833 C 7.33 g/m*3 11.76 C 4 km/h
1979 16-02-2019 16:00:00 11.88333 C 7.11 g/m*3 11.88 C 2.4 km/h
1980 16-02-2019 17:00:00 10.69167 C 6.87 g/m*3 10.69 C 4 km/h
1981 16-02-2019 18:00:00 8.74167 C 6.63 g/m*3 8.02 C 6 km/h
1982 16-02-2019 19:00:00 7.29167 C 6.4 g/m*3 7.29 C 2 km/h
1983 16-02-2019 20:00:00 5.41667 C 5.88 g/m*3 5.42 C 0 km/h
1984 16-02-2019 21:00:00 3.75833 C 5.54 g/m*3 3.76 C 0 km/h
1985 16-02-2019 22:00:00 2.8 C 5.35 g/m*3 2.8 C 0 km/h
1986 16-02-2019 23:00:00 1.95833 C 5.15 g/m*3 1.96 C 0 km/h
1987 17-02-2019 00:00:00 1.55 C 5.07 g/m*3 1.55 C 0 km/h
1988 17-02-2019 01:00:00 0.86667 C 4.85 g/m*3 0.87 C 0 km/h
1989 17-02-2019 02:00:00 0.34167 C 4.71 g/m*3 0.34 C 0 km/h
1990 17-02-2019 03:00:00 0.09167 C 4.65 g/m*3 0.09 C 0 km/h
1991 17-02-2019 04:00:00 -0.36667 C 4.5 g/m*3 -0.37 C 0 km/h
1992 17-02-2019 05:00:00 -0.85833 C 4.36 g/m*3 -0.86 C 0 km/h
1993 17-02-2019 06:00:00 -0.975 C 4.35 g/m*3 -0.98 C 0.13333 km/h
1994 17-02-2019 07:00:00 -1.25 C 4.26 g/m*3 -1.25 C 0 km/h
1995 17-02-2019 08:00:00 -1.33333 C 4.24 g/m*3 -1.33 C 0 km/h
1996 17-02-2019 09:00:00 -0.81667 C 4.4 g/m*3 -0.82 C 0 km/h
1997 17-02-2019 10:00:00 -0.16667 C 4.63 g/m*3 -0.17 C 0 km/h
1998 17-02-2019 11:00:00 1.93333 C 5.37 g/m*3 1.93 C 0.13333 km/h
1999 17-02-2019 12:00:00 4.73333 C 6.5 g/m*3 4.73 C 0.13333 km/h
2000 17-02-2019 13:00:00 7.51667 C 7.74 g/m*3 7.52 C 0.53333 km/h
Sensor: Nr:Datum:Temp:Abs-Feuchte:Windchill:Wind:
Aussen-T/F 2001 17-02-2019 14:00:00 9.76667 C 7.99 g/m*3 9.77 C 1.33333 km/h
2002 17-02-2019 15:00:00 11.19167 C 7.83 g/m*3 11.19 C 3.06667 km/h
2003 17-02-2019 16:00:00 11.94167 C 7.56 g/m*3 11.94 C 2.26667 km/h
2004 17-02-2019 17:00:00 11 C 7.26 g/m*3 10.59 C 6.13333 km/h
2005 17-02-2019 18:00:00 8.59167 C 6.56 g/m*3 8.59 C 4.8 km/h
2006 17-02-2019 19:00:00 6.73333 C 6.1 g/m*3 6.73 C 1.86667 km/h
2007 17-02-2019 20:00:00 4.69167 C 5.63 g/m*3 4.69 C 0 km/h
2008 17-02-2019 21:00:00 3.65 C 5.43 g/m*3 3.65 C 0.13333 km/h
2009 17-02-2019 22:00:00 2.375 C 5.11 g/m*3 2.38 C 0 km/h
2010 17-02-2019 23:00:00 1.7 C 4.99 g/m*3 1.7 C 0 km/h
2011 18-02-2019 00:00:00 1.46667 C 4.91 g/m*3 1.47 C 0 km/h
2012 18-02-2019 01:00:00 0.49167 C 4.64 g/m*3 0.49 C 0 km/h
2013 18-02-2019 02:00:00 0.08333 C 4.57 g/m*3 0.08 C 0.13333 km/h
2014 18-02-2019 03:00:00 -0.41667 C 4.43 g/m*3 -0.42 C 0 km/h
2015 18-02-2019 04:00:00 -0.775 C 4.34 g/m*3 -0.78 C 0 km/h
2016 18-02-2019 05:00:00 -1.21667 C 4.23 g/m*3 -1.22 C 0 km/h
2017 18-02-2019 06:00:00 -1.475 C 4.15 g/m*3 -1.48 C 0 km/h
2018 18-02-2019 07:00:00 -1.65 C 4.11 g/m*3 -1.65 C 0 km/h
2019 18-02-2019 08:00:00 -1.63333 C 4.13 g/m*3 -1.63 C 0.13333 km/h
2020 18-02-2019 09:00:00 -0.56667 C 4.47 g/m*3 -0.57 C 0.66667 km/h
2021 18-02-2019 10:00:00 0.19167 C 4.72 g/m*3 0.19 C 0.8 km/h
2022 18-02-2019 11:00:00 2.84167 C 5.69 g/m*3 2.84 C 0 km/h
2023 18-02-2019 12:00:00 6.04167 C 6.76 g/m*3 6.04 C 0 km/h
2024 18-02-2019 13:00:00 9.59167 C 7.36 g/m*3 9.59 C 0 km/h
2025 18-02-2019 14:00:00 11.34167 C 7.36 g/m*3 11.34 C 0 km/h
Sensor: Nr:Datum:Temp:Abs-Feuchte:Windchill:Wind:
Aussen-T/F 2026 18-02-2019 15:00:00 12.05833 C 7.16 g/m*3 12.06 C 0 km/h
2027 18-02-2019 16:00:00 11.84167 C 6.81 g/m*3 11.84 C 0 km/h
2028 18-02-2019 17:00:00 10.425 C 6.72 g/m*3 10.43 C 0 km/h
2029 18-02-2019 18:00:00 8.41667 C 6.35 g/m*3 8.42 C 0 km/h
2030 18-02-2019 19:00:00 7 C 6.2 g/m*3 7 C 0 km/h
2031 18-02-2019 20:00:00 5.65833 C 5.77 g/m*3 5.66 C 0.4 km/h
2032 18-02-2019 21:00:00 4.1 C 5.5 g/m*3 4.1 C 0 km/h
2033 18-02-2019 22:00:00 2.76667 C 5.19 g/m*3 2.77 C 0 km/h
2034 18-02-2019 23:00:00 2.13333 C 5.09 g/m*3 2.13 C 0 km/h
2035 19-02-2019 00:00:00 1.725 C 5.02 g/m*3 1.73 C 0 km/h
2036 19-02-2019 01:00:00 1.83333 C 5.1 g/m*3 1.83 C 0 km/h
2037 19-02-2019 02:00:00 1.85 C 5.13 g/m*3 1.85 C 0 km/h
2038 19-02-2019 03:00:00 2.34167 C 5.37 g/m*3 2.34 C 0.93333 km/h
2039 19-02-2019 04:00:00 3.7 C 5.86 g/m*3 3.7 C 4.41667 km/h
2040 19-02-2019 05:00:00 4.04167 C 5.79 g/m*3 4.04 C 2.93333 km/h
2041 19-02-2019 06:00:00 4.99167 C 5.96 g/m*3 4.99 C 4.41667 km/h
2042 19-02-2019 07:00:00 5.2 C 6.21 g/m*3 5.2 C 2.93333 km/h
2043 19-02-2019 08:00:00 4.89167 C 6.27 g/m*3 4.89 C 1.06667 km/h
2044 19-02-2019 09:00:00 5.25 C 6.55 g/m*3 4.28 C 5.225 km/h
2045 19-02-2019 10:00:00 6.34167 C 7 g/m*3 4.59 C 8.48333 km/h
2046 19-02-2019 11:00:00 7.28333 C 7.31 g/m*3 5.93 C 7.53333 km/h
2047 19-02-2019 12:00:00 8.71667 C 7.61 g/m*3 8.07 C 5.75833 km/h
2048 19-02-2019 13:00:00 9.94167 C 7.5 g/m*3 8.69 C 9.29167 km/h
2049 19-02-2019 14:00:00 10.65 C 7.29 g/m*3 9.26 C 10.9 km/h
2050 19-02-2019 15:00:00 10.94167 C 7.23 g/m*3 10.05 C 8.34167 km/h
Sensor: Nr:Datum:Temp:Abs-Feuchte:Windchill:Wind:
Aussen-T/F 2051 19-02-2019 16:00:00 10.9 C 7.18 g/m*3 10.28 C 6.98333 km/h
2052 19-02-2019 17:00:00 9.69167 C 6.87 g/m*3 9.69 C 4.15833 km/h
2053 19-02-2019 18:00:00 7.28333 C 6.56 g/m*3 7.28 C 4.54167 km/h
2054 19-02-2019 19:00:00 6.225 C 6.41 g/m*3 6.23 C 4.13333 km/h
2055 19-02-2019 20:00:00 5.44167 C 6.24 g/m*3 5.44 C 3.33333 km/h
2056 19-02-2019 21:00:00 4.85 C 6.03 g/m*3 4.85 C 0.53333 km/h
2057 19-02-2019 22:00:00 3.46667 C 5.6 g/m*3 3.47 C 0.66667 km/h
2058 19-02-2019 23:00:00 3.05 C 5.53 g/m*3 3.05 C 0.66667 km/h
2059 20-02-2019 00:00:00 2.6 C 5.4 g/m*3 2.6 C 0.8 km/h
2060 20-02-2019 01:00:00 1.78333 C 5.11 g/m*3 1.78 C 0 km/h
2061 20-02-2019 02:00:00 1.19167 C 4.96 g/m*3 1.19 C 0.13333 km/h
2062 20-02-2019 03:00:00 1.1 C 4.96 g/m*3 1.1 C 1.2 km/h
2063 20-02-2019 04:00:00 0.875 C 4.89 g/m*3 0.88 C 0.66667 km/h
2064 20-02-2019 05:00:00 1 C 4.96 g/m*3 1 C 1.06667 km/h
2065 20-02-2019 06:00:00 0.86667 C 4.92 g/m*3 0.87 C 0.4 km/h
2066 20-02-2019 07:00:00 0.73333 C 4.89 g/m*3 0.73 C 1.2 km/h
2067 20-02-2019 08:00:00 1.30833 C 5.11 g/m*3 1.31 C 2.41667 km/h
2068 20-02-2019 09:00:00 3.09167 C 5.78 g/m*3 0.06 C 11.43333 km/h
2069 20-02-2019 10:00:00 4.40833 C 6.25 g/m*3 1.7 C 11.16667 km/h
2070 20-02-2019 11:00:00 6.075 C 6.72 g/m*3 3.9 C 10.225 km/h
2071 20-02-2019 12:00:00 7.49167 C 7.04 g/m*3 6.21 C 7.36667 km/h
2072 20-02-2019 13:00:00 9.86667 C 7.29 g/m*3 8.2 C 11.7 km/h
2073 20-02-2019 14:00:00 10.85833 C 7.37 g/m*3 9.95 C 8.325 km/h
2074 20-02-2019 15:00:00 11.08333 C 7.35 g/m*3 11.08 C 6.15833 km/h
2075 20-02-2019 16:00:00 11.375 C 7.3 g/m*3 11.38 C 6.84167 km/h
Sensor: Nr:Datum:Temp:Abs-Feuchte:Windchill:Wind:
Aussen-T/F 2076 20-02-2019 17:00:00 10.35 C 7.12 g/m*3 10.35 C 3.875 km/h
2077 20-02-2019 18:00:00 7.29167 C 6.63 g/m*3 7.29 C 3.86667 km/h
2078 20-02-2019 19:00:00 6.16667 C 6.43 g/m*3 6.17 C 2.53333 km/h
2079 20-02-2019 20:00:00 4.86667 C 6.04 g/m*3 4.87 C 0.26667 km/h
2080 20-02-2019 21:00:00 3.775 C 5.73 g/m*3 3.78 C 0 km/h
2081 20-02-2019 22:00:00 2.7 C 5.41 g/m*3 2.7 C 0 km/h
2082 20-02-2019 23:00:00 2.10833 C 5.28 g/m*3 2.11 C 0.13333 km/h
2083 21-02-2019 00:00:00 1.575 C 5.1 g/m*3 1.58 C 0 km/h
2084 21-02-2019 01:00:00 1.58333 C 5.14 g/m*3 1.58 C 0.26667 km/h
2085 21-02-2019 02:00:00 1.06667 C 4.96 g/m*3 1.07 C 0 km/h
2086 21-02-2019 03:00:00 0.74167 C 4.89 g/m*3 0.74 C 0.26667 km/h
2087 21-02-2019 04:00:00 0.91667 C 4.95 g/m*3 0.92 C 1.33333 km/h
2088 21-02-2019 05:00:00 1.06667 C 5.02 g/m*3 1.07 C 1.2 km/h
2089 21-02-2019 06:00:00 1.25 C 5.08 g/m*3 1.25 C 0.93333 km/h
2090 21-02-2019 07:00:00 1.21667 C 5.08 g/m*3 1.22 C 0.4 km/h
2091 21-02-2019 08:00:00 2.10833 C 5.43 g/m*3 2.11 C 0.4 km/h
2092 21-02-2019 09:00:00 2.84167 C 5.71 g/m*3 2.84 C 0.66667 km/h
2093 21-02-2019 10:00:00 3.91667 C 6.13 g/m*3 3.92 C 1.2 km/h
2094 21-02-2019 11:00:00 5.725 C 6.76 g/m*3 5.73 C 0.93333 km/h
2095 21-02-2019 12:00:00 8.33333 C 7.59 g/m*3 8.33 C 2.94167 km/h
2096 21-02-2019 13:00:00 11.3 C 8.35 g/m*3 11.3 C 6.29167 km/h
2097 21-02-2019 14:00:00 12.6 C 8.52 g/m*3 12.6 C 6.30833 km/h
2098 21-02-2019 15:00:00 13.325 C 8.59 g/m*3 13.33 C 6.44167 km/h
2099 21-02-2019 16:00:00 13.34167 C 8.58 g/m*3 13.34 C 5.49167 km/h
2100 21-02-2019 17:00:00 12.48333 C 8.77 g/m*3 12.48 C 2.13333 km/h
Sensor: Nr:Datum:Temp:Abs-Feuchte:Windchill:Wind:
Aussen-T/F 2101 21-02-2019 18:00:00 10.56667 C 8.39 g/m*3 10.57 C 2.4 km/h
2102 21-02-2019 19:00:00 9.74167 C 8.06 g/m*3 9.74 C 3.46667 km/h
2103 21-02-2019 20:00:00 9.18333 C 7.98 g/m*3 9.18 C 0.53333 km/h
2104 21-02-2019 21:00:00 9.325 C 8.15 g/m*3 9.32 C 0.66667 km/h
2105 21-02-2019 22:00:00 9.275 C 8.01 g/m*3 9.28 C 0.13333 km/h
2106 21-02-2019 23:00:00 9.21667 C 7.99 g/m*3 9.22 C 1.6 km/h
2107 22-02-2019 00:00:00 9.575 C 8.12 g/m*3 9.57 C 2.675 km/h
2108 22-02-2019 01:00:00 9.76667 C 8.17 g/m*3 9.77 C 0.4 km/h
2109 22-02-2019 02:00:00 9.325 C 8.12 g/m*3 9.32 C 0.53333 km/h
2110 22-02-2019 03:00:00 9.55 C 8.41 g/m*3 9.55 C 0.53333 km/h
2111 22-02-2019 04:00:00 9.66667 C 8.55 g/m*3 9.67 C 0.53333 km/h
2112 22-02-2019 05:00:00 9.34167 C 8.49 g/m*3 9.34 C 0.53333 km/h
2113 22-02-2019 06:00:00 9.34167 C 8.56 g/m*3 9.34 C 2.13333 km/h
2114 22-02-2019 07:00:00 9.225 C 8.53 g/m*3 9.23 C 0.53333 km/h
2115 22-02-2019 08:00:00 9.16667 C 8.55 g/m*3 9.17 C 0.66667 km/h
2116 22-02-2019 09:00:00 9.50833 C 8.74 g/m*3 9.51 C 0.13333 km/h
2117 22-02-2019 10:00:00 9.93333 C 8.98 g/m*3 9.93 C 0 km/h
2118 22-02-2019 11:00:00 10.64167 C 9.28 g/m*3 10.64 C 1.86667 km/h
2119 22-02-2019 12:00:00 11.6 C 9.14 g/m*3 11.6 C 5.1 km/h
2120 22-02-2019 13:00:00 12.46667 C 9.01 g/m*3 12.47 C 4.26667 km/h
2121 22-02-2019 14:00:00 12.83333 C 8.75 g/m*3 12.83 C 2.8 km/h
2122 22-02-2019 15:00:00 13.275 C 8.57 g/m*3 13.28 C 1.33333 km/h
2123 22-02-2019 16:00:00 12.84167 C 8.24 g/m*3 12.84 C 1.86667 km/h
2124 22-02-2019 17:00:00 11.825 C 8.03 g/m*3 11.83 C 0.26667 km/h
2125 22-02-2019 18:00:00 9.075 C 7.36 g/m*3 9.07 C 1.73333 km/h
Sensor: Nr:Datum:Temp:Abs-Feuchte:Windchill:Wind:
Aussen-T/F 2126 22-02-2019 19:00:00 8.55 C 7.38 g/m*3 8.55 C 4.13333 km/h
2127 22-02-2019 20:00:00 8.99167 C 7.52 g/m*3 8.99 C 1.46667 km/h
2128 22-02-2019 21:00:00 8.475 C 7.35 g/m*3 8.48 C 2.53333 km/h
2129 22-02-2019 22:00:00 6.94167 C 6.86 g/m*3 6.94 C 3.06667 km/h
2130 22-02-2019 23:00:00 5.95 C 6.63 g/m*3 5.95 C 2.66667 km/h
2131 23-02-2019 00:00:00 5.31667 C 6.41 g/m*3 5.32 C 0.8 km/h
2132 23-02-2019 01:00:00 4.55 C 6.15 g/m*3 4.55 C 0 km/h
2133 23-02-2019 02:00:00 4.18333 C 6.05 g/m*3 4.18 C 0 km/h
2134 23-02-2019 03:00:00 3.81667 C 5.96 g/m*3 3.82 C 0.93333 km/h
2135 23-02-2019 04:00:00 4.26667 C 6.15 g/m*3 4.27 C 1.33333 km/h
2136 23-02-2019 05:00:00 4.525 C 6.16 g/m*3 4.53 C 4.025 km/h
2137 23-02-2019 06:00:00 4.83333 C 6.04 g/m*3 4.83 C 0.93333 km/h
2138 23-02-2019 07:00:00 4.79167 C 5.83 g/m*3 4.79 C 1.6 km/h
2139 23-02-2019 08:00:00 4.85 C 5.72 g/m*3 4.85 C 3.74167 km/h
2140 23-02-2019 09:00:00 4.775 C 5.58 g/m*3 2.75 C 8.48333 km/h
2141 23-02-2019 10:00:00 4.95 C 5.54 g/m*3 3.9 C 5.34167 km/h
2142 23-02-2019 11:00:00 6.125 C 5.78 g/m*3 5.05 C 5.89167 km/h
2143 23-02-2019 12:00:00 7.625 C 5.84 g/m*3 6.17 C 8.20833 km/h
2144 23-02-2019 13:00:00 9.05833 C 5.91 g/m*3 7.61 C 9.41667 km/h
2145 23-02-2019 14:00:00 10.01667 C 5.59 g/m*3 9.38 C 6.43333 km/h
2146 23-02-2019 15:00:00 10.78333 C 4.42 g/m*3 10.58 C 5.21667 km/h
2147 23-02-2019 16:00:00 10.71667 C 4.63 g/m*3 10.72 C 3.2 km/h
2148 23-02-2019 17:00:00 7.99167 C 5.22 g/m*3 7.99 C 2.13333 km/h
2149 23-02-2019 18:00:00 5.45833 C 4.97 g/m*3 5.46 C 0 km/h
2150 23-02-2019 19:00:00 4.36667 C 4.82 g/m*3 4.37 C 0 km/h
Sensor: Nr:Datum:Temp:Abs-Feuchte:Windchill:Wind:
Aussen-T/F 2151 23-02-2019 20:00:00 3.38333 C 4.64 g/m*3 3.38 C 0 km/h
2152 23-02-2019 21:00:00 2.03333 C 4.42 g/m*3 2.03 C 0 km/h
2153 23-02-2019 22:00:00 0.98333 C 4.29 g/m*3 0.98 C 0 km/h
2154 23-02-2019 23:00:00 0.45833 C 4.18 g/m*3 0.46 C 0 km/h
2155 24-02-2019 00:00:00 -0.25833 C 4.07 g/m*3 -0.26 C 0 km/h
2156 24-02-2019 01:00:00 -0.66667 C 4.03 g/m*3 -0.67 C 0 km/h
2157 24-02-2019 02:00:00 -1.16667 C 3.93 g/m*3 -1.17 C 0 km/h
2158 24-02-2019 03:00:00 -1.5 C 3.89 g/m*3 -1.5 C 0 km/h
2159 24-02-2019 04:00:00 -1.73333 C 3.87 g/m*3 -1.73 C 0 km/h
2160 24-02-2019 05:00:00 -1.875 C 3.83 g/m*3 -1.88 C 0 km/h
2161 24-02-2019 06:00:00 -2.06667 C 3.8 g/m*3 -2.07 C 0 km/h
2162 24-02-2019 07:00:00 -2.35833 C 3.75 g/m*3 -2.36 C 0 km/h
2163 24-02-2019 08:00:00 -2.10833 C 3.85 g/m*3 -2.11 C 0 km/h
2164 24-02-2019 09:00:00 -1.49167 C 4.01 g/m*3 -1.49 C 0 km/h
2165 24-02-2019 10:00:00 0.36667 C 4.41 g/m*3 0.37 C 0 km/h
2166 24-02-2019 11:00:00 4.09167 C 4.98 g/m*3 4.09 C 0 km/h
2167 24-02-2019 12:00:00 7.35 C 5.24 g/m*3 7.35 C 0 km/h
2168 24-02-2019 13:00:00 10.45833 C 4.27 g/m*3 10.46 C 4.40833 km/h
2169 24-02-2019 14:00:00 11.89167 C 3.86 g/m*3 11.89 C 6.7 km/h
2170 24-02-2019 15:00:00 12.41667 C 4.27 g/m*3 12.42 C 2.8 km/h
2171 24-02-2019 16:00:00 11.80833 C 4.9 g/m*3 11.81 C 3.2 km/h
2172 24-02-2019 17:00:00 10.3 C 5.02 g/m*3 10.3 C 0.4 km/h
2173 24-02-2019 18:00:00 8.44167 C 4.82 g/m*3 8.44 C 4 km/h
2174 24-02-2019 19:00:00 6.86667 C 4.69 g/m*3 6.87 C 3.73333 km/h
2175 24-02-2019 20:00:00 4.93333 C 4.49 g/m*3 4.93 C 0.26667 km/h
Sensor: Nr:Datum:Temp:Abs-Feuchte:Windchill:Wind:
Aussen-T/F 2176 24-02-2019 21:00:00 3.36667 C 4.36 g/m*3 3.37 C 0 km/h
2177 24-02-2019 22:00:00 2.54167 C 4.29 g/m*3 2.54 C 0 km/h
2178 24-02-2019 23:00:00 1.81667 C 4.23 g/m*3 1.82 C 0 km/h
2179 25-02-2019 00:00:00 1.175 C 4.15 g/m*3 1.18 C 0 km/h
2180 25-02-2019 01:00:00 0.925 C 4.18 g/m*3 0.93 C 0 km/h
2181 25-02-2019 02:00:00 0.13333 C 4.09 g/m*3 0.13 C 0 km/h
2182 25-02-2019 03:00:00 -0.00833 C 4.07 g/m*3 -0.01 C 0 km/h
2183 25-02-2019 04:00:00 -0.58333 C 4.01 g/m*3 -0.58 C 0 km/h
2184 25-02-2019 05:00:00 -0.70833 C 4.02 g/m*3 -0.71 C 0.66667 km/h
2185 25-02-2019 06:00:00 -0.86667 C 4.01 g/m*3 -0.87 C 0.13333 km/h
2186 25-02-2019 07:00:00 -1.21667 C 3.93 g/m*3 -1.22 C 0 km/h
2187 25-02-2019 08:00:00 -1.2 C 4 g/m*3 -1.2 C 0 km/h
2188 25-02-2019 09:00:00 -0.69167 C 4.1 g/m*3 -0.69 C 0 km/h
2189 25-02-2019 10:00:00 0.81667 C 4.46 g/m*3 0.82 C 0 km/h
2190 25-02-2019 11:00:00 4.675 C 5.17 g/m*3 4.68 C 1.06667 km/h
2191 25-02-2019 12:00:00 8.70833 C 5.81 g/m*3 8.71 C 1.06667 km/h
2192 25-02-2019 13:00:00 12.55 C 5.88 g/m*3 12.55 C 0.26667 km/h
2193 25-02-2019 14:00:00 14.74167 C 5.89 g/m*3 14.74 C 1.86667 km/h
2194 25-02-2019 15:00:00 14.175 C 6.05 g/m*3 14.18 C 1.73333 km/h
2195 25-02-2019 16:00:00 14.375 C 6.12 g/m*3 14.38 C 2.13333 km/h
2196 25-02-2019 17:00:00 13.64167 C 6.24 g/m*3 13.64 C 5.6 km/h
2197 25-02-2019 18:00:00 11.1 C 6.03 g/m*3 11.1 C 5.6 km/h
2198 25-02-2019 19:00:00 9.075 C 5.92 g/m*3 9.07 C 0.4 km/h
2199 25-02-2019 20:00:00 7.04167 C 5.67 g/m*3 7.04 C 0 km/h
2200 25-02-2019 21:00:00 5.575 C 5.41 g/m*3 5.58 C 0 km/h
Sensor: Nr:Datum:Temp:Abs-Feuchte:Windchill:Wind:
Aussen-T/F 2201 25-02-2019 22:00:00 4.55 C 5.24 g/m*3 4.55 C 0 km/h
2202 25-02-2019 23:00:00 3.25 C 5.05 g/m*3 3.25 C 0 km/h
2203 26-02-2019 00:00:00 2.425 C 4.92 g/m*3 2.42 C 0 km/h
2204 26-02-2019 01:00:00 1.93333 C 4.91 g/m*3 1.93 C 0 km/h
2205 26-02-2019 02:00:00 1.39167 C 4.78 g/m*3 1.39 C 0 km/h
2206 26-02-2019 03:00:00 0.63333 C 4.61 g/m*3 0.63 C 0 km/h
2207 26-02-2019 04:00:00 0.325 C 4.56 g/m*3 0.33 C 0 km/h
2208 26-02-2019 05:00:00 0.21667 C 4.58 g/m*3 0.22 C 0.8 km/h
2209 26-02-2019 06:00:00 -0.31667 C 4.4 g/m*3 -0.32 C 0.13333 km/h
2210 26-02-2019 07:00:00 -0.48333 C 4.39 g/m*3 -0.48 C 0.13333 km/h
2211 26-02-2019 08:00:00 -0.10833 C 4.54 g/m*3 -0.11 C 0.53333 km/h
2212 26-02-2019 09:00:00 0.80833 C 4.85 g/m*3 0.81 C 0.13333 km/h
2213 26-02-2019 10:00:00 2.60833 C 5.47 g/m*3 2.61 C 0.13333 km/h
2214 26-02-2019 11:00:00 5.75 C 6.19 g/m*3 5.75 C 0 km/h
2215 26-02-2019 12:00:00 9.50833 C 6.6 g/m*3 9.51 C 0 km/h
2216 26-02-2019 13:00:00 13.85833 C 7.8 g/m*3 13.86 C 0 km/h
2217 26-02-2019 14:00:00 16.15833 C 7.61 g/m*3 16.16 C 0 km/h
2218 26-02-2019 15:00:00 15.49167 C 7.3 g/m*3 15.49 C 0 km/h
2219 26-02-2019 16:00:00 15.44167 C 7.31 g/m*3 15.44 C 3.33333 km/h
2220 26-02-2019 17:00:00 14.75833 C 7.39 g/m*3 14.76 C 6.13333 km/h
2221 26-02-2019 18:00:00 12.56667 C 7.02 g/m*3 12.57 C 4.93333 km/h
2222 26-02-2019 19:00:00 10.34167 C 6.85 g/m*3 10.34 C 0.53333 km/h
2223 26-02-2019 20:00:00 8.18333 C 6.39 g/m*3 8.18 C 0 km/h
2224 26-02-2019 21:00:00 6.8 C 6.19 g/m*3 6.8 C 0 km/h
2225 26-02-2019 22:00:00 5.61667 C 5.93 g/m*3 5.62 C 0 km/h
Sensor: Nr:Datum:Temp:Abs-Feuchte:Windchill:Wind:
Aussen-T/F 2226 26-02-2019 23:00:00 4.56667 C 5.74 g/m*3 4.57 C 0 km/h
2227 27-02-2019 00:00:00 3.55833 C 5.51 g/m*3 3.56 C 0 km/h
2228 27-02-2019 01:00:00 2.85 C 5.36 g/m*3 2.85 C 0 km/h
2229 27-02-2019 02:00:00 2.25 C 5.22 g/m*3 2.25 C 0 km/h
2230 27-02-2019 03:00:00 1.45833 C 4.98 g/m*3 1.46 C 0 km/h
2231 27-02-2019 04:00:00 0.78333 C 4.8 g/m*3 0.78 C 0 km/h
2232 27-02-2019 05:00:00 0.5 C 4.74 g/m*3 0.5 C 0 km/h
2233 27-02-2019 06:00:00 0.125 C 4.64 g/m*3 0.13 C 0 km/h
2234 27-02-2019 07:00:00 -0.375 C 4.49 g/m*3 -0.38 C 0 km/h
2235 27-02-2019 08:00:00 -0.25833 C 4.55 g/m*3 -0.26 C 0 km/h
2236 27-02-2019 09:00:00 0.41667 C 4.79 g/m*3 0.42 C 0 km/h
2237 27-02-2019 10:00:00 2.4 C 5.52 g/m*3 2.4 C 0 km/h
2238 27-02-2019 11:00:00 5.5 C 6.68 g/m*3 5.5 C 0 km/h
2239 27-02-2019 12:00:00 9.75833 C 7.66 g/m*3 9.76 C 0 km/h
2240 27-02-2019 13:00:00 14.69167 C 8.26 g/m*3 14.69 C 0 km/h
2241 27-02-2019 14:00:00 17.19167 C 7.64 g/m*3 17.19 C 0 km/h
2242 27-02-2019 15:00:00 16.10833 C 7.05 g/m*3 16.11 C 0.93333 km/h
2243 27-02-2019 16:00:00 16.25 C 7 g/m*3 16.25 C 4.4 km/h
2244 27-02-2019 17:00:00 15.71667 C 6.83 g/m*3 15.72 C 6.13333 km/h
2245 27-02-2019 18:00:00 13.55833 C 6.44 g/m*3 13.56 C 4.55833 km/h
2246 27-02-2019 19:00:00 10.89167 C 6.35 g/m*3 10.89 C 0 km/h
2247 27-02-2019 20:00:00 8.7 C 6.09 g/m*3 8.7 C 0 km/h
2248 27-02-2019 21:00:00 6.8 C 5.79 g/m*3 6.8 C 0 km/h
2249 27-02-2019 22:00:00 5.55 C 5.67 g/m*3 5.55 C 0 km/h
2250 27-02-2019 23:00:00 4.83333 C 5.55 g/m*3 4.83 C 0 km/h
Sensor: Nr:Datum:Temp:Abs-Feuchte:Windchill:Wind:
Aussen-T/F 2251 28-02-2019 00:00:00 5.35 C 5.77 g/m*3 5.35 C 2.4 km/h
2252 28-02-2019 01:00:00 4.93333 C 5.54 g/m*3 4.93 C 0.4 km/h
2253 28-02-2019 02:00:00 3.675 C 5.4 g/m*3 3.68 C 3.20833 km/h
2254 28-02-2019 03:00:00 2.94167 C 5.27 g/m*3 2.94 C 2.66667 km/h
2255 28-02-2019 04:00:00 2.275 C 5.11 g/m*3 2.28 C 2.53333 km/h
2256 28-02-2019 05:00:00 2.35833 C 5.18 g/m*3 2.36 C 3.35 km/h
2257 28-02-2019 06:00:00 3.21667 C 5.45 g/m*3 1.38 C 6.85833 km/h
2258 28-02-2019 07:00:00 3.75 C 5.43 g/m*3 2.47 C 5.5 km/h
2259 28-02-2019 08:00:00 3.075 C 5.38 g/m*3 3.08 C 3.075 km/h
2260 28-02-2019 09:00:00 4.68333 C 5.92 g/m*3 4.68 C 3.34167 km/h
2261 28-02-2019 10:00:00 7.65833 C 6.83 g/m*3 6.03 C 9.01667 km/h
2262 28-02-2019 11:00:00 11.56667 C 7.5 g/m*3 11.57 C 12.63333 km/h
2263 28-02-2019 12:00:00 13.26667 C 7.75 g/m*3 13.27 C 11.16667 km/h
2264 28-02-2019 13:00:00 14.95833 C 8.12 g/m*3 14.96 C 11.56667 km/h
2265 28-02-2019 14:00:00 16.61667 C 8.6 g/m*3 16.62 C 12.89167 km/h
2266 28-02-2019 15:00:00 16.76667 C 8.7 g/m*3 16.77 C 11.15 km/h
2267 28-02-2019 16:00:00 15.20833 C 8.3 g/m*3 15.21 C 17.175 km/h
2268 28-02-2019 17:00:00 12.73333 C 7.56 g/m*3 12.73 C 18.10833 km/h
2269 28-02-2019 18:00:00 12.13333 C 7.68 g/m*3 12.13 C 9.425 km/h
2270 28-02-2019 19:00:00 11.26667 C 7.7 g/m*3 11.27 C 8.86667 km/h
2271 28-02-2019 20:00:00 11.09167 C 7.91 g/m*3 11.09 C 11.43333 km/h
2272 28-02-2019 21:00:00 10.975 C 8.07 g/m*3 9.52 C 11.83333 km/h
2273 28-02-2019 22:00:00 10.84167 C 8.1 g/m*3 9.6 C 10.20833 km/h
2274 28-02-2019 23:00:00 10.26667 C 8.27 g/m*3 9.03 C 9.525 km/h
2275 01-03-2019 00:00:00 9.075 C 8.14 g/m*3 9.07 C 4.68333 km/h
Sensor: Nr:Datum:Temp:Abs-Feuchte:Windchill:Wind:
Aussen-T/F 2276 01-03-2019 01:00:00 8.68333 C 8.1 g/m*3 8.68 C 4.675 km/h
2277 01-03-2019 02:00:00 8.69167 C 8.07 g/m*3 7.15 C 9.55 km/h
2278 01-03-2019 03:00:00 8.8 C 7.96 g/m*3 7.33 C 9.275 km/h
2279 01-03-2019 04:00:00 8.75833 C 7.9 g/m*3 8.12 C 5.75 km/h
2280 01-03-2019 05:00:00 8.63333 C 7.9 g/m*3 8.63 C 3.60833 km/h
2281 01-03-2019 06:00:00 8.20833 C 7.84 g/m*3 8.21 C 3.475 km/h
2282 01-03-2019 07:00:00 8.21667 C 7.96 g/m*3 8.22 C 3.60833 km/h
2283 01-03-2019 08:00:00 8.53333 C 8.13 g/m*3 8.53 C 2.8 km/h
2284 01-03-2019 09:00:00 8.68333 C 8.21 g/m*3 8.68 C 0.8 km/h
2285 01-03-2019 10:00:00 8.66667 C 8.28 g/m*3 8.67 C 0.26667 km/h
2286 01-03-2019 11:00:00 8.75833 C 8.25 g/m*3 8.76 C 2.66667 km/h
2287 01-03-2019 12:00:00 9.01667 C 8.07 g/m*3 7.09 C 12.21667 km/h
2288 01-03-2019 13:00:00 8.49167 C 7.81 g/m*3 6.79 C 10.19167 km/h
2289 01-03-2019 14:00:00 8.38333 C 7.66 g/m*3 7 C 8.475 km/h
2290 01-03-2019 15:00:00 8.325 C 7.57 g/m*3 7.65 C 5.63333 km/h
2291 01-03-2019 16:00:00 8.34167 C 7.65 g/m*3 8.34 C 4.68333 km/h
2292 01-03-2019 17:00:00 8.28333 C 7.66 g/m*3 8.28 C 3.21667 km/h
2293 01-03-2019 18:00:00 7.61667 C 7.21 g/m*3 5.35 C 12.5 km/h
2294 01-03-2019 19:00:00 6.9 C 6.92 g/m*3 5.29 C 8.31667 km/h
2295 01-03-2019 20:00:00 6.625 C 6.88 g/m*3 6.63 C 1.73333 km/h
2296 01-03-2019 21:00:00 6.45 C 6.78 g/m*3 6.45 C 1.2 km/h
2297 01-03-2019 22:00:00 6.375 C 6.71 g/m*3 6.38 C 1.73333 km/h
2298 01-03-2019 23:00:00 6.53333 C 6.66 g/m*3 6.53 C 0.93333 km/h
2299 02-03-2019 00:00:00 6.19167 C 6.55 g/m*3 6.19 C 4.30833 km/h
2300 02-03-2019 01:00:00 5.85 C 6.4 g/m*3 5.85 C 1.6 km/h
Sensor: Nr:Datum:Temp:Abs-Feuchte:Windchill:Wind:
Aussen-T/F 2301 02-03-2019 02:00:00 5.64167 C 6.43 g/m*3 5.64 C 0.93333 km/h
2302 02-03-2019 03:00:00 5.65 C 6.43 g/m*3 5.65 C 1.46667 km/h
2303 02-03-2019 04:00:00 5.7 C 6.47 g/m*3 5.7 C 0.26667 km/h
2304 02-03-2019 05:00:00 6.10833 C 6.65 g/m*3 6.11 C 4.80833 km/h
2305 02-03-2019 06:00:00 6.30833 C 6.74 g/m*3 6.31 C 3.73333 km/h
2306 02-03-2019 07:00:00 6.65 C 6.89 g/m*3 6.65 C 4.68333 km/h
2307 02-03-2019 08:00:00 7.01667 C 7.01 g/m*3 7.02 C 4.94167 km/h
2308 02-03-2019 09:00:00 7.66667 C 7.19 g/m*3 5.96 C 9.41667 km/h
2309 02-03-2019 10:00:00 8.05 C 7.28 g/m*3 6.73 C 7.925 km/h
2310 02-03-2019 11:00:00 8.99167 C 7.53 g/m*3 7.61 C 9.025 km/h
2311 02-03-2019 12:00:00 9.94167 C 7.75 g/m*3 8.71 C 9.16667 km/h
2312 02-03-2019 13:00:00 10.63333 C 7.82 g/m*3 9.66 C 8.475 km/h
2313 02-03-2019 14:00:00 11.40833 C 7.76 g/m*3 11.41 C 6.975 km/h
2314 02-03-2019 15:00:00 11.925 C 7.67 g/m*3 11.93 C 8.75 km/h
2315 02-03-2019 16:00:00 12.35 C 7.67 g/m*3 12.35 C 10.625 km/h
2316 02-03-2019 17:00:00 11.35833 C 7.73 g/m*3 11.36 C 14.5 km/h
2317 02-03-2019 18:00:00 10.55 C 7.84 g/m*3 9.09 C 11.28333 km/h
2318 02-03-2019 19:00:00 9.84167 C 8 g/m*3 8.11 C 12.1 km/h
2319 02-03-2019 20:00:00 9.53333 C 7.96 g/m*3 7.84 C 11.41667 km/h
2320 02-03-2019 21:00:00 9.83333 C 8.13 g/m*3 7.98 C 12.9 km/h
2321 02-03-2019 22:00:00 10.25 C 8.11 g/m*3 8.53 C 12.61667 km/h
2322 02-03-2019 23:00:00 9.96667 C 7.8 g/m*3 8.58 C 10.08333 km/h
2323 03-03-2019 00:00:00 9.05833 C 7.33 g/m*3 8.49 C 5.63333 km/h
2324 03-03-2019 01:00:00 9.175 C 7.6 g/m*3 7.47 C 11.00833 km/h
2325 03-03-2019 02:00:00 9.98333 C 7.63 g/m*3 8.19 C 12.74167 km/h
Sensor: Nr:Datum:Temp:Abs-Feuchte:Windchill:Wind:
Aussen-T/F 2326 03-03-2019 03:00:00 10 C 7.61 g/m*3 8.3 C 12.09167 km/h
2327 03-03-2019 04:00:00 10.225 C 7.71 g/m*3 8.5 C 12.63333 km/h
2328 03-03-2019 05:00:00 10.20833 C 7.6 g/m*3 8.39 C 13.28333 km/h
2329 03-03-2019 06:00:00 10.10833 C 7.65 g/m*3 8.51 C 11.55 km/h
2330 03-03-2019 07:00:00 10.13333 C 7.68 g/m*3 8.28 C 13.425 km/h
2331 03-03-2019 08:00:00 10.31667 C 7.81 g/m*3 7.58 C 22.11667 km/h
2332 03-03-2019 09:00:00 10.875 C 8.06 g/m*3 8.13 C 24.125 km/h
2333 03-03-2019 10:00:00 11.15833 C 8.19 g/m*3 11.16 C 26.01667 km/h
2334 03-03-2019 11:00:00 11.00833 C 8.21 g/m*3 11.01 C 15.16667 km/h
2335 03-03-2019 12:00:00 11.225 C 8.33 g/m*3 11.23 C 16.36667 km/h
2336 03-03-2019 13:00:00 11.73333 C 8.44 g/m*3 11.73 C 11.15833 km/h
2337 03-03-2019 14:00:00 11.79167 C 8.42 g/m*3 11.79 C 13.15833 km/h
2338 03-03-2019 15:00:00 11.7 C 8.5 g/m*3 11.7 C 14.625 km/h
2339 03-03-2019 16:00:00 11.7 C 8.52 g/m*3 11.7 C 14.36667 km/h
2340 03-03-2019 17:00:00 11.9 C 8.41 g/m*3 11.9 C 13.43333 km/h
2341 03-03-2019 18:00:00 12.18333 C 8.35 g/m*3 12.18 C 14.5 km/h
2342 03-03-2019 19:00:00 12.28333 C 8.23 g/m*3 12.28 C 13.83333 km/h
2343 03-03-2019 20:00:00 12.33333 C 8.27 g/m*3 12.33 C 14.36667 km/h
2344 03-03-2019 21:00:00 12.33333 C 8.39 g/m*3 12.33 C 21.05 km/h
2345 03-03-2019 22:00:00 12.525 C 8.43 g/m*3 12.53 C 18.36667 km/h
2346 03-03-2019 23:00:00 12.75833 C 8.24 g/m*3 12.76 C 6.43333 km/h
2347 04-03-2019 00:00:00 13.10833 C 8.13 g/m*3 13.11 C 8.33333 km/h
2348 04-03-2019 01:00:00 13.50833 C 8.02 g/m*3 13.51 C 13.54167 km/h
2349 04-03-2019 02:00:00 12.66667 C 8.38 g/m*3 12.67 C 27.74167 km/h
2350 04-03-2019 03:00:00 11.79167 C 8.46 g/m*3 11.79 C 18.10833 km/h
Sensor: Nr:Datum:Temp:Abs-Feuchte:Windchill:Wind:
Aussen-T/F 2351 04-03-2019 04:00:00 11.675 C 8.51 g/m*3 11.68 C 10.75 km/h
2352 04-03-2019 05:00:00 11.63333 C 8.34 g/m*3 11.63 C 9.26667 km/h
2353 04-03-2019 06:00:00 11.45 C 8.13 g/m*3 11.45 C 12.20833 km/h
2354 04-03-2019 07:00:00 12 C 7.87 g/m*3 12 C 16.9 km/h
2355 04-03-2019 08:00:00 11.49167 C 7.55 g/m*3 11.49 C 31.91667 km/h
2356 04-03-2019 09:00:00 9.39167 C 6.9 g/m*3 6.12 C 25.475 km/h
2357 04-03-2019 10:00:00 9.90833 C 7.15 g/m*3 6.92 C 23.85833 km/h
2358 04-03-2019 11:00:00 11.23333 C 7.03 g/m*3 11.23 C 27.36667 km/h
2359 04-03-2019 12:00:00 10.98333 C 7.29 g/m*3 8.02 C 27.63333 km/h
2360 04-03-2019 13:00:00 9.73333 C 7.77 g/m*3 6.6 C 24.925 km/h
2361 04-03-2019 14:00:00 9.44167 C 7.56 g/m*3 6.35 C 23.44167 km/h
2362 04-03-2019 15:00:00 7.1 C 6.58 g/m*3 4.35 C 14.9 km/h
2363 04-03-2019 16:00:00 7.54167 C 6.39 g/m*3 4.79 C 15.7 km/h
2364 04-03-2019 17:00:00 7.4 C 6.26 g/m*3 5.15 C 12.1 km/h
2365 04-03-2019 18:00:00 6.96667 C 6.22 g/m*3 4.79 C 11.15 km/h
2366 04-03-2019 19:00:00 6.86667 C 6.25 g/m*3 4.1 C 14.63333 km/h
2367 04-03-2019 20:00:00 6.95 C 6.29 g/m*3 4.51 C 12.625 km/h
2368 04-03-2019 21:00:00 6.61667 C 6.29 g/m*3 4.54 C 10.225 km/h
2369 04-03-2019 22:00:00 7.09167 C 6.45 g/m*3 4.2 C 15.96667 km/h
2370 04-03-2019 23:00:00 6.7 C 6.36 g/m*3 4.47 C 11.13333 km/h
2371 05-03-2019 00:00:00 6.875 C 6.26 g/m*3 4.45 C 12.475 km/h
2372 05-03-2019 01:00:00 6.875 C 6.19 g/m*3 4.38 C 12.9 km/h
2373 05-03-2019 02:00:00 6.79167 C 6.11 g/m*3 3.57 C 17.96667 km/h
2374 05-03-2019 03:00:00 6.74167 C 6.13 g/m*3 3.6 C 17.16667 km/h
2375 05-03-2019 04:00:00 6.425 C 6.04 g/m*3 3.58 C 14.49167 km/h
Sensor: Nr:Datum:Temp:Abs-Feuchte:Windchill:Wind:
Aussen-T/F 2376 05-03-2019 05:00:00 6.35 C 6.01 g/m*3 3.45 C 14.76667 km/h
2377 05-03-2019 06:00:00 6.24167 C 5.88 g/m*3 3.46 C 13.83333 km/h
2378 05-03-2019 07:00:00 6.475 C 5.93 g/m*3 3.06 C 18.90833 km/h
2379 05-03-2019 08:00:00 6.64167 C 6.07 g/m*3 3.23 C 19.16667 km/h
2380 05-03-2019 09:00:00 6.50833 C 6.25 g/m*3 3.51 C 15.7 km/h
2381 05-03-2019 10:00:00 6.625 C 6.44 g/m*3 4.3 C 11.56667 km/h
2382 05-03-2019 11:00:00 6.99167 C 6.53 g/m*3 4.61 C 12.36667 km/h
2383 05-03-2019 12:00:00 7.3 C 6.45 g/m*3 4.77 C 13.7 km/h
2384 05-03-2019 13:00:00 7.96667 C 6.58 g/m*3 5.81 C 12.23333 km/h
2385 05-03-2019 14:00:00 8.65 C 6.68 g/m*3 6.48 C 13.3 km/h
2386 05-03-2019 15:00:00 8.95833 C 6.59 g/m*3 7.12 C 11.55833 km/h
2387 05-03-2019 16:00:00 9.81667 C 6.76 g/m*3 8.31 C 10.625 km/h
2388 05-03-2019 17:00:00 9.34167 C 6.68 g/m*3 7.93 C 9.54167 km/h
2389 05-03-2019 18:00:00 7.13333 C 6.3 g/m*3 6.21 C 5.89167 km/h
2390 05-03-2019 19:00:00 6.55 C 6.21 g/m*3 5.54 C 5.88333 km/h
2391 05-03-2019 20:00:00 5.46667 C 5.97 g/m*3 5.47 C 1.46667 km/h
2392 05-03-2019 21:00:00 4.275 C 5.8 g/m*3 4.28 C 0.66667 km/h
2393 05-03-2019 22:00:00 4.70833 C 6.13 g/m*3 4.71 C 0.26667 km/h
2394 05-03-2019 23:00:00 5.26667 C 6.36 g/m*3 5.27 C 0 km/h
2395 06-03-2019 00:00:00 5.65 C 6.5 g/m*3 5.65 C 0.66667 km/h
2396 06-03-2019 01:00:00 6.15 C 6.71 g/m*3 6.15 C 0.4 km/h
2397 06-03-2019 02:00:00 7.03333 C 6.98 g/m*3 7.03 C 3.46667 km/h
2398 06-03-2019 03:00:00 7 C 6.93 g/m*3 7 C 0.26667 km/h
2399 06-03-2019 04:00:00 6.81667 C 6.97 g/m*3 6.82 C 2.675 km/h
2400 06-03-2019 05:00:00 7.175 C 6.99 g/m*3 6.1 C 6.43333 km/h
Sensor: Nr:Datum:Temp:Abs-Feuchte:Windchill:Wind:
Aussen-T/F 2401 06-03-2019 06:00:00 6.40833 C 6.68 g/m*3 6.41 C 2.675 km/h
2402 06-03-2019 07:00:00 5.44167 C 6.38 g/m*3 5.44 C 1.2 km/h
2403 06-03-2019 08:00:00 6.43333 C 6.8 g/m*3 6.43 C 2.93333 km/h
2404 06-03-2019 09:00:00 8.15833 C 7.04 g/m*3 8.16 C 2.66667 km/h
2405 06-03-2019 10:00:00 10.00833 C 7.18 g/m*3 10.01 C 4.025 km/h
2406 06-03-2019 11:00:00 12.275 C 7.09 g/m*3 12.28 C 7.24167 km/h
2407 06-03-2019 12:00:00 13.31667 C 6.85 g/m*3 13.32 C 6.58333 km/h
2408 06-03-2019 13:00:00 13.375 C 7.08 g/m*3 13.38 C 5.35 km/h
2409 06-03-2019 14:00:00 13.7 C 7.31 g/m*3 13.7 C 2.66667 km/h
2410 06-03-2019 15:00:00 14.56667 C 7.34 g/m*3 14.57 C 3.875 km/h
2411 06-03-2019 16:00:00 15.19167 C 7.45 g/m*3 15.19 C 4.14167 km/h
2412 06-03-2019 17:00:00 13.93333 C 8.2 g/m*3 13.93 C 3.475 km/h
2413 06-03-2019 18:00:00 13.00833 C 8.24 g/m*3 13.01 C 4.26667 km/h
2414 06-03-2019 19:00:00 11.65833 C 8.48 g/m*3 11.66 C 1.86667 km/h
2415 06-03-2019 20:00:00 10.65 C 8.31 g/m*3 10.65 C 0.4 km/h
2416 06-03-2019 21:00:00 10.675 C 8.25 g/m*3 10.68 C 0.4 km/h
2417 06-03-2019 22:00:00 10.66667 C 8.25 g/m*3 10.67 C 1.33333 km/h
2418 06-03-2019 23:00:00 11.175 C 8.23 g/m*3 11.18 C 3.475 km/h
2419 07-03-2019 00:00:00 11.05833 C 8.41 g/m*3 11.06 C 3.33333 km/h
2420 07-03-2019 01:00:00 10.93333 C 8.72 g/m*3 10.93 C 2.26667 km/h
2421 07-03-2019 02:00:00 10.025 C 8.63 g/m*3 10.03 C 0.53333 km/h
2422 07-03-2019 03:00:00 9.58333 C 8.47 g/m*3 9.58 C 1.33333 km/h
2423 07-03-2019 04:00:00 10.08333 C 8.37 g/m*3 10.08 C 3.46667 km/h
2424 07-03-2019 05:00:00 11.45 C 8.2 g/m*3 11.45 C 9.40833 km/h
2425 07-03-2019 06:00:00 12.05833 C 7.91 g/m*3 12.06 C 17.16667 km/h
Sensor: Nr:Datum:Temp:Abs-Feuchte:Windchill:Wind:
Aussen-T/F 2426 07-03-2019 07:00:00 11.325 C 7.59 g/m*3 11.33 C 24.53333 km/h
2427 07-03-2019 08:00:00 10.69167 C 7.45 g/m*3 7.94 C 23.58333 km/h
2428 07-03-2019 09:00:00 10.06667 C 7.8 g/m*3 7.2 C 22.90833 km/h
2429 07-03-2019 10:00:00 10.225 C 7.83 g/m*3 7.22 C 25.19167 km/h
2430 07-03-2019 11:00:00 9.8 C 7.79 g/m*3 6.61 C 25.88333 km/h
2431 07-03-2019 12:00:00 10.78333 C 7.37 g/m*3 8.11 C 22.94167 km/h
2432 07-03-2019 13:00:00 12 C 7.32 g/m*3 12 C 19.70833 km/h
2433 07-03-2019 14:00:00 10.40833 C 7.53 g/m*3 8.26 C 16.36667 km/h
2434 07-03-2019 15:00:00 10.825 C 7.33 g/m*3 8.72 C 16.9 km/h
2435 07-03-2019 16:00:00 9.88333 C 7.38 g/m*3 7.88 C 14.09167 km/h
2436 07-03-2019 17:00:00 10.14167 C 7.11 g/m*3 8.18 C 14.23333 km/h
2437 07-03-2019 18:00:00 9.45 C 6.57 g/m*3 7.2 C 15.3 km/h
2438 07-03-2019 19:00:00 8.46667 C 6.77 g/m*3 6.09 C 14.5 km/h
2439 07-03-2019 20:00:00 8.64167 C 6.6 g/m*3 5.82 C 18.5 km/h
2440 07-03-2019 21:00:00 9.23333 C 6.67 g/m*3 6.58 C 18.36667 km/h
2441 07-03-2019 22:00:00 9.2 C 6.67 g/m*3 6.59 C 17.83333 km/h
2442 07-03-2019 23:00:00 8.64167 C 6.63 g/m*3 6.51 C 13.03333 km/h
2443 08-03-2019 00:00:00 7.65833 C 6.81 g/m*3 5.87 C 9.80833 km/h
2444 08-03-2019 01:00:00 7.05833 C 6.68 g/m*3 4.88 C 11.275 km/h
2445 08-03-2019 02:00:00 8.15833 C 6.46 g/m*3 5.35 C 17.3 km/h
2446 08-03-2019 03:00:00 8.15 C 6.27 g/m*3 5.34 C 17.3 km/h
2447 08-03-2019 04:00:00 8.05 C 6.32 g/m*3 5.45 C 15.43333 km/h
2448 08-03-2019 05:00:00 7.8 C 6.38 g/m*3 4.91 C 17.3 km/h
2449 08-03-2019 06:00:00 7.60833 C 6.44 g/m*3 4.49 C 18.775 km/h
2450 08-03-2019 07:00:00 7.7 C 6.52 g/m*3 4.39 C 20.775 km/h
Sensor: Nr:Datum:Temp:Abs-Feuchte:Windchill:Wind:
Aussen-T/F 2451 08-03-2019 08:00:00 7.85 C 6.69 g/m*3 5.2 C 15.43333 km/h
2452 08-03-2019 09:00:00 7.68333 C 6.91 g/m*3 5.2 C 13.96667 km/h
2453 08-03-2019 10:00:00 7.75 C 6.92 g/m*3 5.57 C 12.1 km/h
2454 08-03-2019 11:00:00 8.65833 C 6.84 g/m*3 6.53 C 13.03333 km/h
2455 08-03-2019 12:00:00 9.21667 C 6.44 g/m*3 7.03 C 14.36667 km/h
2456 08-03-2019 13:00:00 9.8 C 6.39 g/m*3 7.63 C 15.3 km/h
2457 08-03-2019 14:00:00 10.34167 C 6.17 g/m*3 8.32 C 15.16667 km/h
2458 08-03-2019 15:00:00 11.25 C 6.3 g/m*3 11.25 C 14.5 km/h
2459 08-03-2019 16:00:00 10.26667 C 6.7 g/m*3 8.71 C 11.53333 km/h
2460 08-03-2019 17:00:00 9.15833 C 6.91 g/m*3 7.81 C 9.00833 km/h
2461 08-03-2019 18:00:00 7.425 C 6.79 g/m*3 6.63 C 5.625 km/h
2462 08-03-2019 19:00:00 6.83333 C 6.73 g/m*3 6.83 C 1.06667 km/h
2463 08-03-2019 20:00:00 6.3 C 6.63 g/m*3 6.3 C 0 km/h
2464 08-03-2019 21:00:00 6.525 C 6.71 g/m*3 6.53 C 2.54167 km/h
2465 08-03-2019 22:00:00 7.025 C 6.63 g/m*3 7.03 C 4.41667 km/h
2466 08-03-2019 23:00:00 8.25833 C 6.55 g/m*3 7.31 C 6.56667 km/h
2467 09-03-2019 00:00:00 8.56667 C 6.47 g/m*3 6.58 C 11.96667 km/h
2468 09-03-2019 01:00:00 9.15833 C 6.47 g/m*3 6.65 C 16.9 km/h
2469 09-03-2019 02:00:00 9.375 C 6.54 g/m*3 6.32 C 22.91667 km/h
2470 09-03-2019 03:00:00 9.03333 C 6.75 g/m*3 5.29 C 30.29167 km/h
2471 09-03-2019 04:00:00 7.95833 C 7 g/m*3 4.14 C 27.08333 km/h
2472 09-03-2019 05:00:00 7.775 C 7.12 g/m*3 4.54 C 20.24167 km/h
2473 09-03-2019 06:00:00 8.08333 C 7.31 g/m*3 5.71 C 13.83333 km/h
2474 09-03-2019 07:00:00 8.63333 C 7.51 g/m*3 6.69 C 11.83333 km/h
2475 09-03-2019 08:00:00 9.45 C 7.73 g/m*3 7.42 C 13.55833 km/h
Sensor: Nr:Datum:Temp:Abs-Feuchte:Windchill:Wind:
Aussen-T/F 2476 09-03-2019 09:00:00 10.15833 C 7.94 g/m*3 7.91 C 16.76667 km/h
2477 09-03-2019 10:00:00 10.50833 C 7.9 g/m*3 8.79 C 13.03333 km/h
2478 09-03-2019 11:00:00 10.925 C 7.95 g/m*3 9.07 C 14.9 km/h
2479 09-03-2019 12:00:00 11.71667 C 8.03 g/m*3 11.72 C 19.98333 km/h
2480 09-03-2019 13:00:00 12.525 C 8.21 g/m*3 12.53 C 17.7 km/h
2481 09-03-2019 14:00:00 13.48333 C 8.15 g/m*3 13.48 C 25.86667 km/h
2482 09-03-2019 15:00:00 13.30833 C 7.96 g/m*3 13.31 C 26.675 km/h
2483 09-03-2019 16:00:00 13.39167 C 7.37 g/m*3 13.39 C 29.625 km/h
2484 09-03-2019 17:00:00 13.05833 C 6.9 g/m*3 13.06 C 23.46667 km/h
2485 09-03-2019 18:00:00 12.01667 C 6.68 g/m*3 12.02 C 23.46667 km/h
2486 09-03-2019 19:00:00 10.65833 C 7.27 g/m*3 8.99 C 12.89167 km/h
2487 09-03-2019 20:00:00 9.45 C 7.46 g/m*3 9.45 C 3.89167 km/h
2488 09-03-2019 21:00:00 9.66667 C 7.56 g/m*3 8.81 C 7.11667 km/h
2489 09-03-2019 22:00:00 9.60833 C 7.33 g/m*3 8.74 C 7.125 km/h
2490 09-03-2019 23:00:00 10.34167 C 6.85 g/m*3 8.48 C 13.83333 km/h
2491 10-03-2019 00:00:00 10.11667 C 6.59 g/m*3 8.44 C 12.08333 km/h
2492 10-03-2019 01:00:00 9.66667 C 6.48 g/m*3 8.91 C 6.70833 km/h
2493 10-03-2019 02:00:00 9.40833 C 6.66 g/m*3 8.71 C 6.29167 km/h
2494 10-03-2019 03:00:00 9.1 C 6.86 g/m*3 9.1 C 1.06667 km/h
2495 10-03-2019 04:00:00 8.325 C 7.18 g/m*3 8.32 C 0 km/h
2496 10-03-2019 05:00:00 7.8 C 7.42 g/m*3 7.8 C 0 km/h
2497 10-03-2019 06:00:00 7.475 C 7.47 g/m*3 7.48 C 0 km/h
2498 10-03-2019 07:00:00 7.675 C 7.68 g/m*3 7.68 C 0 km/h
2499 10-03-2019 08:00:00 8.86667 C 8.38 g/m*3 7.69 C 7.925 km/h
2500 10-03-2019 09:00:00 10.58333 C 9.28 g/m*3 9.25 C 10.475 km/h
Sensor: Nr:Datum:Temp:Abs-Feuchte:Windchill:Wind:
Aussen-T/F 2501 10-03-2019 10:00:00 11.95833 C 9.92 g/m*3 11.96 C 9.825 km/h
2502 10-03-2019 11:00:00 13.14167 C 9.01 g/m*3 13.14 C 21.175 km/h
2503 10-03-2019 12:00:00 14.125 C 8.78 g/m*3 14.13 C 24.65833 km/h
2504 10-03-2019 13:00:00 14.4 C 7.98 g/m*3 14.4 C 30.575 km/h
2505 10-03-2019 14:00:00 14.40833 C 6.43 g/m*3 14.41 C 39.13333 km/h
2506 10-03-2019 15:00:00 13.55833 C 5.9 g/m*3 13.56 C 37 km/h
2507 10-03-2019 16:00:00 12.53333 C 5.53 g/m*3 12.53 C 36.475 km/h
2508 10-03-2019 17:00:00 10.38333 C 6.06 g/m*3 7.75 C 21.19167 km/h
2509 10-03-2019 18:00:00 7.69167 C 6.5 g/m*3 4.44 C 20.25 km/h
2510 10-03-2019 19:00:00 6.94167 C 6.07 g/m*3 3.5 C 20.10833 km/h
2511 10-03-2019 20:00:00 6.075 C 5.5 g/m*3 1.97 C 24.26667 km/h
2512 10-03-2019 21:00:00 5.21667 C 5.46 g/m*3 2.27 C 13.43333 km/h
2513 10-03-2019 22:00:00 5.05833 C 5.45 g/m*3 2.79 C 9.7 km/h
2514 10-03-2019 23:00:00 4.85833 C 5.41 g/m*3 2.72 C 8.99167 km/h
2515 11-03-2019 00:00:00 4.34167 C 5.27 g/m*3 3.1 C 5.61667 km/h
2516 11-03-2019 01:00:00 4.50833 C 5.24 g/m*3 2.11 C 9.80833 km/h
2517 11-03-2019 02:00:00 5.10833 C 5.4 g/m*3 1.94 C 14.63333 km/h
2518 11-03-2019 03:00:00 3.65833 C 5.3 g/m*3 0.78 C 11.26667 km/h
2519 11-03-2019 04:00:00 2.36667 C 5.27 g/m*3 2.37 C 1.86667 km/h
2520 11-03-2019 05:00:00 2.20833 C 5.23 g/m*3 -1.96 C 16.63333 km/h
2521 11-03-2019 06:00:00 1.74167 C 5.05 g/m*3 -0.9 C 8.71667 km/h
2522 11-03-2019 07:00:00 1.525 C 5.07 g/m*3 1.53 C 3.33333 km/h
2523 11-03-2019 08:00:00 2.31667 C 5.39 g/m*3 2.32 C 4.28333 km/h
2524 11-03-2019 09:00:00 3.34167 C 5.44 g/m*3 -0.07 C 13.7 km/h
2525 11-03-2019 10:00:00 3.925 C 5.59 g/m*3 0.76 C 13.03333 km/h
Sensor: Nr:Datum:Temp:Abs-Feuchte:Windchill:Wind:
Aussen-T/F 2526 11-03-2019 11:00:00 4.875 C 5.55 g/m*3 1.72 C 14.23333 km/h
2527 11-03-2019 12:00:00 5.60833 C 5.4 g/m*3 2.36 C 15.96667 km/h
2528 11-03-2019 13:00:00 6.575 C 5.41 g/m*3 3.23 C 18.5 km/h
2529 11-03-2019 14:00:00 7.04167 C 5.45 g/m*3 3.75 C 19.04167 km/h
2530 11-03-2019 15:00:00 7.63333 C 5.39 g/m*3 4.12 C 22.64167 km/h
2531 11-03-2019 16:00:00 7.26667 C 5.38 g/m*3 4.04 C 19.03333 km/h
2532 11-03-2019 17:00:00 7.175 C 5.5 g/m*3 4.88 C 12.08333 km/h
2533 11-03-2019 18:00:00 6.93333 C 5.3 g/m*3 4.6 C 11.96667 km/h
2534 11-03-2019 19:00:00 5.83333 C 5.22 g/m*3 2.89 C 14.23333 km/h
2535 11-03-2019 20:00:00 5.68333 C 5.22 g/m*3 2.75 C 13.96667 km/h
2536 11-03-2019 21:00:00 5.28333 C 5.19 g/m*3 3.06 C 9.69167 km/h
2537 11-03-2019 22:00:00 5.34167 C 5.17 g/m*3 3.32 C 8.86667 km/h
2538 11-03-2019 23:00:00 4.75 C 5.08 g/m*3 3.52 C 5.75833 km/h
2539 12-03-2019 00:00:00 4.19167 C 5.16 g/m*3 2.61 C 6.55833 km/h
2540 12-03-2019 01:00:00 3.225 C 5.08 g/m*3 3.23 C 4.41667 km/h
2541 12-03-2019 02:00:00 2.15833 C 4.89 g/m*3 2.16 C 3.875 km/h
2542 12-03-2019 03:00:00 1.65833 C 4.82 g/m*3 1.66 C 4.41667 km/h
2543 12-03-2019 04:00:00 1.33333 C 4.75 g/m*3 1.33 C 4.40833 km/h
2544 12-03-2019 05:00:00 1.625 C 4.88 g/m*3 1.63 C 3.6 km/h
2545 12-03-2019 06:00:00 1.76667 C 4.9 g/m*3 1.77 C 2.93333 km/h
2546 12-03-2019 07:00:00 1.93333 C 5.02 g/m*3 1.93 C 0 km/h
2547 12-03-2019 08:00:00 3.25 C 5.38 g/m*3 3.25 C 1.33333 km/h
2548 12-03-2019 09:00:00 5.20833 C 5.68 g/m*3 5.21 C 2.28333 km/h
2549 12-03-2019 10:00:00 7.4 C 5.75 g/m*3 5.31 C 11.16667 km/h
2550 12-03-2019 11:00:00 8.78333 C 5.53 g/m*3 6.67 C 13.16667 km/h
Sensor: Nr:Datum:Temp:Abs-Feuchte:Windchill:Wind:
Aussen-T/F 2551 12-03-2019 12:00:00 9.40833 C 5.54 g/m*3 7.58 C 12.09167 km/h
2552 12-03-2019 13:00:00 9.74167 C 5.49 g/m*3 8.26 C 10.35 km/h
2553 12-03-2019 14:00:00 10.18333 C 5.48 g/m*3 9.15 C 8.34167 km/h
2554 12-03-2019 15:00:00 10.56667 C 5.26 g/m*3 9.15 C 11.025 km/h
2555 12-03-2019 16:00:00 10.33333 C 4.82 g/m*3 9.47 C 7.65833 km/h
2556 12-03-2019 17:00:00 9.34167 C 5 g/m*3 9.34 C 1.6 km/h
2557 12-03-2019 18:00:00 8.1 C 5.1 g/m*3 8.1 C 2.275 km/h
2558 12-03-2019 19:00:00 8.725 C 4.69 g/m*3 8.73 C 4.01667 km/h
2559 12-03-2019 20:00:00 9.425 C 4.21 g/m*3 8.69 C 6.45 km/h
2560 12-03-2019 21:00:00 10.74167 C 4.5 g/m*3 9.26 C 11.68333 km/h
2561 12-03-2019 22:00:00 11.14167 C 5.45 g/m*3 11.14 C 22.93333 km/h
2562 12-03-2019 23:00:00 8.53333 C 6.56 g/m*3 5.7 C 18.36667 km/h
2563 13-03-2019 00:00:00 6.53333 C 6.06 g/m*3 3.69 C 14.63333 km/h
2564 13-03-2019 01:00:00 5.74167 C 5.67 g/m*3 2.62 C 15.3 km/h
2565 13-03-2019 02:00:00 5.425 C 5.6 g/m*3 3.01 C 10.75833 km/h
2566 13-03-2019 03:00:00 5.74167 C 5.51 g/m*3 3.16 C 11.95 km/h
2567 13-03-2019 04:00:00 5.53333 C 5.61 g/m*3 3.01 C 11.40833 km/h
2568 13-03-2019 05:00:00 5.34167 C 5.77 g/m*3 2.33 C 13.95833 km/h
2569 13-03-2019 06:00:00 5.16667 C 5.69 g/m*3 1.53 C 17.96667 km/h
2570 13-03-2019 07:00:00 5.46667 C 5.65 g/m*3 1.69 C 19.71667 km/h
2571 13-03-2019 08:00:00 6.08333 C 5.85 g/m*3 2.68 C 17.96667 km/h
2572 13-03-2019 09:00:00 6.5 C 5.84 g/m*3 2.96 C 19.975 km/h
2573 13-03-2019 10:00:00 6.94167 C 5.96 g/m*3 3.09 C 24.125 km/h
2574 13-03-2019 11:00:00 7.81667 C 6.14 g/m*3 4.23 C 23.98333 km/h
2575 13-03-2019 12:00:00 8.15833 C 6.22 g/m*3 4.85 C 21.975 km/h
Sensor: Nr:Datum:Temp:Abs-Feuchte:Windchill:Wind:
Aussen-T/F 2576 13-03-2019 13:00:00 7.95833 C 6.31 g/m*3 4.31 C 25.075 km/h
2577 13-03-2019 14:00:00 8.05 C 6.48 g/m*3 4.83 C 20.775 km/h
2578 13-03-2019 15:00:00 7.79167 C 6.54 g/m*3 4.68 C 19.175 km/h
2579 13-03-2019 16:00:00 6.825 C 6.69 g/m*3 4.15 C 13.96667 km/h
2580 13-03-2019 17:00:00 6.65833 C 6.66 g/m*3 3.48 C 17.3 km/h
2581 13-03-2019 18:00:00 6.55 C 6.6 g/m*3 3.45 C 16.5 km/h
2582 13-03-2019 19:00:00 4.95833 C 6.23 g/m*3 2.34 C 11.29167 km/h
2583 13-03-2019 20:00:00 4.94167 C 6.24 g/m*3 1.91 C 13.56667 km/h
2584 13-03-2019 21:00:00 4.94167 C 6.27 g/m*3 2.24 C 11.7 km/h
2585 13-03-2019 22:00:00 5.04167 C 6.34 g/m*3 2.97 C 8.86667 km/h
2586 13-03-2019 23:00:00 4.725 C 6.18 g/m*3 2.91 C 7.65 km/h
2587 14-03-2019 00:00:00 4.65 C 6.14 g/m*3 1.57 C 13.43333 km/h
2588 14-03-2019 01:00:00 5.13333 C 6.21 g/m*3 2.95 C 9.39167 km/h
2589 14-03-2019 02:00:00 4.81667 C 6.17 g/m*3 3.01 C 7.66667 km/h
2590 14-03-2019 03:00:00 4.46667 C 6.1 g/m*3 2.97 C 6.43333 km/h
2591 14-03-2019 04:00:00 5.05 C 6.36 g/m*3 3.25 C 7.78333 km/h
2592 14-03-2019 05:00:00 5.73333 C 6.54 g/m*3 3.75 C 9 km/h
2593 14-03-2019 06:00:00 6.13333 C 6.53 g/m*3 4.26 C 8.85833 km/h
2594 14-03-2019 07:00:00 6.35 C 6.48 g/m*3 3.55 C 14.1 km/h
2595 14-03-2019 08:00:00 6.70833 C 6.51 g/m*3 4.22 C 12.625 km/h
2596 14-03-2019 09:00:00 6.41667 C 6.63 g/m*3 3.93 C 12.23333 km/h
2597 14-03-2019 10:00:00 6.55 C 6.64 g/m*3 3.62 C 15.3 km/h
2598 14-03-2019 11:00:00 6.55833 C 6.71 g/m*3 3.74 C 14.5 km/h
2599 14-03-2019 12:00:00 7.15 C 6.94 g/m*3 3.89 C 19.03333 km/h
2600 14-03-2019 13:00:00 7.30833 C 7 g/m*3 3.32 C 26.825 km/h
Sensor: Nr:Datum:Temp:Abs-Feuchte:Windchill:Wind:
Aussen-T/F 2601 14-03-2019 14:00:00 7.33333 C 6.96 g/m*3 3.57 C 24.39167 km/h
2602 14-03-2019 15:00:00 7.69167 C 7.31 g/m*3 4.45 C 20.1 km/h
2603 14-03-2019 16:00:00 8.875 C 7.54 g/m*3 6.19 C 17.84167 km/h
2604 14-03-2019 17:00:00 9.85833 C 7.88 g/m*3 7.53 C 16.76667 km/h
2605 14-03-2019 18:00:00 9.875 C 7.7 g/m*3 8.54 C 9.68333 km/h
2606 14-03-2019 19:00:00 9.54167 C 7.07 g/m*3 7.4 C 14.61667 km/h
2607 14-03-2019 20:00:00 7.96667 C 7.02 g/m*3 6.37 C 9.13333 km/h
2608 14-03-2019 21:00:00 8.2 C 6.95 g/m*3 7.35 C 6.16667 km/h
2609 14-03-2019 22:00:00 8.38333 C 6.76 g/m*3 6.4 C 11.7 km/h
2610 14-03-2019 23:00:00 8.11667 C 6.6 g/m*3 6.08 C 11.69167 km/h
2611 15-03-2019 00:00:00 7.11667 C 6.48 g/m*3 5.42 C 8.88333 km/h
2612 15-03-2019 01:00:00 6.38333 C 6.39 g/m*3 4.55 C 8.86667 km/h
2613 15-03-2019 02:00:00 6.86667 C 6.57 g/m*3 5.62 C 6.84167 km/h
2614 15-03-2019 03:00:00 6.40833 C 6.49 g/m*3 6.41 C 4.81667 km/h
2615 15-03-2019 04:00:00 6.04167 C 6.5 g/m*3 6.04 C 4 km/h
2616 15-03-2019 05:00:00 7.00833 C 6.79 g/m*3 5.24 C 9.13333 km/h
2617 15-03-2019 06:00:00 7.225 C 7.08 g/m*3 7.23 C 4.16667 km/h
2618 15-03-2019 07:00:00 7.125 C 7.25 g/m*3 5.43 C 8.85833 km/h
2619 15-03-2019 08:00:00 7.49167 C 7.52 g/m*3 6.02 C 8.19167 km/h
2620 15-03-2019 09:00:00 8.2 C 7.87 g/m*3 5.67 C 15.16667 km/h
2621 15-03-2019 10:00:00 9.375 C 8.49 g/m*3 6.96 C 16.5 km/h
2622 15-03-2019 11:00:00 11.05 C 9.2 g/m*3 11.05 C 18.63333 km/h
2623 15-03-2019 12:00:00 12.38333 C 9.66 g/m*3 12.38 C 17.03333 km/h
2624 15-03-2019 13:00:00 13.11667 C 9.66 g/m*3 13.12 C 18.9 km/h
2625 15-03-2019 14:00:00 13.66667 C 9.56 g/m*3 13.67 C 21.43333 km/h
Sensor: Nr:Datum:Temp:Abs-Feuchte:Windchill:Wind:
Aussen-T/F 2626 15-03-2019 15:00:00 13.51667 C 9.69 g/m*3 13.52 C 17.70833 km/h
2627 15-03-2019 16:00:00 13.38333 C 9.52 g/m*3 13.38 C 19.03333 km/h
2628 15-03-2019 17:00:00 13.03333 C 9.4 g/m*3 13.03 C 16.23333 km/h
2629 15-03-2019 18:00:00 12.70833 C 9.38 g/m*3 12.71 C 20.10833 km/h
2630 15-03-2019 19:00:00 12.64167 C 9.38 g/m*3 12.64 C 14.63333 km/h
2631 15-03-2019 20:00:00 12.10833 C 9.45 g/m*3 12.11 C 14.23333 km/h
2632 15-03-2019 21:00:00 12.25 C 9.38 g/m*3 12.25 C 14.23333 km/h
2633 15-03-2019 22:00:00 12.4 C 9.31 g/m*3 12.4 C 12.61667 km/h
2634 15-03-2019 23:00:00 11.85833 C 9.28 g/m*3 11.86 C 7.78333 km/h
2635 16-03-2019 00:00:00 11.575 C 9.18 g/m*3 11.58 C 13.29167 km/h
2636 16-03-2019 01:00:00 9.79167 C 8.51 g/m*3 7.84 C 13.56667 km/h
2637 16-03-2019 02:00:00 8.93333 C 8.09 g/m*3 7.29 C 10.35 km/h
2638 16-03-2019 03:00:00 8.41667 C 7.96 g/m*3 8.42 C 1.86667 km/h
2639 16-03-2019 04:00:00 8.3 C 8.01 g/m*3 8.3 C 0 km/h
2640 16-03-2019 05:00:00 8.3 C 8.01 g/m*3 8.3 C 0 km/h
2641 16-03-2019 06:00:00 8.73333 C 8.35 g/m*3 8.73 C 4.7 km/h
2642 16-03-2019 07:00:00 9.88333 C 8.87 g/m*3 7.65 C 15.96667 km/h
2643 16-03-2019 08:00:00 10.375 C 8.96 g/m*3 8.85 C 11.41667 km/h
2644 16-03-2019 09:00:00 10.71667 C 9.02 g/m*3 8.87 C 14.35833 km/h
2645 16-03-2019 10:00:00 10.84167 C 8.92 g/m*3 9.04 C 14.23333 km/h
2646 16-03-2019 11:00:00 10.825 C 8.84 g/m*3 8.69 C 17.16667 km/h
2647 16-03-2019 12:00:00 11.46667 C 8.66 g/m*3 11.47 C 19.18333 km/h
2648 16-03-2019 13:00:00 11.75833 C 8.4 g/m*3 11.76 C 17.7 km/h
2649 16-03-2019 14:00:00 11.125 C 8.15 g/m*3 11.13 C 19.30833 km/h
2650 16-03-2019 15:00:00 10.94167 C 7.84 g/m*3 9.32 C 13.025 km/h
Sensor: Nr:Datum:Temp:Abs-Feuchte:Windchill:Wind:
Aussen-T/F 2651 16-03-2019 16:00:00 10.99167 C 7.75 g/m*3 9.43 C 12.625 km/h
2652 16-03-2019 17:00:00 10.9 C 7.58 g/m*3 9.28 C 12.9 km/h
2653 16-03-2019 18:00:00 10.69167 C 7.5 g/m*3 9.12 C 12.225 km/h
2654 16-03-2019 19:00:00 10.43333 C 7.34 g/m*3 8.53 C 14.36667 km/h
2655 16-03-2019 20:00:00 10.31667 C 7.24 g/m*3 8.57 C 12.88333 km/h
2656 16-03-2019 21:00:00 10.10833 C 7.39 g/m*3 8 C 15.43333 km/h
2657 16-03-2019 22:00:00 10.09167 C 7.47 g/m*3 7.57 C 19.16667 km/h
2658 16-03-2019 23:00:00 10.11667 C 7.48 g/m*3 7.68 C 18.36667 km/h
2659 17-03-2019 00:00:00 10.29167 C 7.45 g/m*3 7.92 C 18.23333 km/h
2660 17-03-2019 01:00:00 10.425 C 7.43 g/m*3 7.84 C 20.775 km/h
2661 17-03-2019 02:00:00 10.20833 C 7.39 g/m*3 8.06 C 15.96667 km/h
2662 17-03-2019 03:00:00 10.19167 C 7.32 g/m*3 8.37 C 13.3 km/h
2663 17-03-2019 04:00:00 10.11667 C 7.2 g/m*3 7.99 C 15.56667 km/h
2664 17-03-2019 05:00:00 10.28333 C 7.15 g/m*3 7.99 C 17.43333 km/h
2665 17-03-2019 06:00:00 10.23333 C 7.08 g/m*3 8.12 C 15.69167 km/h
2666 17-03-2019 07:00:00 10.24167 C 7.25 g/m*3 7.88 C 17.975 km/h
2667 17-03-2019 08:00:00 10.2 C 7.5 g/m*3 8.11 C 15.43333 km/h
2668 17-03-2019 09:00:00 10.26667 C 7.61 g/m*3 7.97 C 17.43333 km/h
2669 17-03-2019 10:00:00 9.89167 C 7.71 g/m*3 7.65 C 16.1 km/h
2670 17-03-2019 11:00:00 8.075 C 6.98 g/m*3 5.88 C 12.63333 km/h
2671 17-03-2019 12:00:00 8.78333 C 6.87 g/m*3 6.59 C 13.7 km/h
2672 17-03-2019 13:00:00 9.80833 C 7.03 g/m*3 8.07 C 12.1 km/h
2673 17-03-2019 14:00:00 10.71667 C 6.35 g/m*3 8.59 C 16.9 km/h
2674 17-03-2019 15:00:00 11.01667 C 6.55 g/m*3 11.02 C 15.03333 km/h
2675 17-03-2019 16:00:00 10.05 C 6.09 g/m*3 7.78 C 16.64167 km/h
Sensor: Nr:Datum:Temp:Abs-Feuchte:Windchill:Wind:
Aussen-T/F 2676 17-03-2019 17:00:00 7.89167 C 5.7 g/m*3 5.48 C 13.81667 km/h
2677 17-03-2019 18:00:00 7.01667 C 5.86 g/m*3 4.53 C 13.03333 km/h
2678 17-03-2019 19:00:00 5.95833 C 5.83 g/m*3 3.9 C 9.53333 km/h
2679 17-03-2019 20:00:00 4.51667 C 5.85 g/m*3 2.52 C 8.19167 km/h
2680 17-03-2019 21:00:00 4.025 C 5.76 g/m*3 2.33 C 6.825 km/h
2681 17-03-2019 22:00:00 3.875 C 5.66 g/m*3 1.39 C 9.68333 km/h
2682 17-03-2019 23:00:00 3.83333 C 5.53 g/m*3 1.71 C 8.20833 km/h
2683 18-03-2019 00:00:00 2.95 C 5.33 g/m*3 1.35 C 6.04167 km/h
2684 18-03-2019 01:00:00 2.55 C 5.29 g/m*3 0.4 C 7.50833 km/h
2685 18-03-2019 02:00:00 3.225 C 5.49 g/m*3 -0.07 C 12.89167 km/h
2686 18-03-2019 03:00:00 3.61667 C 5.47 g/m*3 1.77 C 7.1 km/h
2687 18-03-2019 04:00:00 3.25 C 5.41 g/m*3 2.02 C 5.2 km/h
2688 18-03-2019 05:00:00 3.10833 C 5.37 g/m*3 0.82 C 8.33333 km/h
2689 18-03-2019 06:00:00 3.95833 C 5.48 g/m*3 0.95 C 12.23333 km/h
2690 18-03-2019 07:00:00 4.225 C 5.58 g/m*3 1.35 C 11.825 km/h
2691 18-03-2019 08:00:00 5.04167 C 5.84 g/m*3 2.19 C 12.63333 km/h
2692 18-03-2019 09:00:00 5.06667 C 6.11 g/m*3 2.84 C 9.54167 km/h
2693 18-03-2019 10:00:00 6.36667 C 6.37 g/m*3 3.99 C 11.55 km/h
2694 18-03-2019 11:00:00 7.74167 C 6.29 g/m*3 5.14 C 14.9 km/h
2695 18-03-2019 12:00:00 8.06667 C 5.97 g/m*3 5.44 C 15.7 km/h
2696 18-03-2019 13:00:00 6.66667 C 6.43 g/m*3 5.21 C 7.51667 km/h
2697 18-03-2019 14:00:00 8.43333 C 6.18 g/m*3 6.72 C 10.21667 km/h
2698 18-03-2019 15:00:00 6.71667 C 6.54 g/m*3 6.72 C 4.55 km/h
2699 18-03-2019 16:00:00 6.875 C 6.62 g/m*3 6.88 C 3.75 km/h
2700 18-03-2019 17:00:00 7.95833 C 6.13 g/m*3 6.97 C 6.56667 km/h
Sensor: Nr:Datum:Temp:Abs-Feuchte:Windchill:Wind:
Aussen-T/F 2701 18-03-2019 18:00:00 7.49167 C 6.03 g/m*3 7.49 C 2.66667 km/h
2702 18-03-2019 19:00:00 5.20833 C 5.88 g/m*3 5.21 C 4.53333 km/h
2703 18-03-2019 20:00:00 4.01667 C 5.47 g/m*3 4.02 C 3.86667 km/h
2704 18-03-2019 21:00:00 3.09167 C 5.26 g/m*3 3.09 C 1.6 km/h
2705 18-03-2019 22:00:00 2.04167 C 5 g/m*3 2.04 C 0.66667 km/h
2706 18-03-2019 23:00:00 1.48333 C 4.93 g/m*3 1.48 C 0 km/h
2707 19-03-2019 00:00:00 0.93333 C 4.77 g/m*3 0.93 C 0 km/h
2708 19-03-2019 01:00:00 0.35833 C 4.62 g/m*3 0.36 C 0 km/h
2709 19-03-2019 02:00:00 -0.04167 C 4.53 g/m*3 -0.04 C 0 km/h
2710 19-03-2019 03:00:00 -0.3 C 4.46 g/m*3 -0.3 C 0 km/h
2711 19-03-2019 04:00:00 -0.70833 C 4.34 g/m*3 -0.71 C 0 km/h
2712 19-03-2019 05:00:00 -1.03333 C 4.25 g/m*3 -1.03 C 0 km/h
2713 19-03-2019 06:00:00 -1.2 C 4.22 g/m*3 -1.2 C 0 km/h
2714 19-03-2019 07:00:00 -0.375 C 4.49 g/m*3 -0.38 C 0.8 km/h
2715 19-03-2019 08:00:00 -0.04167 C 4.59 g/m*3 -0.04 C 0 km/h
2716 19-03-2019 09:00:00 0.675 C 4.83 g/m*3 0.68 C 0.13333 km/h
2717 19-03-2019 10:00:00 2.36667 C 5.39 g/m*3 2.37 C 0 km/h
2718 19-03-2019 11:00:00 5.125 C 5.92 g/m*3 5.13 C 1.60833 km/h
2719 19-03-2019 12:00:00 7.29167 C 5.42 g/m*3 7.29 C 3.75 km/h
2720 19-03-2019 13:00:00 8.93333 C 5.14 g/m*3 7.8 C 7.78333 km/h
2721 19-03-2019 14:00:00 9.975 C 5.3 g/m*3 9.7 C 5.09167 km/h
2722 19-03-2019 15:00:00 10.15 C 5.05 g/m*3 9.12 C 8.33333 km/h
2723 19-03-2019 16:00:00 11.51667 C 5.01 g/m*3 11.52 C 4.96667 km/h
2724 19-03-2019 17:00:00 12.00833 C 4.83 g/m*3 12.01 C 6.85 km/h
2725 19-03-2019 18:00:00 9.65 C 5.58 g/m*3 9.65 C 0 km/h
Sensor: Nr:Datum:Temp:Abs-Feuchte:Windchill:Wind:
Aussen-T/F 2726 19-03-2019 19:00:00 5.6 C 5.46 g/m*3 5.6 C 0 km/h
2727 19-03-2019 20:00:00 4.4 C 5.32 g/m*3 4.4 C 0 km/h
2728 19-03-2019 21:00:00 3.1 C 5.09 g/m*3 3.1 C 0 km/h
2729 19-03-2019 22:00:00 2.025 C 4.84 g/m*3 2.03 C 0 km/h
2730 19-03-2019 23:00:00 1.68333 C 4.77 g/m*3 1.68 C 0.13333 km/h
2731 20-03-2019 00:00:00 0.8 C 4.56 g/m*3 0.8 C 0 km/h
2732 20-03-2019 01:00:00 0.35833 C 4.51 g/m*3 0.36 C 0 km/h
2733 20-03-2019 02:00:00 -0.16667 C 4.38 g/m*3 -0.17 C 0 km/h
2734 20-03-2019 03:00:00 -0.55 C 4.29 g/m*3 -0.55 C 0 km/h
2735 20-03-2019 04:00:00 -0.90833 C 4.22 g/m*3 -0.91 C 0 km/h
2736 20-03-2019 05:00:00 -1.10833 C 4.18 g/m*3 -1.11 C 0 km/h
2737 20-03-2019 06:00:00 -1.225 C 4.17 g/m*3 -1.23 C 0 km/h
2738 20-03-2019 07:00:00 -1.08333 C 4.22 g/m*3 -1.08 C 0 km/h
2739 20-03-2019 08:00:00 -0.675 C 4.37 g/m*3 -0.68 C 0 km/h
2740 20-03-2019 09:00:00 0.575 C 4.79 g/m*3 0.57 C 0 km/h
2741 20-03-2019 10:00:00 4.26667 C 5.82 g/m*3 4.27 C 0 km/h
2742 20-03-2019 11:00:00 8.875 C 6.06 g/m*3 8.88 C 1.73333 km/h
2743 20-03-2019 12:00:00 11.63333 C 5.89 g/m*3 11.63 C 5.9 km/h
2744 20-03-2019 13:00:00 13.15833 C 5.54 g/m*3 13.16 C 6.70833 km/h
2745 20-03-2019 14:00:00 13.75833 C 5.52 g/m*3 13.76 C 6.55833 km/h
2746 20-03-2019 15:00:00 13.64167 C 5.61 g/m*3 13.64 C 6.85833 km/h
2747 20-03-2019 16:00:00 14.11667 C 5.86 g/m*3 14.12 C 8.075 km/h
2748 20-03-2019 17:00:00 14.83333 C 6.28 g/m*3 14.83 C 1.6 km/h
2749 20-03-2019 18:00:00 11.88333 C 6.7 g/m*3 11.88 C 0 km/h
2750 20-03-2019 19:00:00 8.5 C 6.26 g/m*3 8.5 C 0 km/h
Sensor: Nr:Datum:Temp:Abs-Feuchte:Windchill:Wind:
Aussen-T/F 2751 20-03-2019 20:00:00 6.85 C 6.08 g/m*3 6.85 C 0 km/h
2752 20-03-2019 21:00:00 5.43333 C 5.85 g/m*3 5.43 C 0 km/h
2753 20-03-2019 22:00:00 4.725 C 5.7 g/m*3 4.72 C 0 km/h
2754 20-03-2019 23:00:00 3.81667 C 5.49 g/m*3 3.82 C 0 km/h
2755 21-03-2019 00:00:00 3.31667 C 5.39 g/m*3 3.32 C 0.13333 km/h
2756 21-03-2019 01:00:00 2.55 C 5.14 g/m*3 2.55 C 0 km/h
2757 21-03-2019 02:00:00 1.81667 C 4.99 g/m*3 1.82 C 0 km/h
2758 21-03-2019 03:00:00 1.30833 C 4.87 g/m*3 1.31 C 0 km/h
2759 21-03-2019 04:00:00 0.99167 C 4.82 g/m*3 0.99 C 0 km/h
2760 21-03-2019 05:00:00 0.61667 C 4.72 g/m*3 0.62 C 0 km/h
2761 21-03-2019 06:00:00 0.33333 C 4.66 g/m*3 0.33 C 0 km/h
2762 21-03-2019 07:00:00 0.6 C 4.76 g/m*3 0.6 C 0 km/h
2763 21-03-2019 08:00:00 1.24167 C 5.01 g/m*3 1.24 C 0 km/h
2764 21-03-2019 09:00:00 2.50833 C 5.46 g/m*3 2.51 C 0 km/h
2765 21-03-2019 10:00:00 5.54167 C 6.37 g/m*3 5.54 C 0.13333 km/h
2766 21-03-2019 11:00:00 9.275 C 6.78 g/m*3 9.28 C 0.26667 km/h
2767 21-03-2019 12:00:00 12.99167 C 6.11 g/m*3 12.99 C 7.525 km/h
2768 21-03-2019 13:00:00 15.43333 C 5.73 g/m*3 15.43 C 4.95833 km/h
2769 21-03-2019 14:00:00 16.23333 C 5.45 g/m*3 16.23 C 5.89167 km/h
2770 21-03-2019 15:00:00 16.43333 C 5.45 g/m*3 16.43 C 5.625 km/h
2771 21-03-2019 16:00:00 17.625 C 5.67 g/m*3 17.63 C 7.775 km/h
2772 21-03-2019 17:00:00 18.01667 C 5.84 g/m*3 18.02 C 6.575 km/h
2773 21-03-2019 18:00:00 14.68333 C 6.62 g/m*3 14.68 C 5.2 km/h
2774 21-03-2019 19:00:00 10.96667 C 6.42 g/m*3 10.97 C 3.33333 km/h
2775 21-03-2019 20:00:00 9.20833 C 6.41 g/m*3 9.21 C 0.66667 km/h
Sensor: Nr:Datum:Temp:Abs-Feuchte:Windchill:Wind:
Aussen-T/F 2776 21-03-2019 21:00:00 7.65 C 6.05 g/m*3 7.65 C 0 km/h
2777 21-03-2019 22:00:00 6.15833 C 5.77 g/m*3 6.16 C 0 km/h
2778 21-03-2019 23:00:00 5.26667 C 5.67 g/m*3 5.27 C 0 km/h
2779 22-03-2019 00:00:00 4.425 C 5.54 g/m*3 4.43 C 0 km/h
2780 22-03-2019 01:00:00 3.69167 C 5.43 g/m*3 3.69 C 0 km/h
2781 22-03-2019 02:00:00 3.03333 C 5.27 g/m*3 3.03 C 0 km/h
2782 22-03-2019 03:00:00 2.20833 C 5.08 g/m*3 2.21 C 0 km/h
2783 22-03-2019 04:00:00 1.74167 C 5.02 g/m*3 1.74 C 0 km/h
2784 22-03-2019 05:00:00 1.53333 C 5 g/m*3 1.53 C 0 km/h
2785 22-03-2019 06:00:00 1.06667 C 4.86 g/m*3 1.07 C 0 km/h
2786 22-03-2019 07:00:00 1.24167 C 4.96 g/m*3 1.24 C 0 km/h
2787 22-03-2019 08:00:00 1.95833 C 5.26 g/m*3 1.96 C 0 km/h
2788 22-03-2019 09:00:00 3.70833 C 5.94 g/m*3 3.71 C 0 km/h
2789 22-03-2019 10:00:00 7.06667 C 7.02 g/m*3 7.07 C 0 km/h
2790 22-03-2019 11:00:00 11.70833 C 7.63 g/m*3 11.71 C 0 km/h
2791 22-03-2019 12:00:00 15.65 C 7.08 g/m*3 15.65 C 3.225 km/h
2792 22-03-2019 13:00:00 18.11667 C 6.47 g/m*3 18.12 C 10.20833 km/h
2793 22-03-2019 14:00:00 19.29167 C 5.97 g/m*3 19.29 C 7.38333 km/h
2794 22-03-2019 15:00:00 19.26667 C 6.4 g/m*3 19.27 C 9.55 km/h
2795 22-03-2019 16:00:00 19.83333 C 6.46 g/m*3 19.83 C 5.75833 km/h
2796 22-03-2019 17:00:00 20.95833 C 6.47 g/m*3 20.96 C 6.16667 km/h
2797 22-03-2019 18:00:00 16.7 C 7.19 g/m*3 16.7 C 4.53333 km/h
2798 22-03-2019 19:00:00 12.225 C 6.86 g/m*3 12.23 C 5.46667 km/h
2799 22-03-2019 20:00:00 10.825 C 6.74 g/m*3 10.83 C 4.66667 km/h
2800 22-03-2019 21:00:00 9.1 C 6.45 g/m*3 9.1 C 0.4 km/h
Sensor: Nr:Datum:Temp:Abs-Feuchte:Windchill:Wind:
Aussen-T/F 2801 22-03-2019 22:00:00 7.775 C 6.35 g/m*3 7.78 C 1.06667 km/h
2802 22-03-2019 23:00:00 6.66667 C 6.08 g/m*3 6.67 C 0 km/h
2803 23-03-2019 00:00:00 5.5 C 5.83 g/m*3 5.5 C 0 km/h
2804 23-03-2019 01:00:00 4.74167 C 5.71 g/m*3 4.74 C 0 km/h
2805 23-03-2019 02:00:00 4.05 C 5.62 g/m*3 4.05 C 0 km/h
2806 23-03-2019 03:00:00 3.69167 C 5.54 g/m*3 3.69 C 0 km/h
2807 23-03-2019 04:00:00 3.425 C 5.51 g/m*3 3.43 C 0 km/h
2808 23-03-2019 05:00:00 3.28333 C 5.44 g/m*3 3.28 C 0 km/h
2809 23-03-2019 06:00:00 2.525 C 5.25 g/m*3 2.53 C 0 km/h
2810 23-03-2019 07:00:00 4.06667 C 6.02 g/m*3 4.07 C 3.08333 km/h
2811 23-03-2019 08:00:00 6.20833 C 6.99 g/m*3 6.21 C 3.075 km/h
2812 23-03-2019 09:00:00 6.63333 C 7.14 g/m*3 6.63 C 0 km/h
2813 23-03-2019 10:00:00 7.18333 C 7.35 g/m*3 6.31 C 5.75 km/h
2814 23-03-2019 11:00:00 7.53333 C 7.43 g/m*3 6.67 C 5.89167 km/h
2815 23-03-2019 12:00:00 8.125 C 7.5 g/m*3 7.23 C 6.3 km/h
2816 23-03-2019 13:00:00 8.775 C 7.5 g/m*3 7.74 C 7.25833 km/h
2817 23-03-2019 14:00:00 9.45 C 7.39 g/m*3 8.03 C 9.7 km/h
2818 23-03-2019 15:00:00 10.08333 C 7.32 g/m*3 8.9 C 9.025 km/h
2819 23-03-2019 16:00:00 10.425 C 7.21 g/m*3 9.29 C 9.15833 km/h
2820 23-03-2019 17:00:00 10.425 C 7.16 g/m*3 9.64 C 7.375 km/h
2821 23-03-2019 18:00:00 9.175 C 6.9 g/m*3 9.18 C 2.4 km/h
2822 23-03-2019 19:00:00 6.80833 C 6.51 g/m*3 6.81 C 3.2 km/h
2823 23-03-2019 20:00:00 5.38333 C 6.19 g/m*3 5.38 C 0.13333 km/h
2824 23-03-2019 21:00:00 4.33333 C 5.93 g/m*3 4.33 C 0 km/h
2825 23-03-2019 22:00:00 3.55833 C 5.74 g/m*3 3.56 C 0 km/h
Sensor: Nr:Datum:Temp:Abs-Feuchte:Windchill:Wind:
Aussen-T/F 2826 23-03-2019 23:00:00 3.075 C 5.62 g/m*3 3.08 C 0 km/h
2827 24-03-2019 00:00:00 2.4 C 5.39 g/m*3 2.4 C 0 km/h
2828 24-03-2019 01:00:00 1.9 C 5.23 g/m*3 1.9 C 0 km/h
2829 24-03-2019 02:00:00 1.425 C 5.08 g/m*3 1.43 C 0 km/h
2830 24-03-2019 03:00:00 0.96667 C 4.92 g/m*3 0.97 C 0 km/h
2831 24-03-2019 04:00:00 0.89167 C 4.94 g/m*3 0.89 C 0 km/h
2832 24-03-2019 05:00:00 1.725 C 5.24 g/m*3 1.73 C 0.4 km/h
2833 24-03-2019 07:00:00 2.78182 C 5.62 g/m*3 2.78 C 0.29091 km/h
2834 24-03-2019 08:00:00 3.66667 C 6.02 g/m*3 3.67 C 0.13333 km/h
2835 24-03-2019 09:00:00 4.85 C 6.44 g/m*3 4.85 C 2.53333 km/h
2836 24-03-2019 10:00:00 6.875 C 7.1 g/m*3 6.88 C 3.46667 km/h
2837 24-03-2019 11:00:00 9.54167 C 7.8 g/m*3 9.54 C 4.81667 km/h
2838 24-03-2019 12:00:00 11.74167 C 8.07 g/m*3 11.74 C 9.53333 km/h
2839 24-03-2019 13:00:00 10.88333 C 8.07 g/m*3 9.16 C 13.7 km/h
2840 24-03-2019 14:00:00 10.64167 C 8.08 g/m*3 9.95 C 7.10833 km/h
2841 24-03-2019 15:00:00 11.09167 C 7.88 g/m*3 11.09 C 8.74167 km/h
2842 24-03-2019 16:00:00 12.03333 C 7.65 g/m*3 12.03 C 9.80833 km/h
2843 24-03-2019 17:00:00 12.28333 C 7.05 g/m*3 12.28 C 10.625 km/h
2844 24-03-2019 18:00:00 11.30833 C 6.37 g/m*3 11.31 C 8.6 km/h
2845 24-03-2019 19:00:00 9.075 C 5.77 g/m*3 8.47 C 5.775 km/h
2846 24-03-2019 20:00:00 7.18333 C 5.55 g/m*3 7.18 C 4.4 km/h
2847 24-03-2019 21:00:00 5.59167 C 5.39 g/m*3 5.59 C 0.93333 km/h
2848 24-03-2019 22:00:00 4.23333 C 5.21 g/m*3 4.23 C 0.8 km/h
2849 24-03-2019 23:00:00 3.56667 C 5.11 g/m*3 3.57 C 2.53333 km/h
2850 25-03-2019 00:00:00 3.35 C 5.02 g/m*3 3.35 C 2.93333 km/h
Sensor: Nr:Datum:Temp:Abs-Feuchte:Windchill:Wind:
Aussen-T/F 2851 25-03-2019 01:00:00 1.875 C 4.76 g/m*3 1.88 C 0.53333 km/h
2852 25-03-2019 02:00:00 1.89167 C 4.9 g/m*3 0.46 C 5.225 km/h
2853 25-03-2019 03:00:00 2.29167 C 4.99 g/m*3 0.45 C 6.43333 km/h
2854 25-03-2019 04:00:00 2.85833 C 5.07 g/m*3 0.76 C 7.50833 km/h
2855 25-03-2019 05:00:00 3.675 C 5.13 g/m*3 0.61 C 12.23333 km/h
2856 25-03-2019 06:00:00 3.74167 C 5.19 g/m*3 1.46 C 8.75 km/h
2857 25-03-2019 07:00:00 4.38333 C 5.53 g/m*3 2.15 C 9.01667 km/h
2858 25-03-2019 08:00:00 4.56667 C 6.01 g/m*3 2.83 C 7.25 km/h
2859 25-03-2019 09:00:00 6.15 C 6.25 g/m*3 3.41 C 13.43333 km/h
2860 25-03-2019 10:00:00 7.41667 C 5.92 g/m*3 4.58 C 16.1 km/h
2861 25-03-2019 11:00:00 7.375 C 6.01 g/m*3 4.62 C 15.43333 km/h
2862 25-03-2019 12:00:00 7.725 C 6.31 g/m*3 4.41 C 20.90833 km/h
2863 25-03-2019 13:00:00 7.55 C 6.48 g/m*3 4.34 C 19.45 km/h
2864 25-03-2019 14:00:00 7.65833 C 6.21 g/m*3 4.6 C 18.38333 km/h
2865 25-03-2019 15:00:00 7.18333 C 6.57 g/m*3 4.89 C 12.08333 km/h
2866 25-03-2019 16:00:00 7.29167 C 6.64 g/m*3 5.02 C 12.08333 km/h
2867 25-03-2019 17:00:00 5.71667 C 6.41 g/m*3 3.83 C 8.58333 km/h
2868 25-03-2019 18:00:00 5.3 C 6.46 g/m*3 5.3 C 3.20833 km/h
2869 25-03-2019 19:00:00 5.04167 C 6.39 g/m*3 5.04 C 2.53333 km/h
2870 25-03-2019 20:00:00 5.1 C 6.48 g/m*3 5.1 C 2.26667 km/h
2871 25-03-2019 21:00:00 5.24167 C 6.56 g/m*3 5.24 C 4.29167 km/h
2872 25-03-2019 22:00:00 5.15833 C 6.39 g/m*3 5.16 C 4.675 km/h
2873 25-03-2019 23:00:00 4.65 C 6.2 g/m*3 4.65 C 1.06667 km/h
2874 26-03-2019 00:00:00 4.49167 C 6.21 g/m*3 4.49 C 2 km/h
2875 26-03-2019 01:00:00 4.525 C 6.19 g/m*3 4.53 C 0.53333 km/h
Sensor: Nr:Datum:Temp:Abs-Feuchte:Windchill:Wind:
Aussen-T/F 2876 26-03-2019 02:00:00 4.375 C 6.19 g/m*3 4.38 C 0.13333 km/h
2877 26-03-2019 03:00:00 4.64167 C 6.3 g/m*3 4.64 C 0.66667 km/h
2878 26-03-2019 04:00:00 4.91667 C 6.42 g/m*3 4.92 C 1.33333 km/h
2879 26-03-2019 05:00:00 5.00833 C 6.37 g/m*3 5.01 C 2.93333 km/h
2880 26-03-2019 06:00:00 4.99167 C 6.23 g/m*3 4.99 C 2.94167 km/h
2881 26-03-2019 07:00:00 5.06667 C 6.15 g/m*3 5.07 C 2.13333 km/h
2882 26-03-2019 08:00:00 5.55 C 6 g/m*3 5.55 C 4.95 km/h
2883 26-03-2019 09:00:00 6.225 C 5.91 g/m*3 4.69 C 7.53333 km/h
2884 26-03-2019 10:00:00 6.98333 C 5.91 g/m*3 4.78 C 11.29167 km/h
2885 26-03-2019 11:00:00 7.26667 C 5.66 g/m*3 5.69 C 8.46667 km/h
2886 26-03-2019 12:00:00 8.46667 C 5.93 g/m*3 6.59 C 11.16667 km/h
2887 26-03-2019 13:00:00 8.85 C 5.76 g/m*3 7.15 C 10.625 km/h
2888 26-03-2019 14:00:00 8.875 C 5.68 g/m*3 6.88 C 12.49167 km/h
2889 26-03-2019 15:00:00 9.03333 C 5.88 g/m*3 7.8 C 8.34167 km/h
2890 26-03-2019 16:00:00 9.49167 C 5.89 g/m*3 7.62 C 12.5 km/h
2891 26-03-2019 17:00:00 8.43333 C 6.05 g/m*3 7.16 C 8.05 km/h
2892 26-03-2019 18:00:00 8.11667 C 6.16 g/m*3 7.38 C 5.75833 km/h
2893 26-03-2019 19:00:00 7.59167 C 6.33 g/m*3 7.59 C 0.8 km/h
2894 26-03-2019 20:00:00 7.075 C 6.4 g/m*3 7.08 C 0.4 km/h
2895 26-03-2019 21:00:00 6.81667 C 6.44 g/m*3 6.82 C 0.13333 km/h
2896 26-03-2019 22:00:00 6.51667 C 6.48 g/m*3 6.52 C 0 km/h
2897 26-03-2019 23:00:00 6.24167 C 6.42 g/m*3 6.24 C 0.26667 km/h
2898 27-03-2019 00:00:00 6.10833 C 6.4 g/m*3 6.11 C 0.8 km/h
2899 27-03-2019 01:00:00 5.575 C 6.29 g/m*3 5.58 C 0 km/h
2900 27-03-2019 02:00:00 5.25 C 6.25 g/m*3 5.25 C 0 km/h
Sensor: Nr:Datum:Temp:Abs-Feuchte:Windchill:Wind:
Aussen-T/F 2901 27-03-2019 03:00:00 4.9 C 6.12 g/m*3 4.9 C 0 km/h
2902 27-03-2019 04:00:00 4.05833 C 5.81 g/m*3 4.06 C 0.13333 km/h
2903 27-03-2019 05:00:00 2.91667 C 5.43 g/m*3 2.92 C 0.53333 km/h
2904 27-03-2019 06:00:00 2.1 C 5.23 g/m*3 2.1 C 0 km/h
2905 27-03-2019 07:00:00 2.6 C 5.47 g/m*3 2.6 C 0.26667 km/h
2906 27-03-2019 08:00:00 3.88333 C 5.97 g/m*3 3.88 C 0.53333 km/h
2907 27-03-2019 09:00:00 5.8 C 6.58 g/m*3 5.8 C 1.6 km/h
2908 27-03-2019 10:00:00 8.16667 C 7 g/m*3 8.17 C 2.93333 km/h
2909 27-03-2019 11:00:00 9.13333 C 6.8 g/m*3 8.58 C 5.625 km/h
2910 27-03-2019 12:00:00 10.05 C 6.55 g/m*3 9.49 C 6.16667 km/h
2911 27-03-2019 13:00:00 10.8 C 6.28 g/m*3 9.64 C 9.68333 km/h
2912 27-03-2019 14:00:00 11.05 C 6.13 g/m*3 11.05 C 6.44167 km/h
2913 27-03-2019 15:00:00 11.10833 C 6.07 g/m*3 11.11 C 7.51667 km/h
2914 27-03-2019 16:00:00 11.23333 C 6.02 g/m*3 11.23 C 6.3 km/h
2915 27-03-2019 17:00:00 10.975 C 5.99 g/m*3 10.77 C 5.33333 km/h
2916 27-03-2019 18:00:00 9.83333 C 6.38 g/m*3 9.83 C 0.8 km/h
2917 27-03-2019 19:00:00 7.64167 C 6.24 g/m*3 7.64 C 3.46667 km/h
2918 27-03-2019 20:00:00 6.49167 C 6.12 g/m*3 6.49 C 3.86667 km/h
2919 27-03-2019 21:00:00 5.69167 C 6.04 g/m*3 5.69 C 1.33333 km/h
2920 27-03-2019 22:00:00 4.725 C 5.79 g/m*3 4.72 C 0.4 km/h
2921 27-03-2019 23:00:00 3.475 C 5.52 g/m*3 3.48 C 0 km/h
2922 28-03-2019 00:00:00 2.925 C 5.43 g/m*3 2.93 C 0.53333 km/h
2923 28-03-2019 01:00:00 2.475 C 5.3 g/m*3 2.48 C 0 km/h
2924 28-03-2019 02:00:00 1.975 C 5.16 g/m*3 1.98 C 0 km/h
2925 28-03-2019 03:00:00 1.60833 C 5.07 g/m*3 1.61 C 0 km/h
Sensor: Nr:Datum:Temp:Abs-Feuchte:Windchill:Wind:
Aussen-T/F 2926 28-03-2019 04:00:00 1.375 C 5.01 g/m*3 1.38 C 0.13333 km/h
2927 28-03-2019 05:00:00 1.13333 C 4.95 g/m*3 1.13 C 0 km/h
2928 28-03-2019 06:00:00 1.59167 C 5.13 g/m*3 1.59 C 0 km/h
2929 28-03-2019 07:00:00 2.11667 C 5.32 g/m*3 2.12 C 0.26667 km/h
2930 28-03-2019 08:00:00 2.79167 C 5.55 g/m*3 2.79 C 1.33333 km/h
2931 28-03-2019 09:00:00 4.425 C 6.07 g/m*3 4.43 C 2.66667 km/h
2932 28-03-2019 10:00:00 7.30833 C 6.69 g/m*3 7.31 C 0.4 km/h
2933 28-03-2019 11:00:00 10.325 C 7.27 g/m*3 10.33 C 3.475 km/h
2934 28-03-2019 12:00:00 12.53333 C 7.36 g/m*3 12.53 C 8.33333 km/h
2935 28-03-2019 13:00:00 13.21667 C 7.57 g/m*3 13.22 C 8.33333 km/h
2936 28-03-2019 14:00:00 13.5 C 7.52 g/m*3 13.5 C 10.75833 km/h
2937 28-03-2019 15:00:00 13.4 C 7.4 g/m*3 13.4 C 8.60833 km/h
2938 28-03-2019 16:00:00 13.45833 C 7.32 g/m*3 13.46 C 9.01667 km/h
2939 28-03-2019 17:00:00 13.19167 C 7.32 g/m*3 13.19 C 6.70833 km/h
2940 28-03-2019 18:00:00 12.16667 C 7.58 g/m*3 12.17 C 2.53333 km/h
2941 28-03-2019 19:00:00 10.36667 C 7.52 g/m*3 10.37 C 0.93333 km/h
2942 28-03-2019 20:00:00 10.23333 C 7.49 g/m*3 10.23 C 0.53333 km/h
2943 28-03-2019 21:00:00 9.50833 C 7.27 g/m*3 9.51 C 0 km/h
2944 28-03-2019 22:00:00 7.88333 C 6.88 g/m*3 7.88 C 0.53333 km/h
2945 28-03-2019 23:00:00 6.3 C 6.5 g/m*3 6.3 C 0 km/h
2946 29-03-2019 00:00:00 5.28333 C 6.27 g/m*3 5.28 C 0 km/h
2947 29-03-2019 01:00:00 4.35 C 6 g/m*3 4.35 C 0 km/h
2948 29-03-2019 02:00:00 3.85833 C 5.89 g/m*3 3.86 C 0 km/h
2949 29-03-2019 03:00:00 3.05833 C 5.61 g/m*3 3.06 C 0 km/h
2950 29-03-2019 04:00:00 2.89167 C 5.61 g/m*3 2.89 C 0 km/h
Sensor: Nr:Datum:Temp:Abs-Feuchte:Windchill:Wind:
Aussen-T/F 2951 29-03-2019 05:00:00 2.18333 C 5.34 g/m*3 2.18 C 0 km/h
2952 29-03-2019 06:00:00 2.075 C 5.31 g/m*3 2.08 C 0 km/h
2953 29-03-2019 07:00:00 2.175 C 5.39 g/m*3 2.17 C 0 km/h
2954 29-03-2019 08:00:00 2.93333 C 5.69 g/m*3 2.93 C 0 km/h
2955 29-03-2019 09:00:00 4.94167 C 6.56 g/m*3 4.94 C 0 km/h
2956 29-03-2019 10:00:00 8.09167 C 7.98 g/m*3 8.09 C 0.53333 km/h
2957 29-03-2019 11:00:00 12.48333 C 8.54 g/m*3 12.48 C 9.79167 km/h
2958 29-03-2019 12:00:00 14.475 C 8.29 g/m*3 14.48 C 8.46667 km/h
2959 29-03-2019 13:00:00 15.93333 C 8.14 g/m*3 15.93 C 10.225 km/h
2960 29-03-2019 14:00:00 16.83333 C 7.91 g/m*3 16.83 C 10.89167 km/h
2961 29-03-2019 15:00:00 17.475 C 7.8 g/m*3 17.48 C 9.68333 km/h
2962 29-03-2019 16:00:00 18.41667 C 7.82 g/m*3 18.42 C 8.71667 km/h
2963 29-03-2019 17:00:00 18.94167 C 7.7 g/m*3 18.94 C 4.53333 km/h
2964 29-03-2019 18:00:00 16.95833 C 7.77 g/m*3 16.96 C 2.675 km/h
2965 29-03-2019 19:00:00 11.55 C 7.26 g/m*3 11.55 C 5.46667 km/h
2966 29-03-2019 20:00:00 9.86667 C 7.1 g/m*3 9.87 C 1.6 km/h
2967 29-03-2019 21:00:00 8.10833 C 6.77 g/m*3 8.11 C 0 km/h
2968 29-03-2019 22:00:00 6.7 C 6.42 g/m*3 6.7 C 0 km/h
2969 29-03-2019 23:00:00 5.575 C 6.15 g/m*3 5.58 C 0 km/h
2970 30-03-2019 00:00:00 4.59167 C 5.94 g/m*3 4.59 C 0 km/h
2971 30-03-2019 01:00:00 4 C 5.82 g/m*3 4 C 0 km/h
2972 30-03-2019 02:00:00 3.45 C 5.66 g/m*3 3.45 C 0 km/h
2973 30-03-2019 03:00:00 2.8 C 5.49 g/m*3 2.8 C 0 km/h
2974 30-03-2019 04:00:00 2.48333 C 5.4 g/m*3 2.48 C 0 km/h
2975 30-03-2019 05:00:00 1.875 C 5.19 g/m*3 1.88 C 0 km/h
Sensor: Nr:Datum:Temp:Abs-Feuchte:Windchill:Wind:
Aussen-T/F 2976 30-03-2019 06:00:00 1.73333 C 5.18 g/m*3 1.73 C 0 km/h
2977 30-03-2019 07:00:00 2.11667 C 5.36 g/m*3 2.12 C 0.13333 km/h
2978 30-03-2019 08:00:00 3.35833 C 5.85 g/m*3 3.36 C 0.26667 km/h
2979 30-03-2019 09:00:00 5.45 C 6.77 g/m*3 5.45 C 0 km/h
2980 30-03-2019 10:00:00 8.84167 C 7.93 g/m*3 8.84 C 0 km/h
2981 30-03-2019 11:00:00 13.74167 C 8.36 g/m*3 13.74 C 5.225 km/h
2982 30-03-2019 12:00:00 17.6 C 7.5 g/m*3 17.6 C 14.76667 km/h
2983 30-03-2019 13:00:00 19.30833 C 6.85 g/m*3 19.31 C 14.76667 km/h
2984 30-03-2019 14:00:00 19.93333 C 6.57 g/m*3 19.93 C 16.63333 km/h
2985 30-03-2019 15:00:00 20.41667 C 6.55 g/m*3 20.42 C 13.96667 km/h
2986 30-03-2019 16:00:00 20.54167 C 6.94 g/m*3 20.54 C 8.85 km/h
2987 30-03-2019 17:00:00 19.46667 C 7.22 g/m*3 19.47 C 4.29167 km/h
2988 30-03-2019 18:00:00 17.30833 C 7.89 g/m*3 17.31 C 1.86667 km/h
2989 30-03-2019 19:00:00 14.88333 C 7.55 g/m*3 14.88 C 0.8 km/h
2990 30-03-2019 20:00:00 13.79167 C 7.66 g/m*3 13.79 C 2.66667 km/h
2991 30-03-2019 21:00:00 12.4 C 7.6 g/m*3 12.4 C 0.93333 km/h
2992 30-03-2019 22:00:00 11.125 C 7.57 g/m*3 11.13 C 0 km/h
2993 30-03-2019 23:00:00 10.80833 C 7.47 g/m*3 10.81 C 0 km/h
2994 31-03-2019 00:00:00 9.55833 C 7.04 g/m*3 9.56 C 0.4 km/h
2995 31-03-2019 01:00:00 8.38333 C 6.93 g/m*3 8.38 C 0 km/h
2996 31-03-2019 02:00:00 7.30833 C 6.64 g/m*3 7.31 C 0.4 km/h
2997 31-03-2019 04:00:00 6.45 C 6.42 g/m*3 6.45 C 0.13333 km/h
2998 31-03-2019 05:00:00 5.15 C 6.1 g/m*3 5.15 C 0.13333 km/h
2999 31-03-2019 06:00:00 4.95 C 6.13 g/m*3 4.95 C 0.4 km/h
3000 31-03-2019 07:00:00 4.78333 C 6.08 g/m*3 4.78 C 0.4 km/h
Sensor: Nr:Datum:Temp:Abs-Feuchte:Windchill:Wind:
Aussen-T/F 3001 31-03-2019 08:00:00 4.70833 C 6.13 g/m*3 4.71 C 0 km/h
3002 31-03-2019 09:00:00 5.50833 C 6.53 g/m*3 5.51 C 0 km/h
3003 31-03-2019 10:00:00 8 C 7.54 g/m*3 8 C 0 km/h
3004 31-03-2019 11:00:00 11.51667 C 8.13 g/m*3 11.52 C 0.26667 km/h
3005 31-03-2019 12:00:00 14.56667 C 8.23 g/m*3 14.57 C 3.2 km/h
3006 31-03-2019 13:00:00 16.74167 C 7.93 g/m*3 16.74 C 5.76667 km/h
3007 31-03-2019 14:00:00 18.34167 C 7.9 g/m*3 18.34 C 7.91667 km/h
3008 31-03-2019 15:00:00 18.825 C 7.77 g/m*3 18.83 C 9.81667 km/h
3009 31-03-2019 16:00:00 15.925 C 9.88 g/m*3 15.93 C 6.96667 km/h
3010 31-03-2019 17:00:00 14.2 C 10.95 g/m*3 14.2 C 1.86667 km/h
3011 31-03-2019 18:00:00 15.28333 C 9.93 g/m*3 15.28 C 4.95 km/h
3012 31-03-2019 19:00:00 12.74167 C 9 g/m*3 12.74 C 2.93333 km/h
3013 31-03-2019 20:00:00 10.11667 C 8.24 g/m*3 10.12 C 4.4 km/h
3014 31-03-2019 21:00:00 8.95 C 7.72 g/m*3 8.95 C 2.13333 km/h
3015 31-03-2019 22:00:00 8.04167 C 7.27 g/m*3 8.04 C 2 km/h
3016 31-03-2019 23:00:00 7.21667 C 6.92 g/m*3 7.22 C 0.8 km/h
3017 01-04-2019 00:00:00 6.36667 C 6.62 g/m*3 6.37 C 0 km/h
3018 01-04-2019 01:00:00 5.74167 C 6.37 g/m*3 5.74 C 0.26667 km/h
3019 01-04-2019 02:00:00 5.25 C 6.22 g/m*3 5.25 C 1.86667 km/h
3020 01-04-2019 03:00:00 4.69167 C 6.04 g/m*3 4.69 C 2.8 km/h
3021 01-04-2019 04:00:00 4.31667 C 5.9 g/m*3 4.32 C 1.73333 km/h
3022 01-04-2019 05:00:00 3.975 C 5.78 g/m*3 3.98 C 0.8 km/h
3023 01-04-2019 06:00:00 3.56667 C 5.67 g/m*3 3.57 C 0.4 km/h
3024 01-04-2019 07:00:00 3.15 C 5.54 g/m*3 3.15 C 0.8 km/h
3025 01-04-2019 08:00:00 3.16667 C 5.61 g/m*3 3.17 C 0 km/h
Sensor: Nr:Datum:Temp:Abs-Feuchte:Windchill:Wind:
Aussen-T/F 3026 01-04-2019 09:00:00 4.29167 C 6.01 g/m*3 4.29 C 0.66667 km/h
3027 01-04-2019 10:00:00 6.65 C 6.32 g/m*3 5.52 C 6.31667 km/h
3028 01-04-2019 11:00:00 9.53333 C 6.5 g/m*3 8.18 C 9.40833 km/h
3029 01-04-2019 12:00:00 11.28333 C 6.7 g/m*3 11.28 C 10.08333 km/h
3030 01-04-2019 13:00:00 13.00833 C 6.96 g/m*3 13.01 C 9.15833 km/h
3031 01-04-2019 14:00:00 14.91667 C 7.26 g/m*3 14.92 C 10.63333 km/h
3032 01-04-2019 15:00:00 16.39167 C 7.5 g/m*3 16.39 C 8.73333 km/h
3033 01-04-2019 16:00:00 17.5 C 7.53 g/m*3 17.5 C 6.15833 km/h
3034 01-04-2019 17:00:00 18.275 C 7.44 g/m*3 18.27 C 8.46667 km/h
3035 01-04-2019 18:00:00 17.875 C 7.22 g/m*3 17.88 C 7.65833 km/h
3036 01-04-2019 19:00:00 16 C 7.62 g/m*3 16 C 4.01667 km/h
3037 01-04-2019 20:00:00 11.775 C 7.41 g/m*3 11.78 C 5.2 km/h
3038 01-04-2019 21:00:00 10.15833 C 7.18 g/m*3 10.16 C 4.66667 km/h
3039 01-04-2019 22:00:00 9.35 C 6.95 g/m*3 9.35 C 2.26667 km/h
3040 01-04-2019 23:00:00 8.79167 C 6.73 g/m*3 8.79 C 1.86667 km/h
3041 02-04-2019 00:00:00 7.93333 C 6.63 g/m*3 7.93 C 0 km/h
3042 02-04-2019 01:00:00 7.04167 C 6.46 g/m*3 7.04 C 0 km/h
3043 02-04-2019 02:00:00 6.3 C 6.27 g/m*3 6.3 C 0 km/h
3044 02-04-2019 03:00:00 5.09167 C 5.98 g/m*3 5.09 C 0 km/h
3045 02-04-2019 04:00:00 4.39167 C 5.88 g/m*3 4.39 C 0 km/h
3046 02-04-2019 05:00:00 3.96667 C 5.78 g/m*3 3.97 C 0 km/h
3047 02-04-2019 06:00:00 3.88333 C 5.81 g/m*3 3.88 C 0 km/h
3048 02-04-2019 07:00:00 4.00833 C 5.91 g/m*3 4.01 C 0 km/h
3049 02-04-2019 08:00:00 4.98333 C 6.31 g/m*3 4.98 C 0 km/h
3050 02-04-2019 09:00:00 6.53333 C 6.71 g/m*3 6.53 C 0 km/h
Sensor: Nr:Datum:Temp:Abs-Feuchte:Windchill:Wind:
Aussen-T/F 3051 02-04-2019 10:00:00 8.71667 C 7.1 g/m*3 8.72 C 0 km/h
3052 02-04-2019 11:00:00 11.95 C 7.96 g/m*3 11.95 C 2.8 km/h
3053 02-04-2019 12:00:00 15.01667 C 8.57 g/m*3 15.02 C 4.01667 km/h
3054 02-04-2019 13:00:00 16.80833 C 8.7 g/m*3 16.81 C 6.175 km/h
3055 02-04-2019 14:00:00 17.975 C 8.91 g/m*3 17.98 C 9.55833 km/h
3056 02-04-2019 15:00:00 16.725 C 9.1 g/m*3 16.73 C 12.625 km/h
3057 02-04-2019 16:00:00 17.46667 C 8.58 g/m*3 17.47 C 16.36667 km/h
3058 02-04-2019 17:00:00 16.00833 C 8.99 g/m*3 16.01 C 9.15 km/h
3059 02-04-2019 18:00:00 16.08333 C 8.71 g/m*3 16.08 C 6.71667 km/h
3060 02-04-2019 19:00:00 15.35833 C 8.65 g/m*3 15.36 C 4.00833 km/h
3061 02-04-2019 20:00:00 14.03333 C 8.59 g/m*3 14.03 C 7.11667 km/h
3062 02-04-2019 21:00:00 13.50833 C 8.12 g/m*3 13.51 C 8.325 km/h
3063 02-04-2019 22:00:00 12.66667 C 7.79 g/m*3 12.67 C 6.84167 km/h
3064 02-04-2019 23:00:00 11.4 C 7.6 g/m*3 11.4 C 0.66667 km/h
3065 03-04-2019 00:00:00 10.50833 C 7.64 g/m*3 10.51 C 0.66667 km/h
3066 03-04-2019 01:00:00 10.275 C 7.62 g/m*3 10.28 C 0 km/h
3067 03-04-2019 02:00:00 9.90833 C 7.61 g/m*3 9.91 C 0 km/h
3068 03-04-2019 03:00:00 8.91667 C 7.43 g/m*3 8.92 C 0 km/h
3069 03-04-2019 04:00:00 8.875 C 7.54 g/m*3 8.88 C 0 km/h
3070 03-04-2019 05:00:00 8.6 C 7.44 g/m*3 8.6 C 0 km/h
3071 03-04-2019 06:00:00 8.075 C 7.3 g/m*3 8.07 C 0.53333 km/h
3072 03-04-2019 07:00:00 8.64167 C 7.32 g/m*3 8.64 C 0.53333 km/h
3073 03-04-2019 08:00:00 8.86667 C 7.52 g/m*3 8.87 C 3.35833 km/h
3074 03-04-2019 09:00:00 7.66667 C 7.32 g/m*3 5.96 C 9.4 km/h
3075 03-04-2019 10:00:00 7.025 C 7.11 g/m*3 7.03 C 2.80833 km/h
Sensor: Nr:Datum:Temp:Abs-Feuchte:Windchill:Wind:
Aussen-T/F 3076 03-04-2019 11:00:00 7.44167 C 7.33 g/m*3 7.44 C 1.2 km/h
3077 03-04-2019 12:00:00 8.33333 C 7.51 g/m*3 8.33 C 3.60833 km/h
3078 03-04-2019 13:00:00 9.475 C 7.56 g/m*3 9.48 C 3.6 km/h
3079 03-04-2019 14:00:00 9.43333 C 7.37 g/m*3 9.43 C 4.54167 km/h
3080 03-04-2019 15:00:00 10.05 C 7.52 g/m*3 9.35 C 6.7 km/h
3081 03-04-2019 16:00:00 10.2 C 7.47 g/m*3 10.2 C 4.675 km/h
3082 03-04-2019 17:00:00 9.45833 C 7.47 g/m*3 9.46 C 2.93333 km/h
3083 03-04-2019 18:00:00 7.93333 C 7.42 g/m*3 7.93 C 1.6 km/h
3084 03-04-2019 19:00:00 7.025 C 7.2 g/m*3 7.03 C 0.26667 km/h
3085 03-04-2019 20:00:00 6.45 C 7 g/m*3 6.45 C 0 km/h
3086 03-04-2019 21:00:00 6.23333 C 6.98 g/m*3 6.23 C 0 km/h
3087 03-04-2019 22:00:00 5.875 C 6.84 g/m*3 5.88 C 0.13333 km/h
3088 03-04-2019 23:00:00 5.63333 C 6.73 g/m*3 5.63 C 0.13333 km/h
3089 04-04-2019 00:00:00 5.65 C 6.77 g/m*3 5.65 C 0.4 km/h
3090 04-04-2019 01:00:00 5.325 C 6.64 g/m*3 5.33 C 1.06667 km/h
3091 04-04-2019 02:00:00 5.41667 C 6.71 g/m*3 5.42 C 2.13333 km/h
3092 04-04-2019 03:00:00 5.6 C 6.79 g/m*3 5.6 C 0 km/h
3093 04-04-2019 04:00:00 5.54167 C 6.76 g/m*3 5.54 C 0 km/h
3094 04-04-2019 05:00:00 5.60833 C 6.79 g/m*3 5.61 C 0 km/h
3095 04-04-2019 06:00:00 5.475 C 6.73 g/m*3 5.48 C 0 km/h
3096 04-04-2019 07:00:00 5.34167 C 6.67 g/m*3 5.34 C 0 km/h
3097 04-04-2019 08:00:00 5.61667 C 6.79 g/m*3 5.62 C 0 km/h
3098 04-04-2019 09:00:00 5.93333 C 6.97 g/m*3 5.93 C 0.66667 km/h
3099 04-04-2019 10:00:00 6.075 C 7 g/m*3 6.08 C 1.46667 km/h
3100 04-04-2019 11:00:00 6.65833 C 7.07 g/m*3 6.66 C 2.26667 km/h
Sensor: Nr:Datum:Temp:Abs-Feuchte:Windchill:Wind:
Aussen-T/F 3101 04-04-2019 12:00:00 6.95 C 6.91 g/m*3 6.17 C 5.375 km/h
3102 04-04-2019 13:00:00 6.69167 C 6.96 g/m*3 6.69 C 2.80833 km/h
3103 04-04-2019 14:00:00 6.4 C 6.84 g/m*3 6.4 C 4.14167 km/h
3104 04-04-2019 15:00:00 6.85833 C 6.99 g/m*3 6.86 C 0.4 km/h
3105 04-04-2019 16:00:00 7.08333 C 7.09 g/m*3 7.08 C 1.73333 km/h
3106 04-04-2019 17:00:00 7.43333 C 7.03 g/m*3 7.43 C 4.55 km/h
3107 04-04-2019 18:00:00 7.56667 C 6.85 g/m*3 7.57 C 3.475 km/h
3108 04-04-2019 19:00:00 7.25833 C 6.86 g/m*3 7.26 C 1.33333 km/h
3109 04-04-2019 20:00:00 5.95833 C 6.64 g/m*3 5.96 C 1.46667 km/h
3110 04-04-2019 21:00:00 5.29167 C 6.48 g/m*3 5.29 C 1.33333 km/h
3111 04-04-2019 22:00:00 5.08333 C 6.45 g/m*3 5.08 C 0.53333 km/h
3112 04-04-2019 23:00:00 4.575 C 6.24 g/m*3 4.58 C 0 km/h
3113 05-04-2019 00:00:00 4.10833 C 6.08 g/m*3 4.11 C 0 km/h
3114 05-04-2019 01:00:00 3.525 C 5.87 g/m*3 3.53 C 0 km/h
3115 05-04-2019 02:00:00 3.775 C 6.01 g/m*3 3.78 C 0 km/h
3116 05-04-2019 03:00:00 3.85833 C 6.05 g/m*3 3.86 C 0 km/h
3117 05-04-2019 04:00:00 4.06667 C 6.13 g/m*3 4.07 C 0 km/h
3118 05-04-2019 05:00:00 3.93333 C 6.08 g/m*3 3.93 C 0 km/h
3119 05-04-2019 06:00:00 3.9 C 6.06 g/m*3 3.9 C 0 km/h
3120 05-04-2019 07:00:00 4.13333 C 6.2 g/m*3 4.13 C 0 km/h
3121 05-04-2019 08:00:00 4.64167 C 6.44 g/m*3 4.64 C 0 km/h
3122 05-04-2019 09:00:00 5.3 C 6.72 g/m*3 5.3 C 3.06667 km/h
3123 05-04-2019 10:00:00 5.89167 C 6.89 g/m*3 5.89 C 1.2 km/h
3124 05-04-2019 11:00:00 7.16667 C 7.06 g/m*3 6.34 C 5.60833 km/h
3125 05-04-2019 12:00:00 8.025 C 7.1 g/m*3 6.87 C 7.23333 km/h
Sensor: Nr:Datum:Temp:Abs-Feuchte:Windchill:Wind:
Aussen-T/F 3126 05-04-2019 13:00:00 8.19167 C 7.07 g/m*3 8.19 C 4.54167 km/h
3127 05-04-2019 14:00:00 8.41667 C 7.1 g/m*3 8.42 C 3.46667 km/h
3128 05-04-2019 15:00:00 8.55 C 7.21 g/m*3 8.55 C 4.40833 km/h
3129 05-04-2019 16:00:00 8.58333 C 7.32 g/m*3 8.08 C 5.20833 km/h
3130 05-04-2019 17:00:00 8.41667 C 7.4 g/m*3 8.42 C 4.14167 km/h
3131 05-04-2019 18:00:00 8.3 C 7.49 g/m*3 8.3 C 2.94167 km/h
3132 05-04-2019 19:00:00 8.19167 C 7.55 g/m*3 8.19 C 0 km/h
3133 05-04-2019 20:00:00 7.925 C 7.55 g/m*3 7.93 C 0 km/h
3134 05-04-2019 21:00:00 7.69167 C 7.54 g/m*3 7.69 C 0 km/h
3135 05-04-2019 22:00:00 7.61667 C 7.58 g/m*3 7.62 C 0 km/h
3136 05-04-2019 23:00:00 7.6 C 7.61 g/m*3 7.6 C 0 km/h
3137 06-04-2019 00:00:00 7.45833 C 7.58 g/m*3 7.46 C 0 km/h
3138 06-04-2019 01:00:00 7.40833 C 7.63 g/m*3 7.41 C 0 km/h
3139 06-04-2019 02:00:00 7.225 C 7.54 g/m*3 7.23 C 0 km/h
3140 06-04-2019 03:00:00 6.14167 C 6.97 g/m*3 6.14 C 2.93333 km/h
3141 06-04-2019 04:00:00 5.15833 C 6.57 g/m*3 5.16 C 0.13333 km/h
3142 06-04-2019 05:00:00 5.01667 C 6.53 g/m*3 5.02 C 0 km/h
3143 06-04-2019 06:00:00 4.675 C 6.4 g/m*3 4.68 C 0 km/h
3144 06-04-2019 07:00:00 5.13333 C 6.63 g/m*3 5.13 C 0 km/h
3145 06-04-2019 08:00:00 5.71667 C 6.91 g/m*3 5.72 C 0.4 km/h
3146 06-04-2019 09:00:00 6.025 C 7.05 g/m*3 6.03 C 0.53333 km/h
3147 06-04-2019 10:00:00 7.325 C 7.69 g/m*3 7.33 C 0 km/h
3148 06-04-2019 11:00:00 9.825 C 8.4 g/m*3 9.09 C 6.70833 km/h
3149 06-04-2019 12:00:00 12.51667 C 8.42 g/m*3 12.52 C 5.89167 km/h
3150 06-04-2019 13:00:00 14.375 C 8.5 g/m*3 14.38 C 8.325 km/h
Sensor: Nr:Datum:Temp: